[[{"header":{"parameterUnit":"m.s-1","parameterCategory":1,"la1":30.6,"la2":28.766,"lo1":-90.7593,"lo2":-88.6598,"dy":0.0162,"dx":0.0183,"nx":116,"ny":114,"refTime":"2023-03-12T06:00:00:Z","depth":0,"parameterNumber":2,"parameterNumberName":"U-component_of_WINDS"},"data":[0.0,0.0,0.0,0.0,0.0,0.0,0.0,0.0,0.0,0.0,0.0,0.0,0.0,0.0,0.0,0.0,0.0,0.0,0.0,0.0,0.0,0.0,0.0,0.0,0.0,0.0,0.0,0.0,0.0,0.0,0.0,0.0,0.0,0.0,0.0,0.0,0.0,0.0,0.0,0.0,0.0,0.0,0.0,0.0,0.0,0.0,0.0,0.0,0.0,0.0,0.0,0.0,0.0,0.0,0.0,0.0,0.0,0.0,0.0,0.0,0.0,0.0,0.0,0.0,0.0,0.0,0.0,0.0,0.0,0.0,0.0,0.0,0.0,0.0,0.0,0.0,0.0,0.0,0.0,0.0,0.0,0.0,0.0,0.0,0.0,0.0,0.0,0.0,0.0,0.0,0.0,0.0,0.0,0.0,0.0,0.0,0.0,0.0,0.0,0.0,0.0,0.0,0.0,0.0,0.0,0.0,0.0,0.0,0.0,0.0,0.0,0.0,0.0,0.0,0.0,0.0,0.0,0.0,0.0,0.0,0.0,0.0,0.0,0.0,0.0,0.0,0.0,0.0,0.0,0.0,0.0,0.0,0.0,0.0,0.0,0.0,0.0,0.0,0.0,0.0,0.0,0.0,0.0,0.0,0.0,0.0,0.0,0.0,0.0,0.0,0.0,0.0,0.0,0.0,0.0,0.0,0.0,0.0,0.0,0.0,0.0,0.0,0.0,0.0,0.0,0.0,0.0,0.0,0.0,0.0,0.0,0.0,0.0,0.0,0.0,0.0,0.0,0.0,0.0,0.0,0.0,0.0,0.0,0.0,0.0,0.0,0.0,0.0,0.0,0.0,0.0,0.0,0.0,0.0,0.0,0.0,0.0,0.0,0.0,0.0,0.0,0.0,0.0,0.0,0.0,0.0,0.0,0.0,0.0,0.0,0.0,0.0,0.0,0.0,0.0,0.0,0.0,0.0,0.0,0.0,0.0,0.0,0.0,0.0,0.0,0.0,0.0,0.0,0.0,0.0,0.0,0.0,0.0,0.0,0.0,0.0,0.0,0.0,0.0,0.0,0.0,0.0,0.0,0.0,0.0,0.0,0.0,0.0,0.0,0.0,0.0,0.0,0.0,0.0,0.0,0.0,0.0,0.0,0.0,0.0,0.0,0.0,0.0,0.0,0.0,0.0,0.0,0.0,0.0,0.0,0.0,0.0,0.0,0.0,0.0,0.0,0.0,0.0,0.0,0.0,0.0,0.0,0.0,0.0,0.0,0.0,0.0,0.0,0.0,0.0,0.0,0.0,0.0,0.0,0.0,0.0,0.0,0.0,0.0,0.0,0.0,0.0,0.0,0.0,0.0,0.0,0.0,0.0,0.0,0.0,0.0,0.0,0.0,0.0,0.0,0.0,0.0,0.0,0.0,0.0,0.0,0.0,0.0,0.0,0.0,0.0,0.0,0.0,0.0,0.0,0.0,0.0,0.0,0.0,0.0,0.0,0.0,0.0,0.0,0.0,0.0,0.0,0.0,0.0,0.0,0.0,0.0,0.0,0.0,0.0,0.0,0.0,0.0,0.0,0.0,0.0,0.0,0.0,0.0,0.0,0.0,0.0,0.0,0.0,0.0,0.0,0.0,0.0,0.0,0.0,0.0,0.0,0.0,0.0,0.0,0.0,0.0,0.0,0.0,0.0,0.0,0.0,0.0,0.0,0.0,0.0,0.0,0.0,0.0,0.0,0.0,0.0,0.0,0.0,0.0,0.0,0.0,0.0,0.0,0.0,0.0,0.0,0.0,0.0,0.0,0.0,0.0,0.0,0.0,0.0,0.0,0.0,0.0,0.0,0.0,0.0,0.0,0.0,0.0,0.0,0.0,0.0,0.0,0.0,0.0,0.0,0.0,0.0,0.0,0.0,0.0,0.0,0.0,0.0,0.0,0.0,0.0,0.0,0.0,0.0,0.0,0.0,0.0,0.0,0.0,0.0,0.0,0.0,0.0,0.0,0.0,0.0,0.0,0.0,0.0,0.0,0.0,0.0,0.0,0.0,0.0,0.0,0.0,0.0,0.0,0.0,0.0,0.0,0.0,0.0,0.0,0.0,0.0,0.0,0.0,0.0,0.0,0.0,0.0,0.0,0.0,0.0,0.0,0.0,0.0,0.0,0.0,0.0,0.0,0.0,0.0,0.0,0.0,0.0,0.0,0.0,0.0,0.0,0.0,0.0,0.0,0.0,0.0,0.0,0.0,0.0,0.0,0.0,0.0,0.0,0.0,0.0,0.0,0.0,0.0,0.0,0.0,0.0,0.0,0.0,0.0,0.0,0.0,0.0,0.0,0.0,0.0,0.0,0.0,0.0,0.0,0.0,0.0,0.0,0.0,0.0,0.0,0.0,0.0,0.0,0.0,0.0,0.0,0.0,0.0,0.0,0.0,0.0,0.0,0.0,0.0,0.0,0.0,0.0,0.0,0.0,0.0,0.0,0.0,0.0,0.0,0.0,0.0,0.0,0.0,0.0,0.0,0.0,0.0,0.0,0.0,0.0,0.0,0.0,0.0,0.0,0.0,0.0,0.0,0.0,0.0,0.0,0.0,0.0,0.0,0.0,0.0,0.0,0.0,0.0,0.0,0.0,0.0,0.0,0.0,0.0,0.0,0.0,0.0,0.0,0.0,0.0,0.0,0.0,0.0,0.0,0.0,0.0,0.0,0.0,0.0,0.0,0.0,0.0,0.0,0.0,0.0,0.0,0.0,0.0,0.0,0.0,0.0,0.0,0.0,0.0,0.0,0.0,0.0,0.0,0.0,0.0,0.0,0.0,0.0,0.0,0.0,0.0,0.0,0.0,0.0,0.0,0.0,0.0,0.0,0.0,0.0,0.0,0.0,0.0,0.0,0.0,0.0,0.0,0.0,0.0,0.0,0.0,0.0,0.0,0.0,0.0,0.0,0.0,0.0,0.0,0.0,0.0,0.0,0.0,0.0,0.0,0.0,0.0,0.0,0.0,0.0,0.0,0.0,0.0,0.0,0.0,0.0,0.0,0.0,0.0,0.0,0.0,0.0,0.0,0.0,0.0,0.0,0.0,0.0,0.0,0.0,0.0,0.0,0.0,0.0,0.0,0.0,0.0,0.0,0.0,0.0,0.0,0.0,0.0,0.0,0.0,0.0,0.0,0.0,0.0,0.0,0.0,0.0,0.0,0.0,0.0,0.0,0.0,0.0,0.0,0.0,0.0,0.0,0.0,0.0,0.0,0.0,0.0,0.0,0.0,0.0,0.0,0.0,0.0,0.0,0.0,0.0,0.0,0.0,0.0,0.0,0.0,0.0,0.0,0.0,0.0,0.0,0.0,0.0,0.0,0.0,0.0,0.0,0.0,0.0,0.0,0.0,0.0,0.0,0.0,0.0,0.0,0.0,0.0,0.0,0.0,0.0,0.0,0.0,0.0,0.0,0.0,0.0,0.0,0.0,0.0,0.0,0.0,0.0,0.0,0.0,0.0,0.0,0.0,0.0,0.0,0.0,0.0,0.0,0.0,0.0,0.0,0.0,0.0,0.0,0.0,0.0,0.0,0.0,0.0,0.0,0.0,0.0,0.0,0.0,0.0,0.0,0.0,0.0,0.0,0.0,0.0,0.0,0.0,0.0,0.0,0.0,0.0,0.0,0.0,0.0,0.0,0.0,0.0,0.0,0.0,0.0,0.0,0.0,0.0,0.0,0.0,0.0,0.0,0.0,0.0,0.0,0.0,0.0,0.0,0.0,0.0,0.0,0.0,0.0,0.0,0.0,0.0,0.0,0.0,0.0,0.0,0.0,0.0,0.0,0.0,0.0,0.0,0.0,0.0,0.0,0.0,0.0,0.0,0.0,0.0,0.0,0.0,0.0,0.0,0.0,0.0,0.0,0.0,0.0,0.0,0.0,0.0,0.0,0.0,0.0,0.0,0.0,0.0,0.0,0.0,0.0,0.0,0.0,0.0,0.0,0.0,0.0,0.0,0.0,0.0,0.0,0.0,0.0,0.0,0.0,0.0,0.0,0.0,0.0,0.0,0.0,0.0,0.0,0.0,0.0,0.0,0.0,0.0,0.0,0.0,0.0,0.0,0.0,0.0,0.0,0.0,0.0,0.0,0.0,0.0,0.0,0.0,0.0,0.0,0.0,0.0,0.0,0.0,0.0,0.0,0.0,0.0,0.0,0.0,0.0,0.0,0.0,0.0,0.0,0.0,0.0,0.0,0.0,0.0,0.0,0.0,0.0,0.0,0.0,0.0,0.0,0.0,0.0,0.0,0.0,0.0,0.0,0.0,0.0,0.0,0.0,0.0,0.0,0.0,0.0,0.0,0.0,0.0,0.0,0.0,0.0,0.0,0.0,0.0,0.0,0.0,0.0,0.0,0.0,0.0,0.0,0.0,0.0,0.0,0.0,0.0,0.0,0.0,0.0,0.0,0.0,0.0,0.0,0.0,0.0,0.0,0.0,0.0,0.0,0.0,0.0,0.0,0.0,0.0,0.0,0.0,0.0,0.0,0.0,0.0,0.0,0.0,0.0,0.0,0.0,0.0,0.0,0.0,0.0,0.0,0.0,0.0,0.0,0.0,0.0,0.0,0.0,0.0,0.0,0.0,0.0,0.0,0.0,0.0,0.0,0.0,0.0,0.0,0.0,0.0,0.0,0.0,0.0,0.0,0.0,0.0,0.0,0.0,0.0,0.0,0.0,0.0,0.0,0.0,0.0,0.0,0.0,0.0,0.0,0.0,0.0,0.0,0.0,0.0,0.0,0.0,0.0,0.0,0.0,0.0,0.0,0.0,0.0,0.0,0.0,0.0,0.0,0.0,0.0,0.0,0.0,0.0,0.0,0.0,0.0,0.0,0.0,0.0,0.0,0.0,0.0,0.0,0.0,0.0,0.0,0.0,0.0,0.0,0.0,0.0,0.0,0.0,0.0,0.0,0.0,0.0,0.0,0.0,0.0,0.0,0.0,0.0,0.0,0.0,0.0,0.0,0.0,0.0,0.0,0.0,0.0,0.0,0.0,0.0,0.0,0.0,0.0,0.0,0.0,0.0,0.0,0.0,0.0,0.0,0.0,0.0,0.0,0.0,0.0,0.0,0.0,0.0,0.0,0.0,0.0,0.0,0.0,0.0,0.0,0.0,0.0,0.0,0.0,0.0,0.0,0.0,0.0,0.0,0.0,0.0,0.0,0.0,0.0,0.0,0.0,0.0,0.0,0.0,0.0,0.0,0.0,0.0,0.0,0.0,0.0,0.0,0.0,0.0,0.0,0.0,0.0,0.0,0.0,0.0,0.0,0.0,0.0,0.0,0.0,0.0,0.0,0.0,0.0,0.0,0.0,0.0,0.0,0.0,0.0,0.0,0.0,0.0,0.0,0.0,0.0,0.0,0.0,0.0,0.0,0.0,0.0,0.0,0.0,0.0,0.0,0.0,0.0,0.0,0.0,0.0,0.0,0.0,0.0,0.0,0.0,0.0,0.0,0.0,0.0,0.0,0.0,0.0,0.0,0.0,0.0,0.0,0.0,0.0,0.0,0.0,0.0,0.0,0.0,0.0,0.0,0.0,0.0,0.0,0.0,0.0,0.0,0.0,0.0,0.0,0.0,0.0,0.0,0.0,0.0,0.0,0.0,0.0,0.0,0.0,0.0,0.0,0.0,0.0,0.0,0.0,0.0,0.0,0.0,0.0,0.0,0.0,0.0,0.0,0.0,0.0,0.0,0.0,0.0,0.0,0.0,0.0,0.0,0.0,0.0,0.0,0.0,0.0,0.0,0.0,0.0,0.0,0.0,0.0,0.0,0.0,0.0,0.0,0.0,0.0,0.0,0.0,0.0,0.0,0.0,0.0,0.0,0.0,0.0,0.0,0.0,0.0,0.0,0.0,0.0,0.0,0.0,0.0,0.0,0.0,0.0,0.0,0.0,0.0,0.0,0.0,0.0,0.0,0.0,0.0,0.0,0.0,0.0,0.0,0.0,0.0,0.0,0.0,0.0,0.0,0.0,0.0,0.0,0.0,0.0,0.0,0.0,0.0,0.0,0.0,0.0,0.0,0.0,0.0,0.0,0.0,0.0,0.0,0.0,0.0,0.0,0.0,0.0,0.0,6.9283,0.0,0.0,0.0,0.0,0.0,0.0,0.0,0.0,0.0,0.0,0.0,0.0,0.0,0.0,0.0,0.0,0.0,0.0,0.0,0.0,0.0,0.0,0.0,0.0,0.0,0.0,0.0,0.0,0.0,0.0,0.0,0.0,0.0,0.0,0.0,0.0,0.0,0.0,0.0,0.0,0.0,0.0,0.0,0.0,0.0,0.0,0.0,0.0,0.0,0.0,0.0,0.0,0.0,0.0,0.0,0.0,0.0,0.0,0.0,0.0,0.0,0.0,0.0,0.0,0.0,0.0,0.0,0.0,0.0,0.0,0.0,0.0,0.0,0.0,0.0,0.0,0.0,0.0,0.0,0.0,0.0,0.0,0.0,0.0,0.0,0.0,0.0,0.0,0.0,0.0,0.0,0.0,0.0,0.0,0.0,0.0,0.0,0.0,0.0,0.0,0.0,0.0,0.0,0.0,0.0,0.0,0.0,0.0,0.0,0.0,0.0,0.0,0.0,0.0,0.0,0.0,7.1783,0.0,0.0,0.0,0.0,0.0,0.0,0.0,0.0,0.0,0.0,0.0,0.0,0.0,0.0,0.0,0.0,0.0,0.0,0.0,0.0,0.0,0.0,0.0,0.0,0.0,0.0,0.0,0.0,0.0,0.0,0.0,0.0,0.0,0.0,0.0,0.0,0.0,0.0,0.0,0.0,0.0,0.0,0.0,0.0,0.0,0.0,0.0,0.0,0.0,0.0,0.0,0.0,0.0,0.0,0.0,0.0,0.0,0.0,0.0,0.0,0.0,0.0,0.0,0.0,0.0,0.0,0.0,0.0,0.0,0.0,0.0,0.0,0.0,0.0,0.0,0.0,0.0,0.0,0.0,0.0,0.0,0.0,0.0,0.0,0.0,0.0,0.0,0.0,0.0,0.0,0.0,0.0,0.0,0.0,0.0,0.0,0.0,0.0,0.0,0.0,0.0,0.0,0.0,0.0,0.0,0.0,0.0,0.0,7.9592,8.0862,8.2747,8.2362,8.19,8.1246,7.9131,7.5938,7.236,7.4168,0.0,0.0,0.0,0.0,0.0,0.0,0.0,0.0,0.0,0.0,0.0,0.0,0.0,0.0,0.0,0.0,0.0,0.0,0.0,0.0,0.0,0.0,0.0,0.0,0.0,0.0,0.0,0.0,0.0,0.0,0.0,0.0,0.0,0.0,0.0,0.0,0.0,0.0,0.0,0.0,0.0,0.0,0.0,0.0,0.0,0.0,0.0,0.0,0.0,0.0,0.0,0.0,0.0,0.0,0.0,0.0,0.0,0.0,0.0,0.0,0.0,0.0,0.0,0.0,0.0,0.0,0.0,0.0,0.0,0.0,0.0,0.0,0.0,0.0,0.0,0.0,0.0,0.0,0.0,0.0,0.0,0.0,0.0,0.0,0.0,0.0,6.5551,6.4974,0.0,0.0,0.0,0.0,0.0,0.0,0.0,0.0,0.0,0.0,0.0,0.0,0.0,7.6169,7.8284,7.9592,8.0785,8.1823,8.4055,8.4901,8.4593,8.594,8.6901,8.7517,8.7171,0.0,7.74,7.6284,0.0,0.0,0.0,0.0,0.0,0.0,0.0,0.0,0.0,0.0,0.0,0.0,0.0,0.0,0.0,0.0,0.0,0.0,0.0,0.0,0.0,0.0,0.0,0.0,0.0,0.0,0.0,0.0,0.0,0.0,0.0,0.0,0.0,0.0,0.0,0.0,0.0,0.0,0.0,0.0,0.0,0.0,0.0,0.0,0.0,0.0,0.0,0.0,0.0,0.0,0.0,0.0,0.0,0.0,0.0,0.0,0.0,0.0,0.0,0.0,0.0,0.0,0.0,0.0,0.0,0.0,0.0,0.0,0.0,0.0,0.0,0.0,0.0,0.0,0.0,0.0,0.0,0.0,0.0,0.0,0.0,0.0,0.0,0.0,0.0,6.432,6.6628,6.3397,6.6705,6.8013,0.0,0.0,0.0,0.0,0.0,0.0,0.0,0.0,0.0,7.5707,7.9169,8.1554,8.267,8.5401,8.7671,8.944,9.0556,9.1402,9.1979,9.2287,9.2864,9.3633,9.3633,9.1402,8.7401,8.2862,7.9631,7.7361,0.0,0.0,0.0,0.0,7.4476,7.5168,0.0,0.0,0.0,0.0,0.0,0.0,0.0,0.0,0.0,0.0,0.0,0.0,0.0,0.0,0.0,0.0,0.0,0.0,0.0,0.0,0.0,0.0,0.0,0.0,0.0,0.0,0.0,0.0,0.0,0.0,0.0,0.0,0.0,0.0,0.0,0.0,0.0,0.0,0.0,0.0,0.0,0.0,0.0,0.0,0.0,0.0,0.0,0.0,0.0,0.0,0.0,0.0,0.0,0.0,0.0,0.0,0.0,0.0,0.0,0.0,0.0,0.0,0.0,0.0,0.0,0.0,0.0,0.0,0.0,0.0,0.0,0.0,0.0,0.0,0.0,0.0,0.0,6.6282,6.8282,6.3628,6.8859,7.1091,0.0,0.0,0.0,0.0,0.0,0.0,7.5361,7.8438,8.0439,8.1093,8.4824,8.7363,8.844,9.1556,9.4326,9.6634,9.6596,9.725,9.8442,9.7865,9.8019,9.8788,9.8365,9.7557,9.6057,8.9056,8.4439,8.1516,7.9169,7.8015,7.7669,7.8092,7.8784,7.9554,0.0,0.0,0.0,0.0,0.0,0.0,0.0,0.0,0.0,0.0,0.0,0.0,0.0,0.0,0.0,0.0,0.0,0.0,0.0,0.0,0.0,0.0,0.0,0.0,0.0,0.0,0.0,0.0,0.0,0.0,0.0,0.0,0.0,0.0,0.0,0.0,0.0,0.0,0.0,0.0,0.0,0.0,0.0,0.0,0.0,0.0,0.0,0.0,0.0,0.0,0.0,0.0,0.0,0.0,0.0,0.0,0.0,0.0,0.0,0.0,0.0,0.0,0.0,0.0,0.0,0.0,0.0,0.0,0.0,0.0,0.0,0.0,0.0,0.0,0.0,0.0,0.0,0.0,0.0,6.9667,7.4514,0.0,0.0,0.0,0.0,7.6592,7.84,7.9746,8.0669,8.317,8.5709,8.8094,9.0748,9.4057,9.8057,9.8288,9.9288,10.1019,10.1019,10.1019,10.1096,10.1096,10.152,10.2289,10.0712,10.0404,10.0404,9.2787,8.8632,8.6594,8.2516,8.1362,8.19,8.117,8.14,8.2131,0.0,0.0,0.0,0.0,0.0,0.0,0.0,0.0,0.0,0.0,0.0,0.0,0.0,0.0,0.0,0.0,0.0,0.0,0.0,0.0,0.0,0.0,0.0,0.0,0.0,0.0,0.0,0.0,0.0,0.0,0.0,0.0,0.0,0.0,0.0,0.0,0.0,0.0,0.0,0.0,0.0,0.0,0.0,0.0,0.0,0.0,0.0,0.0,0.0,0.0,0.0,0.0,0.0,0.0,0.0,0.0,0.0,0.0,0.0,0.0,0.0,0.0,0.0,0.0,0.0,0.0,0.0,0.0,0.0,0.0,0.0,0.0,0.0,0.0,0.0,0.0,0.0,0.0,0.0,7.6284,8.1439,0.0,7.8669,7.8784,7.9785,8.1246,8.3939,8.6132,8.7517,9.0556,9.3133,9.5134,9.6596,9.8904,10.2097,10.2097,10.2904,10.4597,10.4597,10.4597,10.4597,10.4597,10.4789,10.502,10.3789,10.2904,10.1904,9.8596,9.4941,9.121,8.8594,8.7132,8.644,8.6671,8.7286,8.8094,0.0,0.0,0.0,0.0,0.0,0.0,0.0,0.0,0.0,0.0,0.0,0.0,0.0,0.0,0.0,0.0,0.0,0.0,0.0,0.0,0.0,0.0,0.0,0.0,0.0,0.0,0.0,0.0,0.0,0.0,0.0,0.0,0.0,0.0,0.0,0.0,0.0,0.0,0.0,0.0,0.0,0.0,6.568,0.0,0.0,0.0,0.0,0.0,0.0,0.0,0.0,0.0,0.0,0.0,0.0,0.0,0.0,0.0,0.0,0.0,0.0,0.0,0.0,0.0,0.0,0.0,0.0,0.0,0.0,0.0,0.0,0.0,0.0,0.0,0.0,0.0,0.0,0.0,8.1516,8.1516,8.6786,8.8825,8.4824,8.5478,8.6632,8.7786,9.1018,9.3557,9.498,9.748,9.9481,10.0904,10.1481,10.2981,10.5597,10.5597,10.629,10.7713,10.7713,10.7521,10.7213,10.7213,10.7213,10.7213,10.602,10.4713,10.3405,10.2212,9.9404,9.5672,9.398,9.2633,9.171,9.1979,9.2441,9.3018,0.0,0.0,0.0,0.0,0.0,0.0,0.0,0.0,0.0,0.0,0.0,0.0,0.0,0.0,0.0,0.0,0.0,0.0,0.0,0.0,0.0,0.0,0.0,0.0,0.0,0.0,0.0,0.0,0.0,0.0,0.0,0.0,0.0,0.0,0.0,0.0,0.0,0.0,0.0,0.0,0.0,0.0,6.9248,0.0,0.0,0.0,0.0,0.0,0.0,0.0,0.0,0.0,0.0,0.0,0.0,0.0,0.0,0.0,0.0,0.0,0.0,0.0,0.0,0.0,0.0,0.0,0.0,0.0,0.0,0.0,0.0,0.0,0.0,0.0,0.0,0.0,7.3591,8.1785,8.7017,8.5555,9.0479,9.271,8.944,9.2095,9.4711,9.6403,9.9635,10.1904,10.2712,10.3597,10.4405,10.5213,10.529,10.6482,10.8983,10.8983,10.9483,11.0291,11.0291,10.9906,10.8983,10.8983,10.8983,10.8906,10.7213,10.602,10.4982,10.3289,10.1712,9.9981,9.825,9.7557,9.7442,9.6673,9.6365,9.6326,0.0,0.0,0.0,0.0,0.0,0.0,0.0,0.0,0.0,0.0,0.0,0.0,0.0,0.0,0.0,0.0,0.0,0.0,0.0,0.0,0.0,0.0,0.0,0.0,0.0,0.0,0.0,0.0,0.0,0.0,0.0,0.0,0.0,0.0,0.0,0.0,0.0,0.0,0.0,0.0,0.0,0.0,7.0698,0.0,0.0,0.0,0.0,0.0,0.0,0.0,0.0,0.0,0.0,0.0,0.0,0.0,0.0,0.0,0.0,0.0,0.0,0.0,0.0,0.0,0.0,0.0,0.0,0.0,0.0,0.0,0.0,0.0,0.0,0.0,0.0,8.2785,8.3478,8.7902,9.2287,9.5518,9.8981,10.0481,9.8942,10.0212,10.1289,10.1789,10.4405,10.602,10.629,10.7098,10.7905,10.879,10.879,10.9713,11.1598,11.1714,11.2099,11.2983,11.2983,11.2483,11.1714,11.1714,11.1291,11.0714,10.8983,10.7405,10.5905,10.4212,10.252,10.0904,9.9788,9.8981,9.8404,9.8173,9.7711,9.7096,0.0,0.0,0.0,0.0,0.0,0.0,0.0,0.0,0.0,0.0,0.0,0.0,0.0,0.0,0.0,0.0,0.0,0.0,0.0,0.0,0.0,0.0,0.0,0.0,0.0,0.0,0.0,0.0,0.0,0.0,0.0,0.0,0.0,0.0,0.0,0.0,0.0,0.0,0.0,0.0,0.0,0.0,7.4184,7.2945,7.1294,6.9608,6.9378,6.9312,6.9003,6.7341,0.0,0.0,0.0,0.0,0.0,0.0,0.0,0.0,0.0,0.0,0.0,0.0,0.0,0.0,0.0,0.0,0.0,0.0,0.0,0.0,0.0,0.0,0.0,0.0,8.3978,9.0094,9.3326,9.5172,9.7673,10.1712,10.3789,10.4905,10.4789,10.5482,10.6097,10.6482,10.8598,10.979,10.979,11.0598,11.1291,11.1791,11.1791,11.2406,11.3791,11.3791,11.3984,11.4484,11.4484,11.4099,11.3214,11.2906,11.2406,11.1906,10.9796,10.794,10.633,10.4981,10.318,10.1307,0.0,0.0,0.0,0.0,9.825,9.7365,0.0,0.0,0.0,0.0,0.0,0.0,0.0,0.0,0.0,0.0,0.0,0.0,0.0,0.0,0.0,0.0,0.0,0.0,0.0,0.0,0.0,0.0,0.0,0.0,0.0,0.0,0.0,0.0,0.0,0.0,0.0,0.0,0.0,0.0,0.0,0.0,0.0,0.0,0.0,0.0,0.0,0.0,7.8883,7.6607,7.4916,7.3845,7.3808,7.3178,7.2294,7.1977,0.0,0.0,0.0,0.0,0.0,0.0,0.0,0.0,0.0,0.0,0.0,0.0,0.0,0.0,0.0,0.0,0.0,0.0,0.0,0.0,0.0,0.0,0.0,0.0,8.9402,9.5018,10.2289,10.2712,10.3097,10.5405,10.6521,10.7405,10.8098,10.8906,10.9598,11.0406,11.1983,11.3022,11.3022,0.0,0.0,0.0,0.0,11.4714,11.5407,11.5407,11.5407,11.5407,11.5407,11.4984,11.4099,11.3291,11.2906,11.2594,11.0192,10.8182,10.6579,10.5485,10.3592,10.1432,10.1192,10.121,10.0978,9.9285,9.8172,9.7404,0.0,0.0,0.0,0.0,0.0,0.0,0.0,0.0,0.0,0.0,6.2181,6.6219,0.0,0.0,0.0,0.0,0.0,0.0,0.0,0.0,0.0,0.0,0.0,0.0,0.0,0.0,0.0,0.0,0.0,0.0,0.0,0.0,0.0,0.0,0.0,0.0,0.0,0.0,0.0,0.0,0.0,0.0,8.237,8.1232,7.9423,7.7597,7.756,7.7841,7.7813,7.5568,7.497,7.4577,7.1116,0.0,0.0,0.0,0.0,0.0,0.0,0.0,0.0,0.0,0.0,0.0,0.0,0.0,0.0,0.0,0.0,0.0,0.0,0.0,0.0,8.8248,9.5365,10.2097,10.6982,10.8098,10.8713,10.9175,11.0598,11.1291,11.0791,11.1522,11.2022,11.2214,11.3791,11.4791,11.4791,11.5599,11.5984,11.5984,11.5984,11.6099,11.6292,11.6292,11.6292,11.6292,11.6292,0.0,11.4984,11.4907,11.3984,11.2599,11.1506,11.0001,10.8191,10.6117,10.3672,10.1277,10.0696,10.0413,10.0213,9.8514,9.7794,9.7463,0.0,0.0,0.0,0.0,0.0,0.0,0.0,0.0,0.0,0.0,6.0346,6.3613,6.5632,6.9486,7.1725,0.0,0.0,0.0,0.0,0.0,0.0,0.0,0.0,0.0,0.0,0.0,0.0,0.0,0.0,0.0,0.0,0.0,0.0,0.0,0.0,0.0,0.0,0.0,0.0,0.0,0.0,0.0,8.6848,8.5233,8.3618,8.2186,8.2186,8.2186,8.1957,8.0112,7.9473,7.8795,7.5156,7.2496,7.0121,0.0,0.0,0.0,0.0,0.0,0.0,0.0,0.0,0.0,0.0,0.0,0.0,0.0,0.0,7.513,0.0,0.0,9.071,9.4941,10.0889,10.633,10.9709,11.1293,11.2082,11.2094,11.2791,11.3407,11.3407,11.4099,11.4599,11.4599,11.5792,11.6407,11.5907,11.5898,11.6003,11.6484,11.6128,11.608,11.6484,11.6484,11.6309,11.5778,11.5778,11.5434,11.46,11.4104,11.3303,11.2007,11.074,10.901,10.6809,10.3903,10.2009,10.0692,9.9472,9.95,10.0002,9.8329,9.7684,9.7513,0.0,0.0,0.0,0.0,0.0,0.0,0.0,0.0,0.0,0.0,0.0,6.097,6.2401,6.5375,6.6769,0.0,0.0,0.0,0.0,0.0,0.0,0.0,0.0,0.0,0.0,0.0,0.0,0.0,0.0,0.0,0.0,0.0,0.0,0.0,0.0,0.0,0.0,0.0,0.0,0.0,0.0,0.0,9.0629,8.8683,8.7325,8.6481,8.6297,8.5453,8.4315,8.3985,8.3104,8.1737,7.909,7.6938,7.4582,7.0116,6.8918,0.0,0.0,0.0,0.0,0.0,0.0,0.0,0.0,0.0,7.3724,7.7543,8.0059,8.289,8.734,9.1989,9.6673,10.128,10.5369,10.8903,11.1372,11.2992,11.4028,11.4219,11.4426,11.4791,11.5484,11.6009,11.6185,11.6185,11.6704,11.6683,11.5993,11.5282,11.5304,11.5993,11.5321,11.5266,11.5993,11.5993,11.5587,11.4869,11.4869,11.4611,11.3911,11.3232,11.2402,11.1469,10.9777,10.7589,10.4983,10.2189,10.0816,10.0381,9.8709,9.8822,9.9806,9.8154,9.7463,9.7363,0.0,0.0,0.0,0.0,0.0,0.0,0.0,0.0,0.0,0.0,0.0,0.0,0.0,0.0,0.0,0.0,0.0,0.0,0.0,0.0,0.0,0.0,0.0,0.0,0.0,0.0,0.0,0.0,0.0,0.0,0.0,0.0,0.0,0.0,0.0,0.0,0.0,0.0,0.0,0.0,0.0,0.0,9.162,9.1363,9.0335,8.8904,8.8206,8.604,8.3765,8.5086,8.4058,8.237,8.339,8.1907,7.9129,7.6157,0.0,6.8906,6.6147,6.5862,6.673,6.8092,7.0383,7.315,0.0,0.0,7.9632,8.1592,8.5106,8.8438,9.046,9.6104,10.1405,10.4239,10.7586,11.0417,11.2207,11.3174,11.4081,11.4892,11.5673,11.6292,11.6407,11.569,11.5282,11.5282,11.4687,11.4313,11.4237,11.4108,11.4108,11.4237,11.4108,11.4108,11.4237,11.4237,11.4097,11.3968,11.3968,11.4043,11.3911,11.3798,11.3307,11.244,11.0686,10.8111,10.5095,10.3977,10.2649,10.1176,9.9595,9.9048,9.9014,9.7394,9.6758,9.663,0.0,0.0,0.0,0.0,0.0,0.0,0.0,0.0,0.0,0.0,0.0,0.0,0.0,0.0,0.0,0.0,0.0,0.0,7.1798,7.7451,8.2847,0.0,0.0,0.0,0.0,0.0,0.0,0.0,0.0,0.0,0.0,0.0,0.0,0.0,0.0,0.0,0.0,0.0,0.0,0.0,0.0,0.0,9.184,9.2354,9.0959,8.8536,8.7252,8.5637,0.0,0.0,8.303,8.248,8.4095,8.2323,7.924,7.6966,7.3625,0.0,6.9927,6.9811,0.0,0.0,7.4911,7.7363,8.0631,8.2509,8.4839,8.9006,9.242,9.5582,9.8685,10.2413,10.5782,0.0,11.0328,11.2093,11.3844,11.392,11.3928,11.4297,11.4702,11.5421,11.6277,11.5621,11.526,11.5791,11.5507,11.5118,11.459,11.4488,11.4337,11.3911,11.3774,11.3812,11.3911,11.3911,11.3603,11.3073,11.3073,11.2776,11.2311,11.2311,11.1642,11.0341,10.8147,10.6356,10.4967,10.3308,10.2075,10.1274,9.9218,9.8411,9.83,9.764,9.7099,9.6618,0.0,0.0,0.0,0.0,0.0,0.0,0.0,0.0,0.0,0.0,0.0,0.0,0.0,0.0,0.0,0.0,0.0,0.0,0.0,7.8148,8.3985,8.9491,9.0739,0.0,9.3418,9.3418,9.3712,9.4299,9.452,9.474,9.496,0.0,0.0,0.0,0.0,0.0,0.0,0.0,0.0,0.0,0.0,0.0,9.2134,9.2097,8.9931,8.6701,8.5306,8.3398,0.0,0.0,7.9338,7.9425,8.1424,8.054,7.8292,7.6118,7.2943,7.0437,7.1864,0.0,0.0,7.713,7.9707,8.22,8.5392,8.7689,9.0466,9.5507,9.8867,10.1871,10.5128,10.7307,10.9299,11.129,11.2065,11.2869,11.416,11.3775,11.3208,11.2886,11.2584,11.3108,11.4684,11.4788,11.4968,11.5908,11.5729,11.532,11.472,11.4367,11.4032,11.3521,11.3175,11.3101,11.3221,11.3183,11.2814,11.2072,11.2072,11.1773,11.1221,11.1221,11.0304,10.8688,10.689,10.5715,10.4908,10.2999,10.2008,10.1604,9.9659,9.8741,9.8521,9.83,9.7566,9.6652,0.0,0.0,0.0,0.0,0.0,0.0,0.0,0.0,0.0,0.0,0.0,0.0,0.0,0.0,0.0,0.0,0.0,0.0,0.0,7.7121,8.3067,9.0262,9.2134,9.3418,9.4226,9.4263,9.4263,9.4299,9.507,9.5878,9.6649,9.7419,9.819,9.8924,0.0,0.0,0.0,0.0,0.0,0.0,0.0,0.0,9.2794,9.0445,8.7031,8.3471,8.259,0.0,0.0,0.0,7.2023,7.1635,7.4846,7.658,0.0,7.4174,7.0307,0.0,0.0,0.0,7.4985,8.0151,8.412,8.7582,9.0921,9.4117,9.7129,9.9627,10.3426,10.6434,10.7441,10.9491,11.1503,11.2322,11.2401,11.2411,11.2485,11.2522,11.1897,11.0281,10.9362,10.9583,0.0,11.2806,11.4073,11.4893,11.4164,11.366,11.3587,11.2926,11.2522,11.2375,11.1713,11.1309,11.1272,11.1272,11.1309,11.1148,11.1148,11.1184,11.1221,11.1221,11.0304,10.8799,10.8688,10.7294,10.5018,10.421,10.3403,10.2595,10.1677,10.0907,10.0099,9.9365,9.808,9.6685,0.0,0.0,0.0,0.0,0.0,0.0,0.0,0.0,0.0,0.0,0.0,0.0,0.0,0.0,0.0,0.0,0.0,0.0,0.0,7.5102,8.1048,8.5637,9.0005,9.2684,9.3492,9.4556,9.5364,9.5878,9.6171,9.6722,9.7493,9.775,9.8337,9.9108,9.8814,9.8411,0.0,0.0,0.0,0.0,0.0,0.0,9.1913,8.8353,8.4168,7.968,0.0,0.0,0.0,0.0,0.0,0.0,7.1115,0.0,0.0,6.7911,0.0,0.0,0.0,0.0,8.145,8.5078,8.8934,9.2537,9.5254,9.7933,10.0393,10.2301,10.2382,10.2536,10.3947,10.4764,10.5989,10.792,11.0561,11.2579,11.3093,11.3681,11.2983,11.0304,11.0707,0.0,0.0,0.0,0.0,11.4544,11.4133,11.3791,11.4378,11.4598,11.4084,11.2506,11.2689,11.2286,11.1221,11.1221,11.1221,11.1221,11.1221,11.1221,11.1221,11.0597,10.979,10.8799,10.8175,10.7183,10.5899,10.5018,10.4504,10.41,10.2191,10.1274,10.0907,9.9585,9.8411,9.7419,0.0,0.0,0.0,0.0,0.0,0.0,0.0,0.0,0.0,0.0,0.0,0.0,0.0,0.0,0.0,0.0,0.0,0.0,0.0,0.0,7.6644,8.1048,8.5306,8.8096,8.9197,8.9931,9.0849,9.195,9.2537,9.3639,9.529,9.6208,9.7199,9.8227,9.7933,9.753,9.7016,9.6428,9.507,9.3198,0.0,0.0,8.7068,8.27,7.8492,0.0,0.0,0.0,0.0,0.0,0.0,0.0,0.0,0.0,0.0,0.0,0.0,0.0,0.0,8.1306,8.6222,8.9889,9.3418,9.6575,9.8704,10.0796,10.2669,10.3696,10.2009,10.061,10.1389,10.0681,10.1043,10.3722,10.6727,10.9473,11.1877,11.243,11.1938,11.0244,11.0377,11.0377,0.0,0.0,0.0,11.4084,11.4194,11.4305,11.4818,11.5296,11.4892,11.3313,11.3203,11.2689,11.1625,11.1588,11.1588,11.1588,11.1295,11.1221,11.1221,11.0707,11.001,10.9202,10.8688,10.7991,10.7183,10.6009,10.5605,10.5385,10.3182,10.2191,10.1788,10.0393,9.9438,9.8594,0.0,0.0,0.0,0.0,0.0,0.0,0.0,0.0,0.0,0.0,0.0,0.0,0.0,0.0,0.0,0.0,0.0,0.0,0.0,0.0,0.0,7.657,7.8626,8.0314,8.1929,8.1305,8.1709,8.3251,8.4756,8.7068,9.0152,9.2501,9.4446,9.5914,9.518,9.4813,9.4666,9.3088,9.1033,8.8573,8.538,8.226,7.8993,7.4111,0.0,0.0,0.0,0.0,0.0,0.0,0.0,0.0,0.0,0.0,0.0,0.0,0.0,7.438,8.2161,8.6238,8.9485,9.4522,9.7603,9.9805,10.1274,10.2779,10.388,10.3742,10.1972,10.0165,0.0,0.0,9.6755,10.0087,10.1733,10.4302,10.9289,10.9359,10.9267,0.0,0.0,0.0,0.0,0.0,0.0,11.3387,0.0,11.4818,11.4892,11.4892,11.4818,11.4818,11.3313,11.2506,11.2506,11.2396,11.2396,11.2396,11.1588,11.1221,11.1221,11.1221,11.0781,10.9973,10.9973,10.9496,10.8688,10.7183,10.6486,10.6302,10.4687,10.3513,10.2705,10.1898,10.109,10.0099,0.0,0.0,0.0,0.0,0.0,0.0,0.0,0.0,0.0,0.0,0.0,0.0,0.0,0.0,0.0,0.0,0.0,0.0,0.0,0.0,0.0,0.0,0.0,0.0,0.0,0.0,0.0,0.0,0.0,8.2039,8.3471,8.4095,8.4939,8.5894,8.5673,8.527,8.4646,8.3618,8.248,8.1122,0.0,7.69,7.5616,0.0,0.0,0.0,0.0,0.0,0.0,0.0,0.0,0.0,0.0,0.0,7.0455,0.0,0.0,8.2681,8.6634,9.1823,9.6654,9.8557,10.131,10.3513,10.3293,10.41,10.3934,10.057,9.6071,9.1806,0.0,0.0,0.0,9.7365,10.3576,0.0,11.3043,11.3875,0.0,0.0,0.0,11.2579,11.1588,11.1992,0.0,0.0,11.3791,11.4378,11.5589,11.5699,11.5406,11.4818,11.4415,11.3901,11.3277,11.2689,11.2396,11.2396,11.1588,11.1221,11.1221,11.1221,11.0781,10.9973,10.9973,10.9496,10.8799,10.8395,10.7807,10.7183,10.6192,10.5201,10.432,10.2889,10.1898,10.098,0.0,0.0,0.0,0.0,0.0,0.0,0.0,0.0,0.0,0.0,0.0,0.0,0.0,0.0,0.0,0.0,0.0,0.0,0.0,0.0,0.0,0.0,0.0,0.0,0.0,0.0,0.0,0.0,0.0,0.0,0.0,7.8185,7.8956,8.0057,8.0057,7.9617,7.8809,0.0,0.0,0.0,0.0,0.0,0.0,0.0,0.0,0.0,0.0,0.0,0.0,0.0,0.0,6.9256,7.1958,7.38,7.5845,7.9985,0.0,8.822,9.2303,9.695,10.1017,10.2118,10.41,10.4908,10.1898,10.1844,10.0494,9.4504,8.9855,0.0,0.0,0.0,0.0,0.0,0.0,0.0,11.2995,11.4323,11.4774,0.0,11.5002,0.0,11.3607,11.4194,11.4672,0.0,11.4672,11.5002,11.5993,11.6287,11.6323,11.592,11.5185,11.4598,11.4084,11.2983,11.2579,11.291,11.1808,11.1221,11.1221,11.1221,11.1001,11.0487,11.0487,11.0304,10.979,10.9496,10.9092,10.8505,10.7367,10.6413,10.5495,10.421,10.2999,10.2008,0.0,0.0,0.0,0.0,0.0,0.0,0.0,0.0,0.0,0.0,0.0,0.0,0.0,0.0,0.0,0.0,0.0,0.0,0.0,0.0,0.0,0.0,0.0,0.0,0.0,0.0,0.0,0.0,0.0,0.0,0.0,0.0,0.0,0.0,0.0,0.0,0.0,0.0,0.0,0.0,0.0,0.0,0.0,0.0,0.0,0.0,0.0,0.0,0.0,0.0,7.3976,7.42,7.7036,7.9647,8.2556,8.772,9.0365,9.2816,9.8419,10.1604,10.3696,10.5201,10.6009,10.4908,9.9328,9.7986,9.561,8.7476,0.0,8.1612,7.9091,8.2217,8.6505,9.0442,0.0,10.5686,11.1954,11.3539,11.4915,11.7113,11.6801,11.6177,11.5406,11.5993,11.6397,11.6287,11.6507,11.658,11.6287,11.7021,11.7314,11.7204,11.5699,11.5002,11.5002,11.3387,11.291,11.357,11.2102,11.1295,11.1221,11.1295,11.1295,11.1221,11.1221,11.1221,11.1111,11.0414,11.0083,10.99,10.8468,10.7404,10.6596,10.5605,10.4394,10.3182,0.0,0.0,0.0,0.0,0.0,0.0,0.0,0.0,0.0,0.0,5.4693,5.3995,0.0,0.0,0.0,0.0,0.0,0.0,0.0,0.0,0.0,0.0,0.0,0.0,0.0,0.0,0.0,0.0,0.0,0.0,0.0,0.0,0.0,0.0,0.0,0.0,0.0,0.0,0.0,0.0,0.0,0.0,0.0,0.0,0.0,0.0,0.0,0.0,0.0,0.0,7.7924,8.0814,8.5632,8.8814,9.165,9.5882,9.8272,10.022,10.3182,10.5385,10.7,10.7918,10.7294,10.5091,9.9989,9.6695,0.0,0.0,0.0,7.7278,7.4598,7.8811,8.5072,9.2608,0.0,0.0,0.0,0.0,11.772,0.0,0.0,0.0,0.0,0.0,0.0,0.0,11.9297,11.9407,11.8085,11.8122,11.7902,11.7204,11.6287,11.581,11.581,11.4194,11.3497,11.357,11.2616,11.1808,11.1221,11.1919,11.1808,11.1221,11.1221,11.1221,11.1221,11.1001,11.0597,10.9973,10.9679,10.9092,10.8211,10.6706,10.6009,10.5605,0.0,0.0,0.0,0.0,0.0,0.0,0.0,0.0,5.473,5.7152,5.7519,5.6895,5.5244,5.3959,0.0,0.0,0.0,0.0,0.0,0.0,0.0,0.0,0.0,0.0,0.0,0.0,0.0,0.0,0.0,0.0,0.0,0.0,0.0,0.0,0.0,0.0,0.0,0.0,0.0,0.0,0.0,0.0,0.0,0.0,0.0,0.0,0.0,0.0,0.0,0.0,7.8293,8.5064,9.0257,9.4189,9.7383,10.0209,10.2118,10.3917,10.6413,10.8211,10.9606,11.001,10.8505,10.4871,9.6575,0.0,0.0,0.0,0.0,7.3725,7.199,7.7255,0.0,0.0,0.0,0.0,0.0,0.0,0.0,0.0,0.0,0.0,0.0,0.0,0.0,0.0,12.0214,12.0398,11.9076,11.9003,11.8489,11.7204,11.6801,11.6397,11.5993,11.4782,11.4194,11.4194,11.3387,11.28,11.2396,11.2396,11.2212,11.1808,11.1405,11.1221,11.1221,11.1221,11.1001,11.0597,11.0193,10.979,10.9202,10.7587,10.678,10.6192,0.0,0.0,0.0,0.0,0.0,0.0,0.0,5.5464,5.6602,5.9355,6.0272,5.9795,5.7556,5.5317,5.3775,0.0,0.0,0.0,0.0,0.0,0.0,0.0,0.0,0.0,0.0,0.0,0.0,0.0,0.0,0.0,0.0,0.0,0.0,0.0,0.0,0.0,0.0,0.0,0.0,0.0,0.0,0.0,0.0,0.0,0.0,0.0,0.0,0.0,0.0,0.0,7.6959,8.5213,9.0467,9.5736,10.0335,10.2015,10.3889,10.6176,10.8762,11.0597,11.1698,11.1515,10.9092,10.399,9.3088,8.8238,0.0,0.0,0.0,7.1159,7.0591,0.0,8.143,0.0,9.1837,0.0,0.0,0.0,0.0,0.0,0.0,0.0,0.0,0.0,0.0,0.0,12.0875,12.0802,11.9884,11.97,11.8893,11.7498,11.7314,11.6801,11.5993,11.5185,11.4818,11.4818,11.4194,11.3681,11.3277,11.2873,11.2506,11.2102,11.1515,11.1221,11.1221,11.1221,11.1221,11.1111,11.0487,11.0304,11.0083,10.8578,10.7697,10.7,0.0,0.0,0.0,0.0,0.0,0.0,0.0,5.5133,5.6969,6.086,6.1447,6.086,5.9171,5.7483,5.5611,0.0,0.0,0.0,0.0,0.0,0.0,0.0,0.0,0.0,0.0,0.0,0.0,0.0,0.0,0.0,0.0,0.0,0.0,0.0,0.0,0.0,0.0,0.0,0.0,0.0,0.0,0.0,0.0,0.0,0.0,0.0,0.0,0.0,0.0,0.0,0.0,7.8162,8.3418,9.1454,9.9314,10.1108,0.0,0.0,11.1176,11.2689,11.3203,11.2506,10.8211,10.1898,9.2758,0.0,0.0,0.0,0.0,0.0,0.0,0.0,0.0,0.0,0.0,9.4549,10.6915,11.1309,0.0,0.0,0.0,0.0,0.0,0.0,0.0,12.3004,12.238,12.1609,12.0802,11.9994,11.9187,11.8306,11.7608,11.6801,11.5993,11.5185,11.4818,11.4818,11.4708,11.3901,11.2506,11.3203,11.2689,11.1295,11.1221,11.1221,11.1221,11.1221,11.1221,11.1221,11.1111,11.1111,11.1001,11.0083,10.9679,10.9386,0.0,0.0,0.0,0.0,0.0,0.0,5.4473,5.4987,5.6859,6.2365,6.3099,6.2658,6.152,5.9942,5.7409,0.0,0.0,0.0,0.0,0.0,0.0,0.0,0.0,0.0,0.0,0.0,0.0,0.0,0.0,0.0,0.0,0.0,0.0,0.0,0.0,0.0,0.0,0.0,0.0,0.0,0.0,0.0,0.0,0.0,0.0,0.0,0.0,0.0,0.0,0.0,0.0,0.0,7.3702,8.03,0.0,0.0,10.1268,10.4986,11.0207,11.2983,11.4011,11.2689,10.7807,10.0796,9.195,0.0,0.0,0.0,6.9359,6.9891,7.0233,0.0,0.0,0.0,0.0,0.0,9.7767,10.1682,10.6883,11.5937,0.0,0.0,0.0,0.0,0.0,12.2674,12.271,12.2307,12.0985,12.0104,11.948,11.9113,11.8306,11.7792,11.7388,11.6617,11.6213,11.6213,11.581,11.5185,11.4598,11.4415,11.3681,11.2579,11.2102,11.1625,11.1221,11.1221,11.1221,11.1221,11.1221,11.1221,11.1111,11.0304,10.9973,10.979,0.0,0.0,0.0,0.0,0.0,4.9805,5.4546,5.5354,5.7446,6.2989,6.3943,6.3759,6.2915,6.075,5.796,5.4583,0.0,0.0,0.0,0.0,0.0,0.0,0.0,0.0,0.0,0.0,0.0,0.0,0.0,0.0,0.0,0.0,0.0,0.0,0.0,0.0,0.0,0.0,0.0,0.0,0.0,0.0,0.0,0.0,0.0,0.0,0.0,0.0,0.0,0.0,0.0,0.0,0.0,0.0,0.0,0.0,9.6838,10.1899,10.8293,11.2426,11.4488,11.3093,10.7294,9.9769,0.0,0.0,0.0,6.9591,6.8915,6.9544,6.9385,0.0,0.0,0.0,0.0,8.3013,9.1544,9.4839,10.0114,0.0,0.0,0.0,0.0,0.0,0.0,12.2894,12.3114,12.271,12.1316,12.0178,11.948,11.9297,11.8893,11.8416,11.7718,11.7388,11.7094,11.6801,11.6287,11.5883,11.5589,11.5112,11.4378,11.357,11.2689,11.2102,11.1515,11.1295,11.1221,11.1221,11.1221,11.1221,11.1111,11.0597,11.0377,11.0193,0.0,0.0,0.0,0.0,0.0,0.0,0.0,5.6418,5.9134,6.2401,6.3576,6.3759,6.2915,5.9245,5.6822,5.6785,0.0,0.0,0.0,0.0,0.0,0.0,0.0,0.0,0.0,0.0,0.0,5.7997,5.9612,0.0,0.0,0.0,0.0,0.0,0.0,0.0,0.0,0.0,0.0,0.0,0.0,0.0,0.0,0.0,0.0,0.0,0.0,0.0,0.0,0.0,0.0,0.0,0.0,0.0,0.0,0.0,9.0963,9.9665,10.558,11.0893,11.4598,11.3791,10.689,9.8411,0.0,0.0,0.0,6.8862,6.8442,6.8959,6.849,0.0,0.0,0.0,7.6618,0.0,9.0588,9.332,9.6893,0.0,0.0,0.0,0.0,0.0,12.539,12.4509,12.3701,0.0,12.2086,12.0508,11.9187,11.8416,11.9187,11.8379,11.5993,11.6801,11.6801,11.5993,11.5993,11.5589,11.4818,11.4818,11.4378,11.357,11.2689,11.2396,11.2286,11.1515,11.1221,11.1221,11.1221,11.1221,11.1221,11.1221,11.1221,11.1111,0.0,0.0,0.0,0.0,0.0,0.0,0.0,5.2601,5.4436,5.8217,5.8951,5.9648,6.1006,5.8547,5.6822,5.6822,0.0,0.0,0.0,0.0,0.0,0.0,0.0,0.0,0.0,0.0,5.8547,5.9648,6.0162,6.0676,6.1227,0.0,0.0,0.0,0.0,0.0,0.0,0.0,0.0,0.0,0.0,0.0,0.0,0.0,0.0,0.0,0.0,0.0,0.0,0.0,0.0,0.0,0.0,0.0,0.0,0.0,0.0,0.0,9.5388,10.0275,10.3382,10.1832,9.6569,9.0409,8.5371,0.0,0.0,6.8495,6.8185,6.8586,6.8442,0.0,0.0,0.0,0.0,0.0,0.0,0.0,0.0,10.4428,11.3593,0.0,0.0,0.0,12.539,12.4582,12.4803,12.4105,12.2196,12.2086,12.1499,12.0178,11.9774,11.948,11.9407,11.9003,11.8709,11.8379,11.7314,11.669,11.6397,11.5883,11.5185,11.4415,11.4194,11.3717,11.3167,11.2396,11.1992,11.1992,11.1405,11.1221,11.1221,11.1221,11.1221,11.1111,0.0,0.0,0.0,0.0,0.0,0.0,0.0,5.1389,5.3078,5.5574,5.6161,5.7262,5.9685,5.7262,5.5941,5.7152,0.0,0.0,0.0,0.0,0.0,0.0,0.0,0.0,0.0,5.7997,5.8804,6.0419,6.0713,6.141,6.2548,6.3392,6.3319,0.0,0.0,0.0,0.0,0.0,0.0,0.0,0.0,0.0,6.1704,0.0,0.0,0.0,0.0,0.0,0.0,0.0,0.0,0.0,0.0,0.0,0.0,0.0,0.0,0.0,0.0,9.3035,9.6263,9.5492,9.0826,0.0,0.0,0.0,0.0,0.0,0.0,0.0,0.0,0.0,0.0,0.0,0.0,0.0,0.0,0.0,0.0,0.0,0.0,0.0,0.0,12.4411,12.55,12.4986,12.5096,12.4582,12.3077,12.2894,12.238,12.1389,12.0508,11.9994,11.9994,11.97,11.9297,11.8709,11.7718,11.7204,11.7204,11.6397,11.5883,11.5699,11.5112,11.4305,0.0,11.2689,11.2212,11.1919,11.1405,11.1221,11.1221,11.1221,11.1221,11.1111,0.0,0.0,0.0,0.0,0.0,0.0,0.0,0.0,5.4142,5.4142,5.4876,5.6271,5.8547,5.5464,5.4399,5.7409,0.0,0.0,0.0,0.0,0.0,0.0,0.0,0.0,0.0,5.7997,5.8804,6.0493,6.1227,6.2438,6.4127,6.4934,6.4861,6.4016,6.4053,0.0,0.0,0.0,0.0,0.0,0.0,0.0,0.0,0.0,0.0,0.0,0.0,0.0,0.0,0.0,0.0,0.0,0.0,0.0,0.0,0.0,0.0,0.0,0.0,0.0,0.0,0.0,0.0,0.0,0.0,0.0,0.0,0.0,0.0,0.0,0.0,0.0,0.0,0.0,0.0,0.0,0.0,0.0,0.0,0.0,0.0,0.0,0.0,12.2359,12.5684,12.5684,12.4986,12.4509,12.4399,12.3004,12.2086,12.1976,12.1279,12.0178,11.8599,11.9297,11.8893,11.7425,11.7314,11.7314,11.7204,11.6397,11.6397,11.7021,11.5516,11.4415,11.357,11.28,11.1992,11.1295,11.1221,11.1221,11.1221,11.1221,11.1221,11.1221,0.0,0.0,0.0,0.0,0.0,0.0,0.0,0.0,0.0,0.0,5.2894,5.3995,5.4546,5.3775,5.3518,0.0,0.0,0.0,0.0,0.0,0.0,0.0,0.0,0.0,0.0,5.7997,5.9098,6.13,6.152,6.2438,6.4127,6.4934,6.453,6.3135,6.3796,6.3613,0.0,0.0,0.0,0.0,0.0,0.0,0.0,0.0,0.0,0.0,6.2805,6.2805,0.0,0.0,0.0,0.0,0.0,0.0,0.0,0.0,6.5147,0.0,0.0,0.0,0.0,0.0,7.6931,0.0,0.0,0.0,0.0,0.0,0.0,0.0,0.0,0.0,0.0,0.0,0.0,0.0,0.0,0.0,0.0,0.0,0.0,0.0,0.0,12.3799,12.5684,12.5684,12.55,12.4876,12.3628,12.3188,12.249,12.1205,12.0985,12.0691,12.0288,12.0508,12.0104,11.9003,11.8416,11.7792,11.7204,11.6397,11.6103,11.6287,11.5883,11.5296,11.4488,11.3607,11.28,11.2102,11.1405,11.1221,11.1221,11.1221,11.1221,11.1111,0.0,0.0,0.0,0.0,0.0,0.0,0.0,0.0,0.0,0.0,0.0,0.0,0.0,0.0,0.0,0.0,0.0,0.0,0.0,0.0,0.0,0.0,0.0,5.7997,5.7997,5.7997,5.9171,6.1594,6.1594,6.2842,6.5191,6.5264,6.4824,6.3943,6.3649,6.3246,0.0,0.0,0.0,0.0,6.2658,0.0,0.0,0.0,0.0,0.0,6.2254,6.2254,0.0,6.3686,6.3796,6.3539,0.0,0.0,0.0,0.0,6.409,6.5059,6.6592,6.9669,7.266,7.3081,7.2515,7.177,0.0,0.0,0.0,0.0,0.0,0.0,0.0,0.0,0.0,0.0,0.0,0.0,0.0,0.0,0.0,0.0,0.0,0.0,0.0,12.4876,12.5684,12.5684,12.5684,12.528,12.4399,12.3701,12.2894,12.2013,12.1279,12.0912,12.0912,12.0912,12.0508,11.959,11.8783,11.8195,11.7718,11.6507,11.6213,11.6507,11.6177,11.5296,11.4194,11.3791,11.291,11.1808,11.1405,11.1221,11.1221,11.1221,11.1221,11.1111,0.0,0.0,0.0,0.0,0.0,0.0,0.0,0.0,0.0,0.0,0.0,0.0,0.0,0.0,0.0,0.0,0.0,0.0,0.0,0.0,0.0,0.0,0.0,5.7923,5.818,5.818,5.9355,6.1777,6.2034,6.3796,6.6843,6.6182,6.5595,6.5044,6.3503,6.2658,0.0,0.0,0.0,0.0,6.2475,0.0,0.0,0.0,0.0,0.0,0.0,0.0,0.0,6.3246,6.3796,6.4016,6.4714,0.0,0.0,0.0,0.0,0.0,6.5668,6.8572,7.1417,7.1977,7.1376,7.0549,0.0,0.0,0.0,0.0,0.0,0.0,0.0,0.0,0.0,0.0,0.0,0.0,0.0,0.0,0.0,0.0,0.0,0.0,12.4901,12.5463,12.5684,12.5684,12.5573,12.55,12.55,12.3995,12.3114,12.3114,12.1793,12.0985,12.0912,12.0912,12.0398,11.9407,11.8709,11.8306,11.8012,11.658,11.6397,11.7021,11.6287,11.5075,11.357,11.357,11.2689,11.1221,11.1221,11.1221,11.1221,11.1221,11.1221,11.1221,0.0,0.0,0.0,0.0,0.0,0.0,0.0,0.0,0.0,0.0,0.0,0.0,0.0,0.0,0.0,0.0,0.0,0.0,0.0,0.0,0.0,5.6785,5.6932,5.7629,5.8988,5.9024,6.0199,6.2622,6.4053,6.6035,6.8531,6.8421,6.688,6.4237,6.3246,6.2034,6.0823,6.1484,6.1704,6.1667,6.2475,0.0,0.0,0.0,0.0,0.0,0.0,0.0,0.0,6.1887,6.2438,6.3025,6.3135,0.0,0.0,0.0,0.0,0.0,6.8385,7.1267,7.2595,6.9769,6.9409,6.962,0.0,0.0,0.0,0.0,0.0,0.0,0.0,0.0,0.0,0.0,0.0,0.0,0.0,0.0,0.0,0.0,0.0,12.3639,12.2674,12.4472,12.5684,12.5684,12.5096,12.4693,12.4693,12.3188,12.2307,12.2307,12.2013,12.1572,12.0912,12.0912,12.0104,11.8599,11.8489,11.7682,11.6397,11.6103,11.6103,11.6177,11.6103,11.5075,11.357,11.357,11.2689,11.1221,11.1221,11.1221,11.1221,11.1221,11.1221,11.1221,0.0,0.0,0.0,0.0,0.0,0.0,0.0,0.0,0.0,0.0,0.0,0.0,0.0,0.0,0.0,0.0,0.0,0.0,0.0,0.0,0.0,5.8033,5.7703,5.7997,5.9171,6.0052,6.1924,6.4787,6.6439,6.8715,7.1468,6.9706,6.743,6.4677,6.3392,6.2401,6.1741,6.2108,6.2254,6.2291,0.0,0.0,0.0,0.0,0.0,0.0,0.0,0.0,0.0,0.0,6.2438,6.3503,6.3503,0.0,0.0,0.0,0.0,0.0,6.688,6.8935,7.068,7.1692,7.3887,7.5584,0.0,0.0,0.0,0.0,0.0,0.0,0.0,0.0,0.0,0.0,0.0,0.0,0.0,0.0,0.0,0.0,0.0,12.2859,12.3946,12.4986,12.55,12.5096,12.4693,12.4289,12.3885,12.3188,12.271,12.271,12.271,12.238,12.1572,12.1095,12.0288,11.9003,11.8599,11.7792,11.6617,11.6213,11.5993,11.5993,11.5516,11.4708,11.357,11.3093,11.2286,11.1221,11.1221,11.1221,11.1221,11.1221,11.1221,11.1221,0.0,0.0,0.0,0.0,0.0,0.0,0.0,0.0,0.0,0.0,0.0,0.0,0.0,0.0,0.0,0.0,0.0,0.0,0.0,0.0,5.6161,5.8804,5.8694,5.9208,6.0603,6.2034,6.4347,6.7614,6.9633,7.1762,7.3891,7.0881,6.7981,6.5228,6.3576,6.2585,6.2254,6.2438,6.2511,6.2548,0.0,0.0,0.0,0.0,0.0,0.0,0.0,0.0,0.0,0.0,0.0,0.0,0.0,0.0,0.0,6.4016,6.387,6.4457,6.6256,6.7614,6.9596,0.0,0.0,0.0,0.0,0.0,0.0,0.0,0.0,0.0,0.0,0.0,0.0,0.0,0.0,0.0,0.0,0.0,0.0,0.0,0.0,12.2437,12.5232,12.539,12.517,12.4509,12.4179,12.3775,12.3298,12.2894,12.282,12.3004,12.3004,12.26,12.1793,12.1205,12.0398,11.9297,11.8489,11.7718,11.6911,11.6287,11.5883,11.5699,11.5112,11.4194,11.3277,11.2689,11.1919,11.1221,11.1221,11.1221,11.1221,11.1221,11.1221,11.1221,0.0,0.0,0.0,0.0,0.0,0.0,0.0,0.0,0.0,0.0,0.0,0.0,0.0,0.0,0.0,0.0,0.0,0.0,0.0,0.0,5.7079,5.8033,5.9465,6.1704,6.4787,6.5705,6.7724,7.0954,7.4074,7.5322,7.4771,7.2275,6.9045,6.5228,6.3576,6.1998,6.0639,6.1374,6.1704,6.1741,6.2511,0.0,0.0,0.0,0.0,0.0,0.0,0.0,0.0,0.0,0.0,0.0,0.0,0.0,6.5411,0.0,6.5228,6.5081,6.9633,7.0954,7.1835,0.0,0.0,0.0,0.0,0.0,0.0,0.0,0.0,0.0,0.0,0.0,0.0,0.0,0.0,0.0,0.0,0.0,0.0,0.0,12.2624,12.3542,12.4472,12.4582,12.4582,12.4509,12.3077,12.26,12.3298,12.1903,12.1389,12.2196,12.2196,12.1793,12.0985,12.0912,12.0104,11.8489,11.7718,11.6911,11.6103,11.5993,11.5589,11.4892,11.4818,11.3901,11.2506,11.2396,11.1919,11.1221,11.1221,11.1221,11.1221,11.1221,11.1221,11.1221,0.0,0.0,0.0,0.0,0.0,0.0,0.0,0.0,0.0,0.0,0.0,0.0,0.0,0.0,0.0,0.0,0.0,0.0,0.0,5.5611,5.6859,5.8694,6.0309,6.2438,6.5264,6.8054,7.1578,7.5836,7.8552,7.8699,7.635,7.2899,6.9412,6.5962,6.3796,6.2768,6.2695,6.2438,6.2658,6.3135,6.2915,6.2805,0.0,0.0,0.0,0.0,0.0,0.0,0.0,0.0,6.1887,6.3209,0.0,0.0,0.0,0.0,0.0,6.4714,6.754,6.9779,0.0,0.0,0.0,0.0,0.0,0.0,0.0,0.0,0.0,0.0,0.0,0.0,0.0,0.0,0.0,0.0,0.0,0.0,12.2307,12.2086,12.2784,12.3591,12.4399,12.3995,12.3812,12.3812,12.271,12.1976,12.1793,12.1683,12.1793,12.2086,12.26,12.2196,12.0912,12.0398,11.9297,11.7718,11.7314,11.6801,11.5993,11.5479,11.5112,11.4708,11.3717,11.2983,11.2396,11.1882,11.1515,11.1221,11.1221,11.1221,11.1221,11.1221,11.1221,11.1221,0.0,0.0,0.0,0.0,0.0,0.0,0.0,0.0,0.0,0.0,0.0,0.0,0.0,0.0,0.0,0.0,0.0,0.0,5.4363,5.5133,5.6455,5.8364,6.0236,6.2622,6.5632,6.9889,7.4074,7.8185,8.0865,8.0277,7.6497,7.2973,6.9853,6.7136,6.4714,6.42,6.5154,6.3796,6.3539,6.4016,6.3172,6.2989,0.0,0.0,0.0,0.0,0.0,0.0,0.0,0.0,6.2108,0.0,0.0,0.0,0.0,0.0,0.0,0.0,6.5742,6.7724,0.0,0.0,0.0,0.0,0.0,0.0,0.0,0.0,0.0,0.0,0.0,0.0,0.0,0.0,0.0,0.0,12.1205,12.2196,12.26,12.1793,12.271,12.3408,12.3701,12.3518,12.3188,12.2894,12.2196,12.1499,12.0912,12.1389,12.1572,12.1279,12.1793,12.1499,12.0104,11.9297,11.8195,11.6801,11.6617,11.6213,11.5589,11.5112,11.4525,11.4011,11.291,11.2286,11.1992,11.1405,11.1221,11.1221,11.0891,11.0817,11.0817,11.0524,11.0414,11.0414,0.0,0.0,0.0,0.0,0.0,0.0,0.0,0.0,0.0,0.0,0.0,0.0,0.0,0.0,0.0,0.0,0.0,0.0,5.4326,5.5133,5.5941,5.6748,5.9098,6.2291,6.6366,7.1174,7.4845,7.7378,8.0571,7.9653,7.4845,7.2422,7.044,6.8788,6.6402,6.6219,6.7504,6.5118,6.409,6.4016,6.3172,6.3319,6.3906,0.0,0.0,0.0,0.0,0.0,0.0,0.0,0.0,0.0,0.0,0.0,0.0,0.0,6.4714,6.4273,6.5081,0.0,0.0,0.0,0.0,0.0,0.0,0.0,0.0,0.0,0.0,0.0,0.0,0.0,0.0,0.0,0.0,0.0,12.1976,12.2086,12.1793,12.0985,12.2307,12.3004,12.2196,12.2784,12.2894,12.2086,12.1316,12.0912,12.0912,12.0912,12.0508,11.959,11.959,11.9187,11.8416,11.7608,11.6801,11.5993,11.5185,11.4818,11.4818,11.4818,11.3901,11.2396,11.2396,11.1919,11.1221,11.1221,11.1221,11.1111,11.0304,10.9973,10.99,10.9092,10.8799,10.8799,0.0,0.0,0.0,0.0,0.0,0.0,0.0,0.0,0.0,0.0,0.0,0.0,0.0,0.0,0.0,0.0,0.0,0.0,5.3592,5.484,5.5684,5.5941,5.8804,6.097,6.2181,6.754,7.3487,7.991,7.9727,7.7451,7.3193,7.1321,6.9302,6.721,6.7063,6.6623,6.5925,6.464,6.409,6.4053,6.3796,6.387,6.4053,0.0,0.0,0.0,0.0,0.0,0.0,0.0,0.0,0.0,0.0,0.0,0.0,0.0,6.4604,6.5595,6.4714,0.0,0.0,0.0,0.0,0.0,0.0,0.0,0.0,0.0,0.0,0.0,0.0,0.0,0.0,0.0,0.0,0.0,12.1205,12.1683,12.1793,12.0985,12.1316,12.1719,12.2086,12.1793,12.1499,12.1279,12.0508,11.97,11.9187,11.9113,11.9003,11.8783,11.8783,11.8416,11.7608,11.7314,11.6507,11.5185,11.4892,11.4488,11.3901,11.3387,11.291,11.2396,11.1808,11.1405,11.1221,11.1221,11.1221,11.1111,11.0304,10.9973,10.99,10.9092,10.8799,10.8799,0.0,0.0,0.0,0.0,0.0,0.0,0.0,0.0,0.0,0.0,5.5097,0.0,0.0,0.0,0.0,0.0,0.0,0.0,0.0,5.517,5.6088,5.6088,5.8547,6.0823,6.2768,6.7136,7.1468,7.5726,7.6019,7.4258,7.0587,7.0917,7.011,6.8458,6.9926,6.9486,6.7614,6.6476,6.5448,6.453,6.4237,6.4457,6.4934,0.0,0.0,0.0,0.0,0.0,0.0,0.0,0.0,0.0,0.0,0.0,0.0,6.2915,6.3392,6.4751,0.0,0.0,0.0,0.0,0.0,0.0,0.0,0.0,0.0,0.0,0.0,0.0,0.0,0.0,0.0,0.0,0.0,0.0,12.0875,12.0985,12.0802,11.9994,12.0508,12.0985,12.1095,12.1279,12.1095,12.0398,11.9884,11.9187,11.8416,11.8416,11.8306,11.7902,11.7902,11.7498,11.669,11.6397,11.5589,11.4305,11.4011,11.3387,11.2616,11.2506,11.2212,11.1919,11.1405,11.1221,11.1221,11.0891,11.0707,11.0597,10.9496,10.8982,10.8909,10.8101,10.7807,10.7807,0.0,0.0,0.0,0.0,0.0,0.0,0.0,0.0,0.0,0.0,5.5097,5.528,0.0,0.0,0.0,0.0,0.0,0.0,0.0,0.0,5.6822,5.6932,5.8621,6.1667,6.6182,6.8348,6.8715,6.7247,7.0403,7.0403,6.754,7.077,7.1945,7.1431,7.3744,7.3413,7.0991,6.9376,6.732,6.5154,6.453,6.5154,6.6145,6.3796,0.0,0.0,0.0,0.0,0.0,0.0,0.0,0.0,0.0,0.0,0.0,6.163,6.1924,0.0,0.0,0.0,0.0,0.0,0.0,0.0,0.0,0.0,0.0,0.0,0.0,0.0,0.0,0.0,0.0,0.0,11.9076,11.9884,12.0581,11.9994,11.9187,11.8599,11.9884,12.0508,11.9774,12.1095,12.1279,11.959,11.948,11.9076,11.8195,11.8195,11.7828,11.7094,11.7021,11.6617,11.5883,11.5112,11.4305,11.3497,11.2689,11.1992,11.1221,11.1992,11.1919,11.1221,11.1221,11.1184,11.1001,11.0377,10.9973,10.9679,10.8285,10.7661,10.7477,10.6706,10.6376,10.6376,0.0,0.0,0.0,0.0,0.0,0.0,0.0,0.0,0.0,0.0,0.0,0.0,0.0,0.0,0.0,0.0,0.0,0.0,0.0,5.6271,5.7079,5.7703,6.0493,6.2842,6.4567,6.4457,6.42,6.387,6.6512,6.71,6.5888,6.9119,7.0881,7.1394,7.3156,7.2275,6.9302,6.7687,6.5999,6.4457,6.5558,6.5815,6.5448,6.4273,6.3943,0.0,0.0,0.0,0.0,0.0,0.0,0.0,0.0,6.2181,6.2438,6.1777,0.0,0.0,0.0,0.0,0.0,0.0,0.0,0.0,0.0,0.0,0.0,0.0,0.0,0.0,0.0,0.0,0.0,11.8599,11.9076,11.9407,11.9003,11.8783,11.8783,11.9297,11.97,12.0104,12.0581,12.0912,12.0508,11.8783,11.8709,11.8012,11.658,11.6507,11.6397,11.6287,11.5626,11.5222,11.5112,11.4305,11.3497,11.2689,11.2506,11.1992,11.1221,11.1405,11.1405,11.1221,11.1221,11.0817,11.0304,11.0781,11.0193,10.8982,10.8688,10.8175,10.7477,10.6706,10.6376,10.6376,0.0,0.0,0.0,0.0,0.0,0.0,0.0,0.0,0.0,0.0,0.0,0.0,0.0,0.0,0.0,0.0,0.0,0.0,0.0,0.0,5.807,5.9648,6.2475,6.4016,6.409,6.3246,6.2622,6.2218,6.2768,6.3613,6.4787,6.8421,7.055,7.1394,7.3377,7.2275,6.8825,6.7577,6.6145,6.4751,6.5595,6.5925,6.5778,6.4971,6.442,6.3906,6.2658,0.0,0.0,0.0,0.0,0.0,0.0,0.0,6.108,6.1043,0.0,0.0,0.0,0.0,0.0,0.0,0.0,0.0,0.0,0.0,0.0,0.0,0.0,0.0,0.0,12.1205,12.0985,11.9297,11.9003,11.8709,11.7902,11.7828,11.7792,11.7902,11.8195,11.8599,11.9113,11.948,11.9187,11.7902,11.7828,11.7314,11.6103,11.5993,11.581,11.5406,11.5002,11.4598,11.4194,11.3387,11.28,11.2396,11.1992,11.1405,11.0597,11.1001,11.1001,11.0597,11.1001,11.0524,10.9496,10.99,10.9312,10.8175,10.7807,10.7404,10.7,10.6596,10.6376,10.6376,0.0,0.0,0.0,0.0,0.0,0.0,0.0,0.0,0.0,0.0,0.0,0.0,0.0,0.0,0.0,0.0,0.0,0.0,0.0,0.0,0.0,6.152,6.3833,6.4787,6.409,6.3099,6.2291,6.1594,6.0126,6.108,0.0,6.8128,7.055,7.1798,7.3523,7.2349,6.9045,6.7797,6.6439,6.5118,6.5264,6.5632,6.5999,6.5191,6.4457,6.3759,6.2915,6.2695,6.2805,6.2805,0.0,0.0,0.0,0.0,5.9391,6.0346,0.0,0.0,0.0,0.0,0.0,0.0,0.0,0.0,0.0,0.0,0.0,0.0,0.0,0.0,12.0802,12.0802,12.0508,11.9407,11.8599,11.7902,11.7094,11.7021,11.6801,11.6287,11.6801,11.7314,11.7425,11.8012,11.8085,11.7314,11.7094,11.6617,11.581,11.5699,11.5296,11.4598,11.4488,11.4084,11.3387,11.2579,11.2212,11.2212,11.1405,11.0597,10.9973,11.0524,11.0414,10.979,11.0487,11.001,10.8615,10.8688,10.8211,10.7294,10.678,10.6486,10.6376,10.6376,10.6376,10.6376,0.0,0.0,0.0,0.0,0.0,0.0,0.0,0.0,0.0,0.0,5.5574,0.0,0.0,0.0,0.0,0.0,0.0,0.0,0.0,0.0,0.0,6.1557,6.3319,6.42,6.409,6.2548,6.1704,6.1594,6.0676,0.0,0.0,0.0,0.0,7.334,7.2275,7.1101,6.9743,6.6843,6.5081,6.431,6.5007,6.4971,6.431,6.3466,6.3099,6.2879,6.2034,6.2218,6.2805,6.2805,6.2291,0.0,0.0,0.0,5.9501,0.0,0.0,0.0,0.0,0.0,0.0,0.0,0.0,0.0,0.0,0.0,0.0,0.0,11.9407,12.0802,11.9884,12.0398,12.0214,11.7902,11.7425,11.7094,11.6287,11.6177,11.6397,11.7021,11.7131,11.7498,11.8195,11.8306,11.8085,11.7314,11.658,11.581,11.5002,11.4305,11.3864,11.3791,11.3093,11.2689,11.2579,11.1808,11.1405,11.1405,11.0487,11.0083,10.9973,10.9386,10.9092,10.8982,10.9092,10.8578,10.7771,10.8505,10.7881,10.6596,10.7183,10.7,10.6376,10.6376,10.6376,10.6376,0.0,0.0,0.0,0.0,0.0,0.0,0.0,0.0,0.0,0.0,0.0,5.6124,0.0,0.0,0.0,0.0,0.0,0.0,0.0,0.0,0.0,6.1557,6.3209,6.409,6.409,6.2438,6.1594,6.1594,0.0,0.0,0.0,6.8862,7.0807,0.0,0.0,0.0,6.9229,6.5999,6.4127,6.3466,6.4273,6.4971,6.5301,6.4016,6.409,6.4604,6.2401,6.1814,6.2144,6.2144,6.13,6.0346,6.0786,0.0,0.0,0.0,0.0,0.0,0.0,0.0,0.0,0.0,0.0,0.0,0.0,0.0,0.0,11.7021,11.8122,11.8819,11.8893,11.8893,11.8306,11.6801,11.6103,11.5699,11.5406,11.4892,11.5112,11.6397,11.6103,11.6213,11.6984,11.6617,11.6213,11.592,11.5112,11.4488,11.4084,11.3791,11.3387,11.291,11.2579,11.2212,11.1698,11.1405,11.1001,11.0487,10.9679,10.9092,10.8578,10.8285,10.8101,10.8175,10.8615,10.8101,10.7,10.7771,10.7404,10.6376,10.6302,10.6009,10.5715,10.5715,10.5715,10.5715,0.0,0.0,0.0,0.0,0.0,0.0,0.0,0.0,0.0,0.0,0.0,0.0,0.0,0.0,0.0,0.0,0.0,0.0,0.0,0.0,0.0,6.1263,6.2695,6.3466,6.3466,6.2034,6.13,6.13,0.0,0.0,6.8935,7.033,7.2202,0.0,7.2239,0.0,0.0,0.0,0.0,0.0,6.4383,6.5264,6.6366,6.5154,6.5338,6.5778,6.2695,0.0,0.0,6.152,6.0786,5.9942,6.0786,5.9905,0.0,0.0,0.0,0.0,0.0,0.0,0.0,0.0,0.0,0.0,0.0,0.0,11.5222,0.0,11.6911,11.7094,11.7682,11.7314,11.6617,11.581,11.5002,11.4488,11.4488,11.3974,11.3974,11.5185,11.4892,11.4708,11.5296,11.4818,11.4488,11.4488,11.3681,11.3277,11.3277,11.3093,11.2689,11.2102,11.2102,11.1808,11.1221,11.1001,11.0487,10.9679,10.8909,10.8175,10.7587,10.7183,10.7,10.7,10.7587,10.7183,10.6082,10.6486,10.6376,10.6009,10.5091,10.4798,10.4798,10.4798,10.4798,10.4908,0.0,0.0,0.0,0.0,0.0,0.0,0.0,0.0,0.0,0.0,0.0,0.0,5.6822,5.6088,5.5904,5.6675,5.6785,5.7152,5.796,5.8804,5.9648,6.0419,6.1263,0.0,6.1741,6.0896,6.0456,0.0,0.0,0.0,6.8972,7.2055,7.5616,7.9286,7.6093,7.378,7.2055,0.0,0.0,0.0,0.0,6.5742,6.6476,6.6402,6.5962,6.5044,0.0,0.0,0.0,6.1337,6.152,6.163,6.2438,6.1594,6.0456,0.0,0.0,0.0,0.0,0.0,0.0,0.0,0.0,0.0,0.0,0.0,11.5002,11.5883,11.6103,11.6103,11.6103,11.6103,11.581,11.5002,11.4194,11.3681,11.3681,11.357,11.357,11.3681,11.3681,11.3681,11.3681,11.3681,11.3681,11.3681,11.291,11.2506,11.2506,11.1698,11.1295,11.1295,11.1295,11.1221,11.1221,11.0414,10.9679,10.8909,10.7991,10.7587,10.7477,10.6009,10.5201,10.5201,10.5311,10.5201,10.5128,10.4394,10.4504,10.5128,10.4284,10.399,10.399,10.399,10.399,10.399,0.0,0.0,0.0,0.0,0.0,0.0,0.0,0.0,0.0,0.0,0.0,0.0,0.0,5.7299,5.7262,5.7556,5.7556,5.7703,5.796,5.8767,5.9575,6.0382,6.1153,6.1851,6.2365,6.1594,6.1153,0.0,0.0,6.3833,6.8201,7.1431,7.4258,7.6607,7.5432,7.4294,7.2936,6.7871,0.0,0.0,0.0,0.0,6.7797,6.5742,0.0,0.0,0.0,0.0,0.0,6.387,6.2254,6.0199,6.1006,6.0162,5.9134,6.0456,6.2144,6.5264,0.0,0.0,0.0,9.1326,9.7273,10.1714,10.6596,11.0597,11.3607,11.5002,11.5589,11.581,11.5296,11.5185,11.5002,11.4194,11.3387,11.28,11.28,11.2396,11.2396,11.3497,11.3093,11.2983,11.3497,11.3093,11.28,11.28,11.2102,11.1588,11.1588,11.1405,11.1221,11.1221,11.0707,11.0193,10.9679,10.9386,10.8799,10.7991,10.7183,10.678,10.678,10.5605,10.4798,10.432,10.3806,10.3917,10.432,10.399,10.41,10.421,10.3403,10.3109,10.3109,10.3109,10.3109,10.3219,0.0,0.0,0.0,0.0,0.0,0.0,0.0,0.0,0.0,0.0,0.0,0.0,0.0,0.0,5.7997,5.7997,5.7997,5.7997,5.7997,5.851,5.9281,6.0346,6.0896,6.1704,6.2805,6.1998,6.1484,0.0,0.0,0.0,0.0,7.0073,7.2863,7.4882,7.4074,7.4147,0.0,0.0,0.0,6.6109,0.0,0.0,7.033,0.0,0.0,0.0,0.0,0.0,0.0,0.0,6.4714,6.2438,6.2144,6.0566,5.8841,5.9134,6.13,6.4787,6.9889,0.0,0.0,0.0,0.0,9.507,10.2925,10.7,11.0083,11.3313,11.4818,11.5406,11.4892,11.4598,11.4084,11.3277,11.2506,11.1992,11.1992,11.1515,11.1588,11.2689,11.2286,11.2212,11.2689,11.2286,11.1992,11.1992,11.1515,11.1221,11.1221,11.1221,11.1221,11.1221,11.0414,10.9606,10.8799,10.8505,10.7991,10.7183,10.667,10.6192,10.5899,10.5091,10.4284,10.3476,10.2595,10.2779,10.3513,10.3182,10.3293,10.3403,10.2595,10.2301,10.2301,10.2301,10.2301,10.2419,0.0,0.0,0.0,0.0,0.0,0.0,0.0,0.0,0.0,5.8033,0.0,0.0,0.0,0.0,0.0,5.8143,5.8143,5.8107,5.8033,5.8033,5.8731,6.0309,6.0382,6.1153,6.2732,6.2034,6.1227,0.0,0.0,0.0,0.0,0.0,7.1688,7.4588,7.2386,7.3523,7.6937,0.0,7.301,7.2275,0.0,7.1578,7.3927,0.0,0.0,0.0,7.1541,6.9926,0.0,6.9302,6.9155,6.8568,6.5999,6.2989,5.9905,5.7519,5.9648,6.2952,0.0,0.0,0.0,0.0,0.0,0.0,10.0209,10.2815,10.421,11.0781,11.3387,11.4488,11.4708,11.4084,11.3277,11.2506,11.1698,11.1221,11.1221,11.1221,11.1221,11.1221,11.1221,11.1221,11.1221,11.1221,11.1221,11.1221,11.1221,11.1221,11.1221,11.1221,11.1221,11.1221,11.0377,10.9606,10.8799,10.7991,10.7183,10.6376,10.6376,10.5899,10.5128,10.4284,10.3476,10.2705,10.1788,10.1898,10.2595,10.1788,10.1971,10.2595,10.1788,10.1494,10.1494,10.1494,10.1494,10.1617,0.0,0.0,0.0,0.0,0.0,0.0,0.0,0.0,0.0,0.0,0.0,0.0,5.9685,6.0786,6.1484,6.1484,6.1484,6.075,5.8988,5.8877,5.9098,5.9538,6.0089,6.0896,6.1924,6.2291,6.2071,6.1263,0.0,0.0,0.0,0.0,0.0,0.0,7.2642,7.323,7.1872,6.8274,0.0,0.0,7.0293,7.2973,0.0,0.0,0.0,0.0,0.0,7.7708,0.0,0.0,7.5395,7.0477,0.0,6.119,5.9318,5.8033,5.9685,6.1961,6.2218,0.0,0.0,0.0,0.0,0.0,8.6775,9.0739,9.5437,10.3696,10.5715,10.7514,11.2212,11.291,11.2506,11.1698,11.1295,11.1221,11.1221,11.1221,11.1221,11.1221,11.1221,11.1221,11.1221,11.1221,11.1221,11.1221,11.1221,11.1221,11.1221,11.0597,11.0304,11.0304,10.9606,10.8688,10.7881,10.7697,10.7183,10.6376,10.6376,10.5899,10.5128,10.4284,10.3476,10.2705,10.1788,10.1604,10.1788,10.1604,10.1604,10.1788,10.1604,10.1494,10.1494,10.1494,10.1494,10.1538,0.0,0.0,0.0,0.0,0.0,0.0,0.0,0.0,0.0,0.0,0.0,0.0,6.13,6.3172,6.3943,6.2915,6.2805,6.2071,6.0346,5.9575,5.9501,6.0162,6.0346,6.0933,6.2071,6.2218,6.1924,6.108,0.0,0.0,0.0,0.0,0.0,0.0,0.0,0.0,0.0,0.0,0.0,0.0,7.1651,0.0,0.0,7.9727,8.292,0.0,0.0,0.0,8.6004,8.4646,7.9874,0.0,0.0,0.0,6.1741,5.9245,6.0933,6.3576,6.3246,6.4677,6.7026,7.0146,0.0,0.0,8.2553,8.5857,9.0408,10.1017,10.3513,10.5091,10.9606,11.0707,11.0597,10.979,11.0304,11.0817,11.1184,11.1221,11.1221,11.1221,11.1221,11.1221,11.1221,11.1221,11.1221,11.1221,11.1221,11.1221,11.1221,11.0414,10.9973,10.9973,10.8872,10.8101,10.7587,10.7294,10.689,10.6376,10.6009,10.5422,10.4614,10.3806,10.2999,10.2191,10.131,10.098,10.098,10.098,10.098,10.098,10.098,10.098,10.098,10.098,10.12,10.1617,0.0,0.0,0.0,0.0,0.0,0.0,0.0,0.0,0.0,0.0,6.2732,6.2805,6.3796,6.5705,6.5999,6.3796,6.3466,6.2879,6.1777,6.0309,6.0052,6.141,6.086,6.119,6.2658,6.2144,6.1374,6.0419,0.0,0.0,0.0,0.0,0.0,0.0,0.0,0.0,0.0,0.0,0.0,6.8568,7.3927,7.7855,0.0,0.0,8.9124,0.0,8.9674,9.0592,9.195,8.8647,8.3398,0.0,0.0,0.0,6.6292,6.1117,6.3062,6.6659,6.5485,6.6476,6.8605,7.1835,0.0,0.0,8.2113,8.3985,8.6811,9.8998,10.2191,10.3513,10.5789,10.689,10.711,10.6082,10.7881,10.979,11.1001,11.1221,11.1221,11.1221,11.1221,11.1221,11.1221,11.1221,11.1221,11.1221,11.1221,11.1184,11.1111,11.0304,10.99,10.99,10.8285,10.7477,10.7587,10.6706,10.6302,10.6192,10.5422,10.4504,10.3696,10.2999,10.2191,10.1274,10.0613,10.0209,10.0209,10.0209,10.0209,10.0209,10.0283,10.0283,10.0283,10.0283,10.0796,10.1739,6.1557,0.0,0.0,0.0,0.0,0.0,0.0,0.0,6.4127,6.5595,6.6769,6.8274,7.0367,6.9889,6.9192,6.8715,6.7504,6.5558,6.2768,6.1667,6.097,6.0639,6.108,6.152,6.1814,6.2989,6.2548,6.0419,0.0,0.0,0.0,0.0,0.0,0.0,0.0,0.0,0.0,0.0,0.0,7.0917,7.4625,0.0,8.5086,8.9307,9.2831,9.5474,9.5144,9.5768,9.6098,0.0,8.7876,8.281,0.0,0.0,0.0,6.4127,0.0,6.8641,6.5264,0.0,0.0,0.0,0.0,0.0,6.9853,7.2789,7.7818,8.4976,8.7582,9.0482,9.6685,9.8521,9.8374,9.6282,10.109,10.6486,11.0597,11.1221,11.1221,11.1221,11.1221,11.1221,11.1221,11.1221,11.1221,11.1221,11.1221,11.0891,11.0304,10.9496,10.9019,10.9019,10.7477,10.689,10.7587,10.6119,10.5422,10.5311,10.4504,10.3696,10.2925,10.2815,10.1898,10.0503,10.0393,9.9916,9.9328,9.9328,9.9328,9.9402,9.9989,10.0283,10.0283,10.0283,10.0796,10.1581,6.2768,0.0,0.0,0.0,0.0,0.0,0.0,0.0,6.7063,6.8678,7.066,7.1908,7.1908,7.1908,7.1248,6.9633,6.8385,6.6659,6.4237,6.2879,6.2034,6.163,6.1227,6.1594,6.2805,6.2071,6.163,6.1594,0.0,0.0,0.0,0.0,0.0,0.0,0.0,0.0,0.0,0.0,6.5521,7.1174,7.6423,0.0,8.8096,9.2574,9.6282,9.8998,9.819,9.8154,9.7933,9.4263,9.0629,0.0,0.0,7.7598,7.657,0.0,7.022,7.2018,0.0,0.0,0.0,6.7797,0.0,0.0,0.0,7.1027,7.4074,8.1819,8.3067,8.4535,9.0225,9.1253,9.14,9.1803,9.6612,10.131,10.421,10.8101,11.0597,11.0597,11.0193,11.001,11.001,11.0414,11.0597,11.0597,11.0193,10.979,10.9386,10.8578,10.8175,10.8175,10.7,10.6376,10.6376,10.5495,10.4908,10.4504,10.3696,10.2889,10.2081,10.2081,10.12,9.9695,9.9695,9.9255,9.8484,9.8484,9.8498,9.8503,9.8974,9.9328,9.9695,9.9695,10.0671,10.2204,6.3723,0.0,0.0,0.0,0.0,0.0,0.0,0.0,6.9779,7.1541,7.334,7.3891,7.2386,7.312,7.2899,7.0954,6.9449,6.8128,6.699,6.4787,6.3392,6.3062,6.152,6.1557,6.3576,6.1006,6.0566,6.2365,0.0,0.0,0.0,0.0,0.0,0.0,0.0,0.0,0.0,0.0,0.0,7.2496,0.0,8.4242,8.9307,9.4666,9.8521,10.0907,10.0099,9.9805,9.9255,9.5731,0.0,8.9307,8.3177,8.2406,0.0,0.0,0.0,0.0,0.0,0.0,0.0,0.0,0.0,6.8752,0.0,0.0,0.0,8.0241,8.0645,8.0608,8.3838,8.4022,8.4462,8.6738,9.1216,9.4593,9.5254,10.1788,10.6706,10.7404,10.7697,10.7807,10.7587,10.8211,10.8909,10.9679,10.8395,10.7881,10.8505,10.7771,10.7367,10.7367,10.6376,10.5678,10.5128,10.4798,10.432,10.3696,10.2705,10.1898,10.1274,10.109,10.0209,9.8888,9.9048,9.8646,9.7872,9.806,9.8086,9.8001,9.7912,9.8459,9.9278,9.9164,10.0574,10.2826,6.3099,6.4237,0.0,0.0,6.6733,0.0,0.0,7.0,7.0807,7.312,7.3046,7.3487,7.5359,0.0,0.0,0.0,0.0,0.0,7.2716,0.0,6.5448,6.4016,6.2328,6.1594,6.1887,6.152,6.1117,6.0676,5.9612,0.0,0.0,0.0,0.0,0.0,6.0162,0.0,0.0,0.0,6.8788,0.0,8.1158,8.3728,0.0,9.4006,9.7823,9.9622,10.1604,10.2301,10.1604,0.0,9.463,9.2391,0.0,8.5563,0.0,0.0,0.0,0.0,0.0,0.0,0.0,0.0,7.3156,0.0,0.0,0.0,7.2129,7.1798,0.0,7.4661,7.5139,0.0,0.0,7.4735,8.0975,8.6004,8.6114,9.0592,9.496,9.786,10.1898,10.421,10.3513,10.3513,10.5018,10.8688,10.5495,10.4687,10.7587,10.7,10.6486,10.6486,10.4981,10.4504,10.5128,10.3696,10.2925,10.2815,10.131,10.0503,10.0393,9.9695,9.8888,9.8084,9.8759,9.8593,9.7844,9.8617,9.8847,9.8787,9.817,9.8754,9.9981,9.9344,10.0582,10.2682,6.3613,6.4861,0.0,0.0,6.732,6.8788,6.9926,7.2092,7.3964,7.4955,7.6056,7.7121,0.0,0.0,0.0,0.0,0.0,0.0,0.0,0.0,6.8641,6.5632,6.3429,6.2768,6.3723,6.141,6.0493,6.108,5.9355,5.8914,0.0,0.0,0.0,0.0,6.1484,0.0,6.5007,0.0,7.0734,0.0,0.0,0.0,0.0,9.6171,10.0503,10.2118,10.41,10.421,10.2705,0.0,9.5437,0.0,0.0,0.0,0.0,0.0,0.0,0.0,0.0,0.0,0.0,0.0,0.0,0.0,6.9045,0.0,6.8531,0.0,0.0,0.0,0.0,0.0,0.0,0.0,7.6937,8.0204,7.9727,8.4278,8.9344,9.4042,9.5144,9.6465,9.8998,9.9622,10.12,10.4284,10.1677,10.131,10.4577,10.5311,10.5605,10.5605,10.5018,10.432,10.3696,10.2999,10.2485,10.2008,10.0796,10.0099,9.9585,9.9255,9.8646,9.7907,9.8704,9.8843,9.8529,9.889,9.9291,9.9638,9.888,9.923,10.0231,9.983,10.1007,10.2592,6.3759,0.0,0.0,0.0,0.0,6.8605,6.9596,7.2239,7.4515,7.5616,0.0,0.0,7.9947,8.0204,0.0,0.0,0.0,7.9837,0.0,0.0,7.1578,6.7357,0.0,0.0,0.0,6.152,6.0126,6.1263,5.9061,5.8657,0.0,0.0,0.0,0.0,0.0,6.6329,6.8605,0.0,0.0,8.0681,8.3911,8.7399,9.1436,9.8704,10.2595,10.4394,10.5605,10.5311,10.3586,9.9585,9.6685,0.0,9.507,0.0,0.0,0.0,0.0,0.0,7.914,0.0,0.0,0.0,0.0,0.0,0.0,0.0,0.0,0.0,0.0,0.0,0.0,0.0,7.0293,7.2202,0.0,7.613,7.5506,7.8626,8.2737,8.7545,8.8096,9.0005,9.4923,9.5107,9.6392,9.9916,9.7309,9.7566,10.2118,10.3513,10.432,10.4798,10.4614,10.3917,10.2705,10.2485,10.2081,10.1494,10.0503,9.9659,9.9108,9.8867,9.8355,9.7868,9.8953,9.9337,9.9346,9.9562,9.9999,10.0375,9.986,9.9995,10.0511,10.0292,10.1216,10.26,6.2792,6.42,0.0,0.0,0.0,0.0,0.0,0.0,0.0,0.0,0.0,0.0,0.0,0.0,0.0,0.0,0.0,8.7362,8.3324,0.0,7.3854,0.0,0.0,0.0,0.0,0.0,6.0382,6.0456,5.8804,5.9208,0.0,0.0,0.0,0.0,0.0,6.9779,7.367,7.69,8.3324,9.1363,9.2354,9.5621,9.9989,0.0,10.2999,10.5128,10.5128,0.0,0.0,10.0429,9.8998,0.0,0.0,0.0,0.0,0.0,0.0,0.0,0.0,0.0,0.0,7.6497,0.0,0.0,0.0,0.0,7.323,0.0,0.0,0.0,0.0,7.4698,7.4184,7.2753,7.323,0.0,0.0,7.2606,7.2679,7.5175,8.0975,8.6664,9.1583,8.9197,9.0005,9.6355,9.2391,9.3161,10.109,10.1567,10.2301,10.388,10.3182,10.2815,10.2705,10.1898,10.1494,10.1494,9.9916,9.9145,9.9035,9.8238,9.78,9.786,9.9477,10.0212,10.0185,10.0889,10.1211,10.1288,10.1211,10.1211,10.1208,10.0489,10.1208,10.2595,0.0,0.0,0.0,0.0,0.0,0.0,0.0,7.1394,0.0,0.0,0.0,0.0,0.0,0.0,9.4373,0.0,0.0,9.3418,8.7766,8.4829,0.0,0.0,0.0,6.9229,0.0,0.0,0.0,6.119,6.0639,0.0,0.0,0.0,0.0,0.0,0.0,7.2129,0.0,0.0,0.0,0.0,0.0,9.6098,10.1898,0.0,10.2008,10.2999,10.5201,10.6009,10.5678,10.3696,10.1714,10.0099,10.109,9.8704,9.5621,9.6098,9.5694,9.452,0.0,0.0,9.5217,8.4389,0.0,0.0,0.0,0.0,0.0,0.0,0.0,0.0,0.0,7.4918,7.4551,7.345,7.3523,7.2973,0.0,6.9155,6.9412,7.2899,7.8589,8.2663,8.3765,8.5306,8.7325,9.0078,8.9234,9.1216,9.7199,9.9548,10.098,10.1494,10.2301,10.2412,10.1898,10.1604,10.12,10.0686,9.9622,9.8814,9.8264,9.7975,9.8124,9.8651,9.9706,10.0497,10.0889,10.121,10.1289,10.1289,10.1289,10.1289,10.1288,10.1011,10.1283,10.1712,6.4427,0.0,0.0,0.0,0.0,0.0,0.0,0.0,0.0,0.0,8.6811,0.0,9.797,0.0,10.0283,0.0,10.1788,9.8337,9.0372,8.9674,0.0,8.0498,7.6974,0.0,0.0,0.0,0.0,0.0,0.0,6.2915,0.0,0.0,0.0,0.0,0.0,0.0,7.9764,0.0,8.9454,0.0,0.0,9.6539,0.0,0.0,10.109,10.2705,10.5789,10.6596,10.6376,10.6082,10.4394,10.2889,10.5201,10.2595,9.8961,10.0723,9.9989,9.8227,9.6465,9.8888,9.9732,9.0665,8.9601,0.0,7.7928,0.0,0.0,0.0,0.0,0.0,0.0,7.7855,7.6607,7.5212,7.4037,7.2055,0.0,6.765,6.8641,7.2092,7.5983,7.8883,8.0094,8.1269,8.2847,8.5123,8.5527,8.7766,9.2611,9.6795,9.9292,9.9879,10.142,10.2008,10.1494,10.12,10.0796,10.0283,9.9181,9.8411,9.7937,9.8135,9.8529,9.9065,10.0098,10.0885,10.1289,10.1289,10.1289,10.1289,10.1289,10.1289,10.1289,10.1289,10.152,10.1712,0.0,0.0,0.0,0.0,6.732,0.0,0.0,0.0,7.9176,0.0,8.7949,9.2758,10.0099,10.2301,10.3806,10.5311,10.6119,0.0,9.1987,9.3418,0.0,0.0,8.237,8.226,8.1489,7.646,0.0,0.0,0.0,0.0,0.0,0.0,0.0,0.0,6.9853,0.0,8.1232,8.7655,9.4556,10.0907,9.797,9.7273,9.8007,9.8154,10.0613,10.4284,10.6706,10.7073,10.6596,10.7367,10.7073,10.667,10.7367,10.7073,10.6302,10.5495,10.5789,10.5495,10.0796,10.131,10.1494,9.5217,9.4703,0.0,0.0,0.0,8.9417,0.0,0.0,0.0,0.0,0.0,8.0314,7.7524,7.4368,7.0954,6.7136,6.7871,6.9669,7.2092,7.2973,7.5285,8.0057,7.7047,7.6754,8.1489,8.1122,8.2884,8.7876,9.3345,9.7126,9.8888,10.0576,10.1494,10.1494,10.0686,10.0319,10.0209,9.8668,9.7897,9.7864,9.8653,9.9007,9.9122,10.0595,10.1289,10.1289,10.1289,10.1289,10.1289,10.1289,10.1289,10.1289,10.1289,10.1789,10.2404,6.6223,6.6659,6.7283,0.0,6.7504,6.8385,0.0,0.0,0.0,0.0,9.5144,10.0503,10.8395,10.9679,11.0083,11.0487,10.9606,0.0,0.0,0.0,0.0,9.463,9.0592,8.8353,8.8133,8.0424,0.0,7.4258,0.0,0.0,6.7944,0.0,0.0,0.0,0.0,0.0,7.8662,8.4535,9.0922,9.7089,9.7419,9.8411,9.9879,10.1677,10.3806,10.5899,10.7183,10.7881,10.8101,10.7697,10.7881,10.8211,10.8395,10.8395,10.7991,10.7183,10.7514,10.7881,10.6706,10.7183,10.7,10.2301,10.0099,9.7566,9.1913,9.3418,0.0,0.0,0.0,0.0,0.0,0.0,0.0,7.4918,7.1027,6.8788,6.8348,0.0,0.0,7.044,0.0,7.044,7.3487,7.3377,7.4147,7.6607,7.6607,7.9653,8.6921,8.9858,9.2868,9.6318,9.9145,10.0907,10.1494,10.1274,10.0613,9.9402,9.8998,9.819,9.7056,9.8391,9.9007,9.9122,10.0595,10.1289,10.1289,10.1289,10.1289,10.1289,10.1289,10.1289,10.1289,10.1289,10.1404,10.1597,6.7488,0.0,0.0,7.0403,0.0,0.0,7.7011,0.0,0.0,9.2941,9.7787,0.0,10.8615,11.1111,11.2506,11.2873,11.1478,0.0,0.0,0.0,0.0,9.9255,9.6685,9.4887,9.3822,8.7142,0.0,7.8772,0.0,0.0,6.8862,0.0,0.0,0.0,0.0,7.334,7.7378,8.6628,9.2684,9.6245,9.8521,10.0613,0.0,10.3917,10.6119,10.8505,10.8578,10.8688,10.8799,10.8688,10.8688,10.8909,10.9202,10.9312,10.9312,10.9202,10.9496,10.9826,10.9826,11.0193,11.001,10.7697,10.6302,10.421,9.8998,9.9475,9.9989,9.6465,9.7052,9.6649,0.0,0.0,0.0,7.2973,6.9633,0.0,0.0,0.0,0.0,0.0,6.9082,6.9009,6.9669,6.9192,7.0073,7.312,7.367,7.6103,8.1243,8.6544,9.0664,9.3563,9.7543,10.0306,10.1494,10.1388,10.0795,9.9649,9.8836,9.8023,9.721,9.8405,9.9007,9.9122,10.0595,10.1289,10.1289,10.1289,10.1289,10.1289,10.1289,10.1289,10.1289,10.1289,10.1289,10.1289,0.0,0.0,0.0,0.0,0.0,0.0,0.0,8.3544,0.0,9.4483,0.0,10.2999,10.6009,11.0083,11.28,11.3497,0.0,10.9386,10.5091,10.678,10.5678,10.0723,10.1604,10.109,9.8888,9.4226,0.0,0.0,0.0,0.0,6.8862,6.7136,0.0,0.0,0.0,0.0,0.0,9.0005,9.5584,9.6392,9.9989,10.2815,10.4908,10.5495,10.7918,11.1001,11.0377,10.9679,10.9202,10.979,10.9606,10.9202,10.99,11.0193,11.0304,11.1001,11.1221,11.1221,11.1221,11.1221,11.1221,11.1221,11.1698,11.0891,10.6009,10.5495,10.5018,10.131,9.8961,9.7419,9.6942,8.9784,8.1122,7.2459,0.0,0.0,0.0,0.0,0.0,0.0,0.0,0.0,6.7871,6.5705,6.6219,7.066,7.1358,7.2576,7.4828,8.3438,8.9297,9.1475,9.6236,9.9612,10.147,10.139,10.103,10.024,9.8799,9.8017,9.783,9.8764,9.9083,9.9122,10.0595,10.1289,10.1289,10.1289,10.1289,10.1289,10.1289,10.1289,10.1289,10.1289,10.1289,10.1289,0.0,0.0,0.0,0.0,0.0,8.5233,9.1253,9.4299,9.7456,10.1677,10.689,11.1001,11.291,11.3277,11.3387,11.357,11.2102,0.0,0.0,0.0,0.0,10.8101,10.6486,10.4981,10.3917,9.5914,8.9968,0.0,7.7268,7.1541,0.0,0.0,0.0,0.0,0.0,0.0,8.0461,8.5563,8.9601,9.3161,9.9108,10.2191,10.3586,10.7587,10.9606,11.0304,11.0817,11.0891,11.0707,11.0193,11.0304,11.0817,11.0928,11.1001,11.1001,11.1184,11.1221,11.1221,11.1221,11.1221,11.1221,11.1221,11.1295,11.1111,11.012,11.0524,11.0487,10.8505,10.8285,10.6229,9.8998,8.8353,7.9617,0.0,0.0,0.0,0.0,0.0,0.0,0.0,0.0,7.2386,0.0,6.6696,6.699,6.9155,6.7614,6.9871,7.7426,8.0819,8.5668,9.2573,9.6251,9.9092,10.1351,10.1411,10.1031,10.0093,9.9926,9.9171,9.783,9.9304,9.9649,9.9122,10.0595,10.1289,10.1289,10.1289,10.1289,10.1289,10.1289,10.1289,10.1289,10.1289,10.1289,10.1289,0.0,0.0,0.0,0.0,0.0,0.0,0.0,10.3182,0.0,10.4687,10.7294,10.9606,11.0377,11.2689,11.4194,11.4194,11.28,11.1808,11.1808,11.0707,10.9973,10.9973,10.8101,0.0,10.5789,9.9475,9.3198,8.6995,7.98,7.3523,0.0,0.0,0.0,6.6586,6.9889,7.4698,8.0718,8.604,9.0886,9.5474,10.1604,10.4981,10.678,10.9606,11.0597,11.0707,11.1111,11.1221,11.1111,11.0781,11.0891,11.1221,11.1221,11.1221,11.1221,11.1221,11.1221,11.1221,11.1221,11.1221,11.1221,11.1221,11.1221,11.1221,11.1221,11.1515,11.1588,11.0781,11.0597,10.8101,9.9989,9.0298,0.0,0.0,0.0,0.0,0.0,0.0,0.0,0.0,0.0,0.0,0.0,6.8091,6.6916,6.6439,6.6109,6.8272,7.3628,7.7671,8.3014,9.0094,9.4367,9.7876,10.0754,10.2024,10.2018,10.0677,10.0432,9.9854,9.9065,9.9422,9.9613,9.9706,10.0804,10.1289,10.1289,10.1289,10.1289,10.1289,10.1289,10.1289,10.1289,10.1289,10.1289,10.1289,0.0,7.8638,0.0,0.0,9.1987,0.0,10.2742,10.9386,11.2212,10.7734,10.7918,10.8395,10.8211,11.1992,11.4488,11.4305,11.2983,11.2102,11.2102,11.1001,11.0304,11.0304,10.8872,10.7697,10.689,10.2889,9.6722,0.0,8.2774,7.6056,6.8421,0.0,6.5668,6.6512,7.1211,7.6093,8.1269,8.8206,9.3969,9.8888,10.421,10.7587,10.9569,11.0597,11.0891,11.1001,11.1111,11.1221,11.1221,11.1221,11.1221,11.1221,11.1221,11.1221,11.1221,11.1221,11.1221,11.1221,11.1221,11.1221,11.1221,11.1221,11.1221,11.1221,11.1221,11.1221,11.1184,11.1001,11.0304,10.7697,10.0907,9.4556,8.9784,0.0,0.0,0.0,0.0,0.0,0.0,0.0,0.0,0.0,7.2569,6.9816,6.721,6.4787,6.6256,6.8231,7.0383,7.5711,8.1317,8.7042,9.2253,9.6421,9.935,10.1885,10.2621,10.1378,10.0828,10.0426,10.0203,9.9745,9.9742,10.0195,10.1008,10.1289,10.1289,10.1289,10.1289,10.1289,10.1289,10.1289,10.1289,10.1289,10.121,10.1129,0.0,0.0,0.0,0.0,0.0,0.0,10.5338,11.0891,11.4488,11.4011,11.4598,11.4782,11.4121,11.3791,11.3387,11.2689,11.1808,11.1295,11.1295,11.1184,11.1111,11.1111,11.0193,10.9386,10.8615,10.4614,9.9218,0.0,8.4719,7.7488,7.0881,6.71,6.688,6.9816,7.3927,7.8883,8.4535,9.0408,9.5658,10.0393,10.4687,10.7,10.7991,10.9496,11.0083,11.0193,11.0891,11.1221,11.1221,11.1221,11.1221,11.1221,11.1221,11.1221,11.1221,11.1221,11.1221,11.1221,11.1221,11.1221,11.1221,11.1221,11.1221,11.1221,11.1221,11.1221,11.1001,11.0304,10.9496,10.7294,10.2228,10.131,9.8814,9.1473,0.0,0.0,0.0,0.0,0.0,0.0,0.0,0.0,7.6166,7.2129,6.8862,6.6439,6.8421,7.0826,7.3178,7.7086,8.1169,8.5497,9.1037,9.4756,9.6355,9.9926,10.1621,10.127,10.1405,10.0975,10.0197,10.0894,10.0802,10.0195,10.1008,10.1289,10.1289,10.1289,10.1289,10.1289,10.1289,10.1289,10.1289,10.1289,10.0885,10.0319,0.0,0.0,0.0,0.0,0.0,0.0,0.0,11.3313,11.5002,11.5479,11.581,11.5883,11.5589,11.4782,11.4194,11.3901,11.2689,11.1919,11.1919,11.1515,11.1221,11.1221,11.0414,10.9606,10.8799,10.5715,10.0503,0.0,0.0,0.0,0.0,6.9596,6.9889,7.3193,7.7745,8.2627,8.7839,9.3051,9.8043,10.2779,10.6413,10.8285,10.9166,11.0304,11.0707,11.0781,11.1111,11.1221,11.1221,11.1221,11.1221,11.1221,11.1221,11.1221,11.1221,11.1221,11.1221,11.1221,11.1221,11.1221,11.1221,11.1221,11.1221,11.1295,11.1808,11.1515,11.1221,11.1405,11.0817,10.9496,10.711,10.3696,10.1017,10.0209,0.0,0.0,0.0,0.0,0.0,0.0,0.0,0.0,0.0,6.8972,6.7136,7.055,6.9009,6.8693,7.0412,7.3536,7.7829,8.3508,8.8507,9.2547,9.538,9.9507,10.1508,10.1376,10.1545,10.1319,10.0906,10.0804,10.0716,10.0885,10.121,10.1289,10.1289,10.1289,10.1289,10.1289,10.1289,10.1289,10.1289,10.1289,10.0765,10.0185,9.5836,0.0,9.7659,0.0,10.5871,10.7199,11.2958,11.4254,11.47,11.5175,11.5734,11.581,11.5296,11.4782,11.4305,11.3791,11.2689,11.1992,11.1992,11.1515,11.1221,11.1221,11.0707,0.0,10.9202,10.7,10.2595,9.5914,9.0335,0.0,7.7524,7.4404,7.4808,7.8295,8.27,8.7105,9.1546,9.6649,10.0907,10.4504,10.7807,10.9496,11.0083,11.0891,11.1221,11.1221,11.1221,11.1221,11.1221,11.1221,11.1221,11.1221,11.1221,11.1221,11.1221,11.1221,11.1221,11.1221,11.1221,11.1221,11.1221,11.1221,11.1405,11.1698,11.2286,11.1992,11.1625,11.1992,11.1588,11.1001,11.0487,10.6413,10.3586,10.5091,10.2081,0.0,0.0,9.9218,0.0,0.0,8.1342,7.668,7.4515,6.8421,6.743,7.4258,7.1394,6.9723,7.0628,7.289,7.6736,8.2444,8.7655,9.186,9.5087,9.9384,10.1499,10.1536,10.1499,10.1517,10.1371,10.0822,10.0811,10.1289,10.1289,10.1289,10.1289,10.1289,10.1289,10.1289,10.1289,10.1289,10.1289,10.1289,10.0716,9.9847,9.9666,10.023,10.2087,10.8973,10.9299,10.916,11.1206,11.2841,11.368,11.368,11.5093,11.5406,11.3791,11.357,11.2983,11.1405,11.1221,11.1221,11.1221,11.1221,11.1221,0.0,0.0,11.0817,10.9973,10.8395,10.5899,10.2595,0.0,0.0,8.6738,8.1929,8.1819,8.582,8.905,9.2317,9.5768,10.1384,10.432,10.5422,10.8688,10.9973,11.0083,11.0891,11.1221,11.1221,11.1221,11.1221,11.1221,11.1221,11.1221,11.1221,11.1221,11.1221,11.1221,11.1221,11.1221,11.1221,11.1221,11.1221,11.1221,11.1221,11.1808,11.2396,11.2396,11.2396,11.2212,11.1405,11.1221,11.1221,11.1221,11.0487,10.8285,10.3513,10.4687,0.0,0.0,9.8778,0.0,9.0262,8.4389,8.0314,7.8662,7.2642,7.1174,7.6864,7.6497,7.5983,7.5983,7.7271,7.952,8.2898,8.922,9.3381,9.5087,9.9345,10.1457,10.1457,10.1457,10.1493,10.1513,10.1408,10.1392,10.1289,10.1289,10.1289,10.1289,10.1289,10.1289,10.1289,10.1289,10.1289,10.1289,10.1289,10.029,9.9007,10.3533,10.456,10.5924,10.9742,11.0533,11.0781,11.1376,11.277,11.3716,11.3716,11.502,11.5589,11.4488,11.3901,11.3387,0.0,11.1808,11.1221,0.0,11.1221,11.1221,11.1221,11.1221,11.0817,10.9973,10.9496,10.7367,10.3513,9.8447,9.3198,8.7839,8.7986,8.9307,9.1767,9.5547,9.8704,10.1494,10.4908,10.7183,10.8578,11.0193,11.0817,11.0817,11.1111,11.1221,11.1221,11.1221,11.1221,11.1221,11.1221,11.1221,11.1221,11.1221,11.1221,11.1221,11.1221,11.1221,11.1295,11.1882,11.1992,11.2102,11.2689,11.2983,11.3203,11.3203,11.28,11.2212,11.1405,11.1221,11.1221,11.1221,11.1001,10.99,10.7294,10.7514,10.6119,10.0686,0.0,9.2501,8.4609,7.8185,7.4184,7.367,7.1248,7.1615,7.613,7.5212,7.4838,7.5698,7.9054,8.1437,8.2631,8.8803,9.3299,9.5902,9.9088,10.098,10.1494,10.1494,10.1197,10.0662,10.0575,10.0586,10.0589,10.1091,10.1289,10.1289,10.1289,10.1289,10.1289,10.1289,10.1289,10.1289,10.1289,10.029,9.9007,10.5115,10.6735,10.8078,10.8886,10.9888,11.0441,10.9913,11.156,11.2948,11.2948,11.4728,11.581,11.5296,11.4305,11.3497,11.3203,11.2212,11.1515,11.1221,11.1221,11.1221,11.1221,11.1221,11.1001,11.0487,11.0193,10.8468,10.5275,10.12,9.7016,9.2794,9.4336,9.6061,9.8007,10.0796,10.3293,10.5385,10.7587,10.9092,11.0083,11.0891,11.1221,11.1221,11.1221,11.1221,11.1221,11.1221,11.1221,11.1221,11.1221,11.1221,11.1221,11.1221,11.1221,11.1221,11.1221,11.1221,11.1405,11.2212,11.2396,11.2579,11.3387,11.3791,11.3974,11.3681,11.2983,11.2212,11.1405,11.1221,11.1221,11.1221,11.0707,11.001,10.8982,10.7991,10.5605,10.0393,9.5621,8.9968,8.2774,7.7524,7.4735,7.5359,7.5212,7.6497,7.9947,8.0094,7.9963,7.9889,8.1056,8.2876,8.5469,9.0831,9.5,9.7802,9.9783,10.098,10.1494,10.12,10.0791,10.0252,10.018,10.0203,10.0195,10.1008,10.1289,10.1289,10.1289,10.1289,10.1289,10.1289,10.1289,10.1289,10.1289,10.0505,9.9401,10.4755,10.6961,10.8453,10.706,10.8049,10.8563,10.71,10.9425,11.1404,11.1518,11.4058,11.5901,11.5993,11.4598,11.3387,11.2579,11.2396,11.1992,11.1221,11.1221,11.1221,11.1221,11.1221,11.1221,11.1221,11.0487,10.9276,10.7587,10.3806,10.1494,10.0613,10.0796,10.2008,10.421,10.5091,10.6302,10.7881,10.9386,11.0083,11.0083,11.0891,11.1221,11.1221,11.1221,11.1221,11.1221,11.1221,11.1221,11.1221,11.1221,11.1221,11.1221,11.1221,11.1221,11.1221,11.1221,11.1221,11.1405,11.2212,11.2506,11.2689,11.357,11.4194,11.4488,11.3681,11.2873,11.2102,11.1405,11.1221,11.1221,11.1221,10.99,10.8909,10.8799,10.6523,10.2815,9.7236,9.3529,8.9344,8.3875,8.1232,8.0534,8.2186,8.3104,8.4499,8.6664,8.8977,8.9307,8.7142,8.3618,8.4462,9.0592,9.474,9.8043,10.0393,10.12,10.1567,10.1567,10.0686,10.0162,10.022,10.0093,10.0065,10.0174,10.1008,10.1289,10.1289,10.1289,10.1289,10.1289,10.1289,10.1289,10.1289,10.1289,10.0804,9.9999,10.4528,10.5252,10.6047,10.6763,10.7233,10.7332,10.7034,10.8494,11.0154,11.1369,11.3054,11.4728,11.5901,11.5112,11.4194,11.3387,11.2212,11.1405,11.1221,11.1221,11.1221,11.1221,11.1221,11.1221,11.1221,11.1001,10.979,10.7587,10.6596,10.5385,10.4027,10.5275,10.6192,10.678,10.8175,10.9092,10.9496,11.0487,11.0891,11.0891,11.1111,11.1221,11.1221,11.1221,11.1221,11.1221,11.1221,11.1221,11.1221,11.1221,11.1221,11.1221,11.1221,11.1221,11.1221,11.1221,11.1221,11.1515,11.291,11.3277,11.3681,11.5075,11.4672,11.3681,11.2873,11.2102,11.1405,11.1221,11.1221,11.1221,11.1221,11.0414,10.9496,10.8909,10.4687,9.9695,9.4666,9.0078,8.582,8.2039,8.1048,8.1599,8.3838,8.4756,8.5196,8.5159,8.6261,8.6958,8.6995,8.7839,8.9601,9.2427,9.6428,9.9695,10.2118,10.2301,10.2412,10.2412,10.0393,9.9411,9.9348,9.9316,9.9311,9.9346,10.0722,10.1289,10.1289,10.1289,10.1289,10.1289,10.1289,10.1289,10.1289,10.1289,10.0383,9.9235,10.4396,10.4667,10.5174,10.6595,10.69,10.69,10.69,10.8179,10.9827,11.129,11.2555,11.3716,11.5351,11.4415,11.3497,11.3093,11.2286,11.1588,11.1221,11.1221,11.1221,11.1221,11.1221,11.1221,11.1221,11.0817,10.9606,10.7587,10.7183,10.678,10.6302,10.7183,10.7991,10.8688,10.9569,11.0193,11.0597,11.0597,11.0891,11.1221,11.0817,11.0891,11.1221,11.1221,11.1221,11.1221,11.1221,11.1221,11.1221,11.1221,11.1221,11.1221,11.1221,11.1221,11.1221,11.1221,11.1221,11.1588,11.3167,11.357,11.3901,11.5112,11.4194,11.291,11.2506,11.1808,11.1221,11.1221,11.1221,11.1221,11.1221,11.0193,10.8909,10.7404,10.2412,9.6979,9.2097,8.7545,8.4609,8.4315,8.4278,8.582,8.9748,9.0519,9.0152,8.861,8.9564,8.9931,8.9234,9.2207,9.4336,9.5254,9.8484,10.1017,10.2705,10.2301,10.2191,10.2081,10.0099,9.9108,9.9113,9.9065,9.9007,9.9122,10.0595,10.1289,10.1289,10.1289,10.1289,10.1289,10.1289,10.1289,10.1289,10.1289,10.0589,9.9493,10.4396,10.4667,10.5174,10.6595,10.69,10.69,10.69,10.8049,10.9425,11.0768,11.1515,11.2387,11.3838,11.2581,11.1833,11.2016,11.1979,11.1703,11.1221,11.1221,11.1221,11.1221,11.1221,11.1221,11.1221,11.0487,10.9496,10.7991,10.7404,10.7404,10.7991,10.8064,10.8872,11.0193,11.0193,11.0597,11.1184,11.0487,11.0597,11.1111,11.0487,11.0597,11.1221,11.1221,11.1221,11.1221,11.1221,11.1221,11.1221,11.1221,11.1221,11.1221,11.1221,11.1221,11.1221,11.1221,11.1295,11.1698,11.3203,11.3681,11.3901,11.4488,11.3497,11.2396,11.2212,11.1698,11.1221,11.1221,11.1221,11.1221,11.1221,10.979,10.7807,10.5201,9.9512,9.3896,8.9491,8.571,8.4609,8.7802,8.8977,9.1473,9.6575,9.6832,9.5951,9.4153,9.4813,9.4556,9.2794,9.5988,9.8007,9.8227,10.0503,10.2081,10.2889,10.2081,10.1677,10.1677,10.0099,9.9218,9.9113,9.9178,9.912,9.9122,10.0595,10.1289,10.1289,10.1289,10.1289,10.1289,10.1289,10.1289,10.1289,10.1289,10.0798,9.9949,10.4396,10.4667,10.5174,10.6595,10.69,10.69,10.69,10.7134,10.7619,10.8557,10.8677,10.9154,10.9944,10.9233,10.9191,11.0378,10.9861,11.0014,11.1096,11.1221,11.1221,11.1221,11.1221,11.1221,11.1221,11.1111,11.0597,10.9606,11.0193,11.0193,10.9606,11.0304,11.0817,11.1001,11.1001,11.1111,11.1221,11.1111,11.1111,11.1221,11.1111,11.1111,11.1221,11.1221,11.1221,11.1221,11.1221,11.1221,11.1221,11.1221,11.1221,11.1221,11.1221,11.1221,11.1221,11.1221,11.1698,11.2396,11.3277,11.4084,11.4488,11.3901,11.3093,11.2212,11.1515,11.1295,11.1221,11.1221,11.1221,11.1221,11.1221,10.9312,10.678,10.3586,9.5437,8.8793,8.6664,8.4646,8.4572,8.7802,9.2464,9.6282,9.8521,9.7493,9.7126,9.8117,9.5878,9.5217,9.6869,9.7566,9.8521,9.9879,10.1604,10.2889,10.3696,10.2889,10.2522,10.2522,10.0907,9.9769,9.915,9.9712,9.9649,9.9122,10.0595,10.1289,10.1289,10.1289,10.1289,10.1289,10.1289,10.1289,10.1289,10.1289,10.0375,9.9291,10.3889,10.4396,10.5005,10.6088,10.6595,10.69,10.69,10.69,10.7328,10.848,10.8,10.7875,10.9106,10.8841,10.8753,10.953,10.992,11.0444,11.1221,11.1221,11.1221,11.1221,11.1221,11.1001,11.0597,11.0597,11.0193,10.9386,10.9276,10.9496,10.9973,10.99,11.0414,11.1221,11.1221,11.1221,11.1221,11.0707,11.0817,11.1184,11.0707,11.0817,11.1221,11.1221,11.1221,11.1221,11.1221,11.1221,11.1221,11.1221,11.1221,11.1221,11.1221,11.1221,11.1221,11.1221,11.2102,11.3093,11.3497,11.3901,11.3974,11.3203,11.2286,11.1698,11.1295,11.1221,11.1221,11.1221,11.1221,11.1111,11.0597,10.8909,10.6082,10.1494,9.4813,8.9601,8.7986,8.6738,8.7655,9.2244,9.5878,9.8814,10.0796,9.9585,9.8778,9.9071,9.7309,9.6722,9.7823,9.83,9.9071,10.0283,10.1898,10.2889,10.3293,10.2485,10.2328,10.2721,10.1537,10.0829,10.0389,10.0709,10.0412,9.9706,10.0765,10.1289,10.1289,10.1289,10.1019,10.0712,10.1096,10.1019,10.0712,10.1096,10.029,9.9122,10.3686,10.4295,10.4971,10.5885,10.6494,10.69,10.69,10.69,10.723,10.8012,10.7105,10.6701,10.7624,10.7588,10.7838,10.8418,10.9511,11.0481,11.1221,11.1221,11.1221,11.1221,11.1221,11.0891,11.0304,11.0304,11.001,10.9386,10.8688,10.8982,10.9973,10.9606,10.99,11.0891,11.1111,11.1221,11.1184,11.0487,11.0597,11.1111,11.0487,11.0597,11.1221,11.1221,11.1221,11.1221,11.1221,11.1221,11.1221,11.1221,11.1221,11.1221,11.1221,11.1221,11.1221,11.1221,11.2212,11.3277,11.3277,11.3497,11.3387,11.2579,11.1808,11.1221,11.1221,11.1221,11.1221,11.1221,11.1221,11.1001,11.0377,10.8799,10.5678,10.0026,9.5217,9.1583,8.9931,8.9307,9.1069,9.6612,9.8851,10.0723,10.2815,10.1714,10.0613,9.9989,9.9181,9.8741,9.8741,9.9328,9.9952,10.0576,10.1788,10.2522,10.2705,10.1898,10.178,10.2388,10.1973,10.1563,10.1219,10.1491,10.11,10.0195,10.1008,10.1289,10.1289,10.1289,10.0904,10.0404,10.1096,10.0904,10.0481,10.1096,10.0421,9.9401,10.4295,10.4667,10.5107,10.6595,10.69,10.69,10.69,10.69,10.656,10.5137,10.4964,10.4421,10.3125,10.3015,10.4055,10.6665,10.7061,10.8353,11.097,11.1221,11.1221,11.1221,11.1221,11.1221,11.1111,11.1111,11.1111,11.1001,11.1001,11.0597,10.9973,11.0707,11.0707,11.0083,11.0891,11.1221,11.1221,11.1111,11.1111,11.1221,11.1111,11.1111,11.1221,11.1221,11.1221,11.1221,11.1221,11.1221,11.1221,11.1221,11.1221,11.1221,11.1221,11.1221,11.1221,11.1221,11.1808,11.2506,11.2506,11.2983,11.3387,11.2579,11.1808,11.1221,11.1221,11.1221,11.1221,11.1221,11.1221,11.1221,11.1111,10.9202,10.5678,10.0026,9.5658,9.2427,9.0739,9.1106,9.3382,9.8337,10.1017,10.2815,10.3696,10.2999,10.2522,10.2412,10.1677,10.12,10.12,10.1274,10.1384,10.1384,10.1494,10.1898,10.2705,10.1898,10.1538,10.1617,10.2278,10.1779,10.0389,10.1919,10.171,10.0195,10.1008,10.1289,10.1289,10.1289,10.1289,10.1212,10.1289,10.1289,10.1212,10.1289,10.0804,10.0185,10.3787,10.4396,10.5005,10.602,10.6595,10.6697,10.6291,10.6223,10.5885,10.4802,10.4295,10.3787,10.3212,10.3564,10.416,10.5354,10.626,10.7698,10.9643,10.9025,10.9318,11.1096,11.1221,11.1221,11.1221,11.1221,11.1221,11.1221,11.0707,11.0597,11.0707,11.0487,11.0597,11.0781,11.1111,11.1221,11.1221,11.1221,11.1221,11.1221,11.1221,11.1221,11.1221,11.1221,11.1221,11.1221,11.1221,11.1221,11.1221,11.1221,11.1221,11.1221,11.1221,11.1221,11.1221,11.1221,11.1808,11.2286,11.1808,11.2212,11.2689,11.1882,11.1405,11.1221,11.1221,11.1221,11.1221,11.1221,11.1221,11.1001,11.0487,10.9276,10.678,10.2118,9.9622,9.7566,9.5437,9.6245,9.8117,10.1017,10.2595,10.3806,10.4614,10.3917,10.3219,10.2705,10.2412,10.2191,10.2191,10.2191,10.2008,10.1494,10.1494,10.1604,10.1971,10.1677,10.1776,10.2167,10.2643,10.2093,10.1108,10.1711,10.0992,9.9493,10.0319,10.0633,10.0672,10.1091,10.1019,10.0596,10.1096,10.1019,10.0596,10.1096,10.0765,10.0319,10.3787,10.4363,10.4971,10.5986,10.6392,10.6392,10.5885,10.5614,10.5208,10.4464,10.3889,10.3483,10.328,10.369,10.4073,10.4639,10.5469,10.6665,10.8215,10.7382,10.7906,11.0408,11.0536,11.0536,11.0536,11.1007,11.1007,11.0536,11.042,11.0487,11.0817,11.0487,11.0487,11.0817,11.1111,11.1221,11.1221,11.1221,11.1221,11.1221,11.1221,11.1221,11.1221,11.1221,11.1221,11.1221,11.1221,11.1221,11.1221,11.1221,11.1221,11.1221,11.1221,11.1221,11.1221,11.1221,11.1588,11.1919,11.1295,11.1588,11.1992,11.1698,11.1405,11.1295,11.1515,11.1405,11.1221,11.1221,11.1221,11.1001,11.0487,10.9679,10.7991,10.4394,10.3182,10.1898,9.9695,10.0576,10.1898,10.3293,10.421,10.4908,10.5495,10.4798,10.4027,10.3513,10.3219,10.2999,10.2705,10.2705,10.2301,10.1494,10.1494,10.1384,10.109,10.109,10.1338,10.161,10.2085,10.1824,10.0794,10.1302,10.0592,9.9065,9.9847,10.0125,9.9898,10.0928,10.0785,10.0202,10.0979,10.1019,10.0481,10.1096,10.1008,10.0633,10.4396,10.4667,10.5174,10.6595,10.6291,10.5817,10.5817,10.5174,10.4396,10.3686,10.3585,10.3314,10.2603,10.2502,10.3073,10.4555,10.4639,10.5158,10.6701,10.681,10.7417,10.889,10.8989,10.8989,10.8989,11.0408,11.0481,10.8989,11.0481,11.0817,10.9973,11.0817,11.0781,11.001,11.0817,11.1221,11.1221,11.1221,11.1221,11.1221,11.1221,11.1221,11.1221,11.1221,11.1221,11.1221,11.1221,11.1221,11.1221,11.1221,11.1221,11.1221,11.1221,11.1221,11.1221,11.1221,11.1221,11.1221,11.1221,11.1221,11.1405,11.2212,11.1808,11.1405,11.2212,11.1808,11.1221,11.1221,11.1221,11.1221,11.1221,11.0487,10.9202,10.678,10.5715,10.4614,10.2999,10.3403,10.421,10.5018,10.5899,10.6376,10.6376,10.5605,10.5128,10.5128,10.4394,10.3513,10.2705,10.2705,10.2301,10.1494,10.1494,10.109,10.0283,10.0283,9.9916,9.9108,10.0684,10.0624,9.9134,10.0719,10.063,9.9065,9.9847,9.9706,9.9122,10.0716,10.0885,10.0319,10.1011,10.1289,10.1289,10.1289,10.1289,10.1212,10.372,10.4295,10.4802,10.5276,10.558,10.5479,10.4396,10.4092,10.3686,10.2908,10.2806,10.2705,10.2502,10.2502,10.2759,10.3166,10.3132,10.3348,10.3844,10.4758,10.5539,10.5924,10.6918,10.7488,10.7488,10.7906,10.8418,10.8989,10.9378,11.0113,11.0817,11.1111,11.1111,11.0891,11.1111,11.1221,11.1221,11.1221,11.1221,11.1221,11.1221,11.1221,11.1221,11.1221,11.1221,11.1221,11.1221,11.1221,11.1221,11.1221,11.1221,11.1221,11.1221,11.1221,11.1295,11.1919,11.1625,11.1295,11.1919,11.1588,11.1295,11.1515,11.1405,11.1295,11.1515,11.1405,11.1221,11.1221,11.1221,11.1221,11.1221,11.1001,11.0414,10.9092,10.8211,10.7294,10.6302,10.5899,10.5715,10.6009,10.6192,10.6376,10.6376,10.6192,10.5789,10.5128,10.4394,10.3513,10.2705,10.2705,10.2301,10.1494,10.1494,10.0796,9.9475,9.9989,9.9916,9.9108,9.9603,9.9277,9.8244,9.8762,9.8388,9.7459,9.8188,9.8712,9.9065,10.0098,10.0678,10.097,10.1171,10.1289,10.1289,10.1289,10.1289,10.1212,10.3483,10.399,10.4363,10.4599,10.4802,10.4599,10.372,10.3382,10.3009,10.2603,10.2502,10.2502,10.2502,10.2502,10.2502,10.2502,10.2502,10.2502,10.2502,10.3257,10.381,10.381,10.4639,10.5424,10.5924,10.7133,10.7767,10.8077,10.9318,11.0279,11.1221,11.1221,11.1221,11.1221,11.1221,11.1221,11.1221,11.1221,11.1221,11.1221,11.1221,11.1221,11.1221,11.1221,11.1221,11.1221,11.1221,11.1221,11.1221,11.1221,11.1221,11.1221,11.1221,11.1221,11.1295,11.1808,11.1588,11.1295,11.1808,11.1588,11.1221,11.1221,11.1221,11.1295,11.1588,11.1405,11.1221,11.1221,11.1221,11.1111,11.0817,11.1001,11.0817,10.9679,10.9092,10.8505,10.7697,10.689,10.6376,10.6376,10.6082,10.5899,10.5899,10.5605,10.5091,10.421,10.399,10.3403,10.2301,10.1898,10.1677,10.1494,10.12,10.0393,9.9108,9.9585,9.9255,9.8154,9.8484,9.819,9.7419,9.775,9.7456,9.6762,9.7492,9.8058,9.8591,9.9706,10.0497,10.0928,10.121,10.0901,10.0386,10.0386,10.0218,9.9725,10.3382,10.3585,10.3787,10.4396,10.399,10.3585,10.3483,10.2908,10.2502,10.2502,10.2502,10.2502,10.2502,10.2502,10.2502,10.2502,10.2502,10.2502,10.2502,10.2502,10.2502,10.2502,10.2502,10.3166,10.4639,10.7205,10.7974,10.681,10.9643,11.1133,11.1221,11.1221,11.1221,11.1221,11.1221,11.1221,11.1221,11.1221,11.1221,11.1221,11.1221,11.1221,11.1221,11.1221,11.1221,11.1221,11.1221,11.1221,11.1221,11.1221,11.1221,11.1221,11.1221,11.1221,11.1221,11.1295,11.1295,11.1221,11.1295,11.1295,11.1221,11.1221,11.1221,11.1405,11.2102,11.1698,11.1221,11.1221,11.1221,11.1001,11.0083,11.0597,11.0597,10.9019,10.8688,10.8395,10.7697,10.689,10.6376,10.6376,10.5605,10.5128,10.5128,10.4394,10.3586,10.2889,10.3403,10.3182,10.1677,10.0796,10.0613,10.1384,10.0613,9.9805,9.8998,9.8998,9.8227,9.6722,9.7419,9.7419,9.6722,9.7456,9.7383,9.6762,9.7422,9.7763,9.7927,9.927,9.9923,10.0032,10.0617,9.9989,9.8802,9.8802,9.8324,9.7479,10.2705,10.3212,10.3483,10.3009,10.3314,10.3382,10.2806,10.2603,10.2502,10.2502,10.2502,10.2502,10.2502,10.2502,10.2502,10.2502,10.2502,10.2502,10.2502,10.2502,10.2502,10.2502,10.2502,10.3166,10.4639,10.5239,10.5959,10.681,10.8555,11.013,11.1221,11.1221,11.1221,11.1221,11.1221,11.1221,11.1221,11.1221,11.1221,11.1221,11.1221,11.1221,11.1221,11.1221,11.1221,11.1221,11.1221,11.1221,11.1221,11.1221,11.1221,11.1221,11.1221,11.1221,11.1295,11.1992,11.1698,11.1295,11.1992,11.1698,11.1221,11.1221,11.1221,11.1221,11.1405,11.1295,11.1221,11.1221,11.1221,11.1001,11.0083,11.0083,10.99,10.8982,10.8285,10.7771,10.7587,10.689,10.6376,10.6376,10.5605,10.5128,10.5128,10.4394,10.3806,10.3696,10.3219,10.2815,10.2485,10.109,10.0393,10.0576,9.9769,9.8961,9.8154,9.8154,9.7676,9.6685,9.6869,9.6869,9.6722,9.6869,9.6869,9.6685,9.6877,9.7245,9.7756,9.7478,9.7734,9.8269,9.7787,9.7408,9.7096,9.7096,9.7041,9.68,10.2502,10.2806,10.2976,10.2603,10.2806,10.2908,10.2603,10.2502,10.2502,10.2502,10.2502,10.2502,10.2502,10.2502,10.2502,10.2502,10.2502,10.2502,10.2502,10.2502,10.2502,10.2502,10.2502,10.3166,10.4639,10.5274,10.6371,10.7835,10.9282,11.0408,11.1221,11.1221,11.1221,11.1221,11.1221,11.1221,11.1221,11.1221,11.1221,11.1221,11.1221,11.1221,11.1221,11.1221,11.1221,11.1221,11.1221,11.1221,11.1221,11.1221,11.1221,11.1221,11.1221,11.1221,11.1295,11.1698,11.1515,11.1295,11.1698,11.1515,11.1221,11.1221,11.1221,11.1221,11.1221,11.1221,11.1221,11.1221,11.0891,11.0414,10.9606,10.9386,10.8982,10.7807,10.7587,10.7477,10.7073,10.667,10.6192,10.5789,10.5018,10.421,10.3513,10.3293,10.3182,10.2779,10.2705,10.2522,10.2118,10.0613,9.9916,10.0283,9.9145,9.8337,9.7897,9.7897,9.7493,9.6685,9.6685,9.6685,9.6685,9.6685,9.6685,9.6685,9.6685,9.7101,9.7756,9.6936,9.7043,9.7687,9.6913,9.612,9.5488,9.5488,9.5221,9.4942,10.2502,10.2502,10.2502,10.2502,10.2502,10.2502,10.2502,10.2502,10.2502,10.2502,10.2502,10.2502,10.2502,10.2502,10.2631,10.2785,10.2563,10.2502,10.2502,10.2502,10.2502,10.2502,10.2502,10.3257,10.4924,10.6184,10.7558,10.8989,11.0444,11.1221,11.1221,11.1221,11.1221,11.1221,11.1221,11.1221,11.1221,11.1221,11.1221,11.1221,11.1221,11.1221,11.1221,11.1221,11.1221,11.1221,11.1221,11.1221,11.1221,11.1221,11.1221,11.1221,11.1221,11.1221,11.1221,11.1221,11.1111,11.1001,11.1184,11.1111,11.1001,11.1221,11.1221,11.1221,11.1221,11.1221,11.1184,11.1001,11.0487,10.9679,10.8799,10.8578,10.8101,10.6596,10.7,10.7073,10.6302,10.6192,10.5899,10.5018,10.421,10.3109,10.1604,10.2081,10.2191,10.1567,10.2081,10.2118,10.131,9.9916,9.9365,9.9879,9.8447,9.7676,9.7676,9.7676,9.7346,9.6685,9.6685,9.6685,9.6685,9.6685,9.6685,9.6685,9.6685,9.6953,9.7297,9.6548,9.65,9.6922,9.6095,9.4921,9.376,9.376,9.3509,9.3088,10.2502,10.2502,10.2502,10.2502,10.2502,10.2502,10.2502,10.2502,10.2502,10.2502,10.2502,10.2502,10.2502,10.2502,10.3039,10.4194,10.3257,10.2502,10.2502,10.2502,10.2502,10.2502,10.2502,10.3844,10.6446,10.6701,10.7558,10.8989,11.0444,11.1221,11.1221,11.1221,11.1221,11.1221,11.1221,11.1221,11.1221,11.1221,11.1221,11.1221,11.1221,11.1221,11.1221,11.1221,11.1221,11.1221,11.1221,11.1221,11.1221,11.1221,11.1221,11.1221,11.1221,11.1221,11.1221,11.1221,11.0707,11.0304,11.1001,11.0707,11.0304,11.1001,11.1221,11.1221,11.1221,11.1221,11.1001,11.0304,11.0083,10.9496,10.7991,10.7771,10.7477,10.6486,10.6486,10.6302,10.5422,10.5311,10.5018,10.421,10.3403,10.2485,10.1604,10.1604,10.1604,10.1494,10.1604,10.131,10.0503,9.9622,9.8814,9.8227,9.7346,9.6869,9.6869,9.6869,9.6795,9.6685,9.6685,9.6685,9.6685,9.6685,9.6685,9.6685,9.6685,9.6358,9.5773,9.4964,9.4264,9.3671,9.2823,9.2347,9.213,9.213,9.2573,9.2978,10.2502,10.2502,10.2502,10.2502,10.2502,10.2502,10.2502,10.2502,10.2502,10.2502,10.2502,10.2819,10.3563,10.3687,10.3563,10.3439,10.2853,10.2502,10.2502,10.2502,10.2502,10.2502,10.2502,10.3507,10.5469,10.6371,10.7558,10.8989,11.0444,11.1221,11.1221,11.1221,11.1221,11.1221,11.1221,11.1221,11.1221,11.1221,11.1221,11.1221,11.1221,11.1221,11.1221,11.1221,11.1221,11.1221,11.1221,11.1221,11.1221,11.1221,11.1221,11.1221,11.1221,11.1221,11.1221,11.1221,11.0597,11.0193,11.1001,11.0597,11.0193,11.1001,11.1221,11.1111,11.0597,11.0487,11.0414,11.0083,10.9276,10.8395,10.7697,10.7183,10.678,10.6486,10.6009,10.5495,10.5201,10.4724,10.41,10.3293,10.2485,10.1677,10.0907,10.12,10.1274,10.0907,10.12,10.109,10.0319,9.9548,9.8741,9.7933,9.7126,9.6685,9.6685,9.6685,9.6685,9.6685,9.6685,9.6685,9.6685,9.6685,9.6685,9.6685,9.6208,9.5841,9.5401,9.4153,9.3418,9.3015,9.2134,9.1803,9.1803,9.1803,9.2648,9.3565]},{"header":{"parameterUnit":"m.s-1","parameterCategory":1,"la1":30.6,"la2":28.766,"lo1":-90.7593,"lo2":-88.6598,"dy":0.0162,"dx":0.0183,"nx":116,"ny":114,"refTime":"2023-03-12T06:00:00:Z","depth":0,"parameterNumber":3,"parameterNumberName":"V-component_of_WINDS"},"data":[0.0,0.0,0.0,0.0,0.0,0.0,0.0,0.0,0.0,0.0,0.0,0.0,0.0,0.0,0.0,0.0,0.0,0.0,0.0,0.0,0.0,0.0,0.0,0.0,0.0,0.0,0.0,0.0,0.0,0.0,0.0,0.0,0.0,0.0,0.0,0.0,0.0,0.0,0.0,0.0,0.0,0.0,0.0,0.0,0.0,0.0,0.0,0.0,0.0,0.0,0.0,0.0,0.0,0.0,0.0,0.0,0.0,0.0,0.0,0.0,0.0,0.0,0.0,0.0,0.0,0.0,0.0,0.0,0.0,0.0,0.0,0.0,0.0,0.0,0.0,0.0,0.0,0.0,0.0,0.0,0.0,0.0,0.0,0.0,0.0,0.0,0.0,0.0,0.0,0.0,0.0,0.0,0.0,0.0,0.0,0.0,0.0,0.0,0.0,0.0,0.0,0.0,0.0,0.0,0.0,0.0,0.0,0.0,0.0,0.0,0.0,0.0,0.0,0.0,0.0,0.0,0.0,0.0,0.0,0.0,0.0,0.0,0.0,0.0,0.0,0.0,0.0,0.0,0.0,0.0,0.0,0.0,0.0,0.0,0.0,0.0,0.0,0.0,0.0,0.0,0.0,0.0,0.0,0.0,0.0,0.0,0.0,0.0,0.0,0.0,0.0,0.0,0.0,0.0,0.0,0.0,0.0,0.0,0.0,0.0,0.0,0.0,0.0,0.0,0.0,0.0,0.0,0.0,0.0,0.0,0.0,0.0,0.0,0.0,0.0,0.0,0.0,0.0,0.0,0.0,0.0,0.0,0.0,0.0,0.0,0.0,0.0,0.0,0.0,0.0,0.0,0.0,0.0,0.0,0.0,0.0,0.0,0.0,0.0,0.0,0.0,0.0,0.0,0.0,0.0,0.0,0.0,0.0,0.0,0.0,0.0,0.0,0.0,0.0,0.0,0.0,0.0,0.0,0.0,0.0,0.0,0.0,0.0,0.0,0.0,0.0,0.0,0.0,0.0,0.0,0.0,0.0,0.0,0.0,0.0,0.0,0.0,0.0,0.0,0.0,0.0,0.0,0.0,0.0,0.0,0.0,0.0,0.0,0.0,0.0,0.0,0.0,0.0,0.0,0.0,0.0,0.0,0.0,0.0,0.0,0.0,0.0,0.0,0.0,0.0,0.0,0.0,0.0,0.0,0.0,0.0,0.0,0.0,0.0,0.0,0.0,0.0,0.0,0.0,0.0,0.0,0.0,0.0,0.0,0.0,0.0,0.0,0.0,0.0,0.0,0.0,0.0,0.0,0.0,0.0,0.0,0.0,0.0,0.0,0.0,0.0,0.0,0.0,0.0,0.0,0.0,0.0,0.0,0.0,0.0,0.0,0.0,0.0,0.0,0.0,0.0,0.0,0.0,0.0,0.0,0.0,0.0,0.0,0.0,0.0,0.0,0.0,0.0,0.0,0.0,0.0,0.0,0.0,0.0,0.0,0.0,0.0,0.0,0.0,0.0,0.0,0.0,0.0,0.0,0.0,0.0,0.0,0.0,0.0,0.0,0.0,0.0,0.0,0.0,0.0,0.0,0.0,0.0,0.0,0.0,0.0,0.0,0.0,0.0,0.0,0.0,0.0,0.0,0.0,0.0,0.0,0.0,0.0,0.0,0.0,0.0,0.0,0.0,0.0,0.0,0.0,0.0,0.0,0.0,0.0,0.0,0.0,0.0,0.0,0.0,0.0,0.0,0.0,0.0,0.0,0.0,0.0,0.0,0.0,0.0,0.0,0.0,0.0,0.0,0.0,0.0,0.0,0.0,0.0,0.0,0.0,0.0,0.0,0.0,0.0,0.0,0.0,0.0,0.0,0.0,0.0,0.0,0.0,0.0,0.0,0.0,0.0,0.0,0.0,0.0,0.0,0.0,0.0,0.0,0.0,0.0,0.0,0.0,0.0,0.0,0.0,0.0,0.0,0.0,0.0,0.0,0.0,0.0,0.0,0.0,0.0,0.0,0.0,0.0,0.0,0.0,0.0,0.0,0.0,0.0,0.0,0.0,0.0,0.0,0.0,0.0,0.0,0.0,0.0,0.0,0.0,0.0,0.0,0.0,0.0,0.0,0.0,0.0,0.0,0.0,0.0,0.0,0.0,0.0,0.0,0.0,0.0,0.0,0.0,0.0,0.0,0.0,0.0,0.0,0.0,0.0,0.0,0.0,0.0,0.0,0.0,0.0,0.0,0.0,0.0,0.0,0.0,0.0,0.0,0.0,0.0,0.0,0.0,0.0,0.0,0.0,0.0,0.0,0.0,0.0,0.0,0.0,0.0,0.0,0.0,0.0,0.0,0.0,0.0,0.0,0.0,0.0,0.0,0.0,0.0,0.0,0.0,0.0,0.0,0.0,0.0,0.0,0.0,0.0,0.0,0.0,0.0,0.0,0.0,0.0,0.0,0.0,0.0,0.0,0.0,0.0,0.0,0.0,0.0,0.0,0.0,0.0,0.0,0.0,0.0,0.0,0.0,0.0,0.0,0.0,0.0,0.0,0.0,0.0,0.0,0.0,0.0,0.0,0.0,0.0,0.0,0.0,0.0,0.0,0.0,0.0,0.0,0.0,0.0,0.0,0.0,0.0,0.0,0.0,0.0,0.0,0.0,0.0,0.0,0.0,0.0,0.0,0.0,0.0,0.0,0.0,0.0,0.0,0.0,0.0,0.0,0.0,0.0,0.0,0.0,0.0,0.0,0.0,0.0,0.0,0.0,0.0,0.0,0.0,0.0,0.0,0.0,0.0,0.0,0.0,0.0,0.0,0.0,0.0,0.0,0.0,0.0,0.0,0.0,0.0,0.0,0.0,0.0,0.0,0.0,0.0,0.0,0.0,0.0,0.0,0.0,0.0,0.0,0.0,0.0,0.0,0.0,0.0,0.0,0.0,0.0,0.0,0.0,0.0,0.0,0.0,0.0,0.0,0.0,0.0,0.0,0.0,0.0,0.0,0.0,0.0,0.0,0.0,0.0,0.0,0.0,0.0,0.0,0.0,0.0,0.0,0.0,0.0,0.0,0.0,0.0,0.0,0.0,0.0,0.0,0.0,0.0,0.0,0.0,0.0,0.0,0.0,0.0,0.0,0.0,0.0,0.0,0.0,0.0,0.0,0.0,0.0,0.0,0.0,0.0,0.0,0.0,0.0,0.0,0.0,0.0,0.0,0.0,0.0,0.0,0.0,0.0,0.0,0.0,0.0,0.0,0.0,0.0,0.0,0.0,0.0,0.0,0.0,0.0,0.0,0.0,0.0,0.0,0.0,0.0,0.0,0.0,0.0,0.0,0.0,0.0,0.0,0.0,0.0,0.0,0.0,0.0,0.0,0.0,0.0,0.0,0.0,0.0,0.0,0.0,0.0,0.0,0.0,0.0,0.0,0.0,0.0,0.0,0.0,0.0,0.0,0.0,0.0,0.0,0.0,0.0,0.0,0.0,0.0,0.0,0.0,0.0,0.0,0.0,0.0,0.0,0.0,0.0,0.0,0.0,0.0,0.0,0.0,0.0,0.0,0.0,0.0,0.0,0.0,0.0,0.0,0.0,0.0,0.0,0.0,0.0,0.0,0.0,0.0,0.0,0.0,0.0,0.0,0.0,0.0,0.0,0.0,0.0,0.0,0.0,0.0,0.0,0.0,0.0,0.0,0.0,0.0,0.0,0.0,0.0,0.0,0.0,0.0,0.0,0.0,0.0,0.0,0.0,0.0,0.0,0.0,0.0,0.0,0.0,0.0,0.0,0.0,0.0,0.0,0.0,0.0,0.0,0.0,0.0,0.0,0.0,0.0,0.0,0.0,0.0,0.0,0.0,0.0,0.0,0.0,0.0,0.0,0.0,0.0,0.0,0.0,0.0,0.0,0.0,0.0,0.0,0.0,0.0,0.0,0.0,0.0,0.0,0.0,0.0,0.0,0.0,0.0,0.0,0.0,0.0,0.0,0.0,0.0,0.0,0.0,0.0,0.0,0.0,0.0,0.0,0.0,0.0,0.0,0.0,0.0,0.0,0.0,0.0,0.0,0.0,0.0,0.0,0.0,0.0,0.0,0.0,0.0,0.0,0.0,0.0,0.0,0.0,0.0,0.0,0.0,0.0,0.0,0.0,0.0,0.0,0.0,0.0,0.0,0.0,0.0,0.0,0.0,0.0,0.0,0.0,0.0,0.0,0.0,0.0,0.0,0.0,0.0,0.0,0.0,0.0,0.0,0.0,0.0,0.0,0.0,0.0,0.0,0.0,0.0,0.0,0.0,0.0,0.0,0.0,0.0,0.0,0.0,0.0,0.0,0.0,0.0,0.0,0.0,0.0,0.0,0.0,0.0,0.0,0.0,0.0,0.0,0.0,0.0,0.0,0.0,0.0,0.0,0.0,0.0,0.0,0.0,0.0,0.0,0.0,0.0,0.0,0.0,0.0,0.0,0.0,0.0,0.0,0.0,0.0,0.0,0.0,0.0,0.0,0.0,0.0,0.0,0.0,0.0,0.0,0.0,0.0,0.0,0.0,0.0,0.0,0.0,0.0,0.0,0.0,0.0,0.0,0.0,0.0,0.0,0.0,0.0,0.0,0.0,0.0,0.0,0.0,0.0,0.0,0.0,0.0,0.0,0.0,0.0,0.0,0.0,0.0,0.0,0.0,0.0,0.0,0.0,0.0,0.0,0.0,0.0,0.0,0.0,0.0,0.0,0.0,0.0,0.0,0.0,0.0,0.0,0.0,0.0,0.0,0.0,0.0,0.0,0.0,0.0,0.0,0.0,0.0,0.0,0.0,0.0,0.0,0.0,0.0,0.0,0.0,0.0,0.0,0.0,0.0,0.0,0.0,0.0,0.0,0.0,0.0,0.0,0.0,0.0,0.0,0.0,0.0,0.0,0.0,0.0,0.0,0.0,0.0,0.0,0.0,0.0,0.0,0.0,0.0,0.0,0.0,0.0,0.0,0.0,0.0,0.0,0.0,0.0,0.0,0.0,0.0,0.0,0.0,0.0,0.0,0.0,0.0,0.0,0.0,0.0,0.0,0.0,0.0,0.0,0.0,0.0,0.0,0.0,0.0,0.0,0.0,0.0,0.0,0.0,0.0,0.0,0.0,0.0,0.0,0.0,0.0,0.0,0.0,0.0,0.0,0.0,0.0,0.0,0.0,0.0,0.0,0.0,0.0,0.0,0.0,0.0,0.0,0.0,0.0,0.0,0.0,0.0,0.0,0.0,0.0,0.0,0.0,0.0,0.0,0.0,0.0,0.0,0.0,0.0,0.0,0.0,0.0,0.0,0.0,0.0,0.0,0.0,0.0,0.0,0.0,0.0,0.0,0.0,0.0,0.0,0.0,0.0,0.0,0.0,0.0,0.0,0.0,0.0,0.0,0.0,0.0,0.0,0.0,0.0,0.0,0.0,0.0,0.0,0.0,0.0,0.0,0.0,0.0,0.0,0.0,0.0,0.0,0.0,0.0,0.0,0.0,0.0,0.0,0.0,0.0,0.0,0.0,0.0,0.0,0.0,0.0,0.0,0.0,0.0,0.0,0.0,0.0,0.0,0.0,0.0,0.0,0.0,0.0,0.0,0.0,0.0,0.0,0.0,0.0,0.0,0.0,0.0,0.0,0.0,0.0,0.0,0.0,0.0,0.0,0.0,0.0,0.0,0.0,0.0,0.0,0.0,0.0,0.0,0.0,0.0,0.0,0.0,0.0,0.0,0.0,0.0,0.0,0.0,0.0,0.0,0.0,0.0,0.0,0.0,0.0,0.0,0.0,0.0,0.0,0.0,0.0,0.0,0.0,0.0,0.0,0.0,0.0,0.0,0.0,0.0,0.0,0.0,0.0,0.0,0.0,0.0,0.0,0.0,0.0,0.0,0.0,0.0,0.0,0.0,0.0,0.0,0.0,0.0,0.0,0.0,0.0,0.0,0.0,0.0,0.0,0.0,0.0,0.0,0.0,0.0,0.0,0.0,0.0,0.0,0.0,0.0,0.0,0.0,0.0,0.0,0.0,0.0,0.0,0.0,0.0,0.0,0.0,0.0,0.0,0.0,0.0,0.0,0.0,0.0,0.0,0.0,0.0,0.0,0.0,0.0,0.0,0.0,1.2216,0.0,0.0,0.0,0.0,0.0,0.0,0.0,0.0,0.0,0.0,0.0,0.0,0.0,0.0,0.0,0.0,0.0,0.0,0.0,0.0,0.0,0.0,0.0,0.0,0.0,0.0,0.0,0.0,0.0,0.0,0.0,0.0,0.0,0.0,0.0,0.0,0.0,0.0,0.0,0.0,0.0,0.0,0.0,0.0,0.0,0.0,0.0,0.0,0.0,0.0,0.0,0.0,0.0,0.0,0.0,0.0,0.0,0.0,0.0,0.0,0.0,0.0,0.0,0.0,0.0,0.0,0.0,0.0,0.0,0.0,0.0,0.0,0.0,0.0,0.0,0.0,0.0,0.0,0.0,0.0,0.0,0.0,0.0,0.0,0.0,0.0,0.0,0.0,0.0,0.0,0.0,0.0,0.0,0.0,0.0,0.0,0.0,0.0,0.0,0.0,0.0,0.0,0.0,0.0,0.0,0.0,0.0,0.0,0.0,0.0,0.0,0.0,0.0,0.0,0.0,0.0,1.2657,0.0,0.0,0.0,0.0,0.0,0.0,0.0,0.0,0.0,0.0,0.0,0.0,0.0,0.0,0.0,0.0,0.0,0.0,0.0,0.0,0.0,0.0,0.0,0.0,0.0,0.0,0.0,0.0,0.0,0.0,0.0,0.0,0.0,0.0,0.0,0.0,0.0,0.0,0.0,0.0,0.0,0.0,0.0,0.0,0.0,0.0,0.0,0.0,0.0,0.0,0.0,0.0,0.0,0.0,0.0,0.0,0.0,0.0,0.0,0.0,0.0,0.0,0.0,0.0,0.0,0.0,0.0,0.0,0.0,0.0,0.0,0.0,0.0,0.0,0.0,0.0,0.0,0.0,0.0,0.0,0.0,0.0,0.0,0.0,0.0,0.0,0.0,0.0,0.0,0.0,0.0,0.0,0.0,0.0,0.0,0.0,0.0,0.0,0.0,0.0,0.0,0.0,0.0,0.0,0.0,0.0,0.0,0.0,1.4034,1.4258,1.459,1.4523,1.4441,1.4326,1.3953,1.339,1.2759,1.3078,0.0,0.0,0.0,0.0,0.0,0.0,0.0,0.0,0.0,0.0,0.0,0.0,0.0,0.0,0.0,0.0,0.0,0.0,0.0,0.0,0.0,0.0,0.0,0.0,0.0,0.0,0.0,0.0,0.0,0.0,0.0,0.0,0.0,0.0,0.0,0.0,0.0,0.0,0.0,0.0,0.0,0.0,0.0,0.0,0.0,0.0,0.0,0.0,0.0,0.0,0.0,0.0,0.0,0.0,0.0,0.0,0.0,0.0,0.0,0.0,0.0,0.0,0.0,0.0,0.0,0.0,0.0,0.0,0.0,0.0,0.0,0.0,0.0,0.0,0.0,0.0,0.0,0.0,0.0,0.0,0.0,0.0,0.0,0.0,0.0,0.0,1.1558,1.1457,0.0,0.0,0.0,0.0,0.0,0.0,0.0,0.0,0.0,0.0,0.0,0.0,0.0,1.3431,1.3804,1.4034,1.4245,1.4428,1.4821,1.497,1.4916,1.5153,1.5323,1.5432,1.5371,0.0,1.3648,1.3451,0.0,0.0,0.0,0.0,0.0,0.0,0.0,0.0,0.0,0.0,0.0,0.0,0.0,0.0,0.0,0.0,0.0,0.0,0.0,0.0,0.0,0.0,0.0,0.0,0.0,0.0,0.0,0.0,0.0,0.0,0.0,0.0,0.0,0.0,0.0,0.0,0.0,0.0,0.0,0.0,0.0,0.0,0.0,0.0,0.0,0.0,0.0,0.0,0.0,0.0,0.0,0.0,0.0,0.0,0.0,0.0,0.0,0.0,0.0,0.0,0.0,0.0,0.0,0.0,0.0,0.0,0.0,0.0,0.0,0.0,0.0,0.0,0.0,0.0,0.0,0.0,0.0,0.0,0.0,0.0,0.0,0.0,0.0,0.0,0.0,1.1341,1.1748,1.1179,1.1762,1.1993,0.0,0.0,0.0,0.0,0.0,0.0,0.0,0.0,0.0,1.3349,1.396,1.438,1.4577,1.5059,1.5459,1.5771,1.5967,1.6117,1.6218,1.6273,1.6374,1.651,1.651,1.6117,1.5411,1.4611,1.4041,1.3641,0.0,0.0,0.0,0.0,1.3132,1.3254,0.0,0.0,0.0,0.0,0.0,0.0,0.0,0.0,0.0,0.0,0.0,0.0,0.0,0.0,0.0,0.0,0.0,0.0,0.0,0.0,0.0,0.0,0.0,0.0,0.0,0.0,0.0,0.0,0.0,0.0,0.0,0.0,0.0,0.0,0.0,0.0,0.0,0.0,0.0,0.0,0.0,0.0,0.0,0.0,0.0,0.0,0.0,0.0,0.0,0.0,0.0,0.0,0.0,0.0,0.0,0.0,0.0,0.0,0.0,0.0,0.0,0.0,0.0,0.0,0.0,0.0,0.0,0.0,0.0,0.0,0.0,0.0,0.0,0.0,0.0,0.0,0.0,1.1687,1.204,1.1219,1.2142,1.2535,0.0,0.0,0.0,0.0,0.0,0.0,1.3288,1.3831,1.4183,1.4299,1.4957,1.5404,1.5594,1.6144,1.6632,1.7039,1.7032,1.7148,1.7358,1.7256,1.7283,1.7419,1.7344,1.7202,1.6937,1.5703,1.4889,1.4373,1.396,1.3756,1.3695,1.377,1.3892,1.4027,0.0,0.0,0.0,0.0,0.0,0.0,0.0,0.0,0.0,0.0,0.0,0.0,0.0,0.0,0.0,0.0,0.0,0.0,0.0,0.0,0.0,0.0,0.0,0.0,0.0,0.0,0.0,0.0,0.0,0.0,0.0,0.0,0.0,0.0,0.0,0.0,0.0,0.0,0.0,0.0,0.0,0.0,0.0,0.0,0.0,0.0,0.0,0.0,0.0,0.0,0.0,0.0,0.0,0.0,0.0,0.0,0.0,0.0,0.0,0.0,0.0,0.0,0.0,0.0,0.0,0.0,0.0,0.0,0.0,0.0,0.0,0.0,0.0,0.0,0.0,0.0,0.0,0.0,0.0,1.2284,1.3139,0.0,0.0,0.0,0.0,1.3505,1.3824,1.4061,1.4224,1.4665,1.5113,1.5533,1.6001,1.6585,1.729,1.7331,1.7507,1.7812,1.7812,1.7812,1.7826,1.7826,1.7901,1.8036,1.7758,1.7704,1.7704,1.6361,1.5628,1.5269,1.455,1.4346,1.4441,1.4312,1.4353,1.4482,0.0,0.0,0.0,0.0,0.0,0.0,0.0,0.0,0.0,0.0,0.0,0.0,0.0,0.0,0.0,0.0,0.0,0.0,0.0,0.0,0.0,0.0,0.0,0.0,0.0,0.0,0.0,0.0,0.0,0.0,0.0,0.0,0.0,0.0,0.0,0.0,0.0,0.0,0.0,0.0,0.0,0.0,0.0,0.0,0.0,0.0,0.0,0.0,0.0,0.0,0.0,0.0,0.0,0.0,0.0,0.0,0.0,0.0,0.0,0.0,0.0,0.0,0.0,0.0,0.0,0.0,0.0,0.0,0.0,0.0,0.0,0.0,0.0,0.0,0.0,0.0,0.0,0.0,0.0,1.3451,1.436,0.0,1.3871,1.3892,1.4068,1.4326,1.4801,1.5187,1.5432,1.5967,1.6422,1.6775,1.7032,1.7439,1.8002,1.8002,1.8145,1.8443,1.8443,1.8443,1.8443,1.8443,1.8477,1.8518,1.8301,1.8145,1.7968,1.7385,1.6741,1.6083,1.5622,1.5364,1.5242,1.5282,1.5391,1.5533,0.0,0.0,0.0,0.0,0.0,0.0,0.0,0.0,0.0,0.0,0.0,0.0,0.0,0.0,0.0,0.0,0.0,0.0,0.0,0.0,0.0,0.0,0.0,0.0,0.0,0.0,0.0,0.0,0.0,0.0,0.0,0.0,0.0,0.0,0.0,0.0,0.0,0.0,0.0,0.0,0.0,0.0,2.2937,0.0,0.0,0.0,0.0,0.0,0.0,0.0,0.0,0.0,0.0,0.0,0.0,0.0,0.0,0.0,0.0,0.0,0.0,0.0,0.0,0.0,0.0,0.0,0.0,0.0,0.0,0.0,0.0,0.0,0.0,0.0,0.0,0.0,0.0,0.0,1.4373,1.4373,1.5303,1.5662,1.4957,1.5072,1.5276,1.5479,1.6049,1.6497,1.6748,1.7188,1.7541,1.7792,1.7894,1.8158,1.862,1.862,1.8742,1.8993,1.8993,1.8959,1.8905,1.8905,1.8905,1.8905,1.8694,1.8464,1.8233,1.8023,1.7528,1.687,1.6571,1.6334,1.6171,1.6218,1.63,1.6402,0.0,0.0,0.0,0.0,0.0,0.0,0.0,0.0,0.0,0.0,0.0,0.0,0.0,0.0,0.0,0.0,0.0,0.0,0.0,0.0,0.0,0.0,0.0,0.0,0.0,0.0,0.0,0.0,0.0,0.0,0.0,0.0,0.0,0.0,0.0,0.0,0.0,0.0,0.0,0.0,0.0,0.0,2.3002,0.0,0.0,0.0,0.0,0.0,0.0,0.0,0.0,0.0,0.0,0.0,0.0,0.0,0.0,0.0,0.0,0.0,0.0,0.0,0.0,0.0,0.0,0.0,0.0,0.0,0.0,0.0,0.0,0.0,0.0,0.0,0.0,0.0,1.2976,1.4421,1.5343,1.5086,1.5954,1.6347,1.5771,1.6239,1.67,1.6998,1.7568,1.7968,1.8111,1.8267,1.8409,1.8552,1.8565,1.8776,1.9217,1.9217,1.9305,1.9447,1.9447,1.9379,1.9217,1.9217,1.9217,1.9203,1.8905,1.8694,1.8511,1.8213,1.7935,1.7629,1.7324,1.7202,1.7182,1.7046,1.6992,1.6985,0.0,0.0,0.0,0.0,0.0,0.0,0.0,0.0,0.0,0.0,0.0,0.0,0.0,0.0,0.0,0.0,0.0,0.0,0.0,0.0,0.0,0.0,0.0,0.0,0.0,0.0,0.0,0.0,0.0,0.0,0.0,0.0,0.0,0.0,0.0,0.0,0.0,0.0,0.0,0.0,0.0,0.0,2.5035,0.0,0.0,0.0,0.0,0.0,0.0,0.0,0.0,0.0,0.0,0.0,0.0,0.0,0.0,0.0,0.0,0.0,0.0,0.0,0.0,0.0,0.0,0.0,0.0,0.0,0.0,0.0,0.0,0.0,0.0,0.0,0.0,1.4597,1.4719,1.5499,1.6273,1.6842,1.7453,1.7717,1.7446,1.767,1.786,1.7948,1.8409,1.8694,1.8742,1.8884,1.9027,1.9183,1.9183,1.9345,1.9678,1.9698,1.9766,1.9922,1.9922,1.9834,1.9698,1.9698,1.9624,1.9522,1.9217,1.8938,1.8674,1.8375,1.8077,1.7792,1.7595,1.7453,1.7351,1.7311,1.7229,1.7121,0.0,0.0,0.0,0.0,0.0,0.0,0.0,0.0,0.0,0.0,0.0,0.0,0.0,0.0,0.0,0.0,0.0,0.0,0.0,0.0,0.0,0.0,0.0,0.0,0.0,0.0,0.0,0.0,0.0,0.0,0.0,0.0,0.0,0.0,0.0,0.0,0.0,0.0,0.0,0.0,0.0,0.0,2.7001,2.5474,2.4028,2.2785,2.1709,2.086,2.0113,1.8675,0.0,0.0,0.0,0.0,0.0,0.0,0.0,0.0,0.0,0.0,0.0,0.0,0.0,0.0,0.0,0.0,0.0,0.0,0.0,0.0,0.0,0.0,0.0,0.0,1.4808,1.5886,1.6456,1.6781,1.7222,1.7935,1.8301,1.8498,1.8477,1.8599,1.8708,1.8776,1.9149,1.9359,1.9359,1.9501,1.9624,1.9712,1.9712,1.982,2.0064,2.0064,2.0098,2.0187,2.0187,2.0119,1.9963,1.9908,1.982,1.9732,2.0845,2.0981,2.0668,2.0644,2.029,1.9692,0.0,0.0,0.0,0.0,1.7324,1.7168,0.0,0.0,0.0,0.0,0.0,0.0,0.0,0.0,0.0,0.0,0.0,0.0,0.0,0.0,0.0,0.0,0.0,0.0,0.0,0.0,0.0,0.0,0.0,0.0,0.0,0.0,0.0,0.0,0.0,0.0,0.0,0.0,0.0,0.0,0.0,0.0,0.0,0.0,0.0,0.0,0.0,0.0,2.8711,2.7883,2.6346,2.4529,2.4517,2.3424,2.193,2.1491,0.0,0.0,0.0,0.0,0.0,0.0,0.0,0.0,0.0,0.0,0.0,0.0,0.0,0.0,0.0,0.0,0.0,0.0,0.0,0.0,0.0,0.0,0.0,0.0,1.5764,1.6754,1.8036,1.8111,1.8179,1.8586,1.8782,1.8938,1.9061,1.9203,1.9325,1.9468,1.9746,1.9929,1.9929,0.0,0.0,0.0,0.0,2.0227,2.0349,2.0349,2.0349,2.0349,2.0349,2.0275,2.0119,1.9976,1.9908,2.0107,2.2669,2.3489,2.3141,2.3386,2.344,2.2719,1.967,1.8302,1.8487,1.8401,1.8195,1.7614,0.0,0.0,0.0,0.0,0.0,0.0,0.0,0.0,0.0,0.0,2.2632,2.4102,0.0,0.0,0.0,0.0,0.0,0.0,0.0,0.0,0.0,0.0,0.0,0.0,0.0,0.0,0.0,0.0,0.0,0.0,0.0,0.0,0.0,0.0,0.0,0.0,0.0,0.0,0.0,0.0,0.0,0.0,2.998,2.9566,2.8711,2.7669,2.7656,2.7565,2.7174,2.4918,2.4359,2.4052,2.1234,0.0,0.0,0.0,0.0,0.0,0.0,0.0,0.0,0.0,0.0,0.0,0.0,0.0,0.0,0.0,0.0,0.0,0.0,0.0,0.0,1.556,1.6815,1.8002,1.8864,1.9061,1.9169,1.925,1.9501,1.9624,1.9535,1.9664,1.9752,1.9786,2.0064,2.0241,2.0241,2.0383,2.0451,2.0451,2.0451,2.0471,2.0505,2.0505,2.0505,2.0505,2.0505,0.0,2.0275,2.0261,2.0098,1.9854,2.0415,2.0388,2.0296,2.2314,2.465,2.6192,2.2785,2.1343,2.153,2.3879,2.3027,2.0939,0.0,0.0,0.0,0.0,0.0,0.0,0.0,0.0,0.0,0.0,2.1964,2.3153,2.3888,2.5291,2.6106,0.0,0.0,0.0,0.0,0.0,0.0,0.0,0.0,0.0,0.0,0.0,0.0,0.0,0.0,0.0,0.0,0.0,0.0,0.0,0.0,0.0,0.0,0.0,0.0,0.0,0.0,0.0,3.161,3.1022,3.0434,2.9913,2.9913,2.9913,2.9628,2.8173,2.7753,2.7324,2.442,2.2337,2.0605,0.0,0.0,0.0,0.0,0.0,0.0,0.0,0.0,0.0,0.0,0.0,0.0,0.0,0.0,1.3247,0.0,0.0,1.5995,1.6741,1.9383,2.0668,1.9592,2.113,2.1786,2.0017,1.9888,1.9997,1.9997,2.0119,2.0207,2.0207,2.0417,2.0526,2.0438,2.2004,2.2286,2.0539,2.2048,2.2301,2.0539,2.0539,2.1294,2.303,2.303,2.3748,2.5406,2.5296,2.5119,2.4831,2.6331,2.6675,2.6136,2.7113,2.829,2.9349,2.7352,2.5732,2.4702,2.5888,2.5263,2.3861,0.0,0.0,0.0,0.0,0.0,0.0,0.0,0.0,0.0,0.0,0.0,2.2191,2.2712,2.3794,2.4302,0.0,0.0,0.0,0.0,0.0,0.0,0.0,0.0,0.0,0.0,0.0,0.0,0.0,0.0,0.0,0.0,0.0,0.0,0.0,0.0,0.0,0.0,0.0,0.0,0.0,0.0,0.0,3.2986,3.2278,3.1784,3.1476,3.141,3.1102,3.0688,3.0568,3.0247,2.9548,2.7426,2.6117,2.4413,1.9775,1.9275,0.0,0.0,0.0,0.0,0.0,0.0,0.0,0.0,0.0,1.4999,1.5424,1.5381,1.555,1.6188,1.7257,1.8135,1.9,2.2637,2.4393,2.2153,2.4533,2.5279,2.2461,2.0949,2.0241,2.0363,2.0978,2.1534,2.1534,2.2157,2.2681,2.2547,2.503,2.5298,2.2547,2.5039,2.529,2.2547,2.2547,2.3779,2.652,2.652,2.778,3.0522,3.034,3.0118,3.0129,3.2517,3.3407,3.3101,3.222,3.2029,3.2616,3.2073,3.0685,2.8619,2.8145,2.7717,2.6772,0.0,0.0,0.0,0.0,0.0,0.0,0.0,0.0,0.0,0.0,0.0,0.0,0.0,0.0,0.0,0.0,0.0,0.0,0.0,0.0,0.0,0.0,0.0,0.0,0.0,0.0,0.0,0.0,0.0,0.0,0.0,0.0,0.0,0.0,0.0,0.0,0.0,0.0,0.0,0.0,0.0,0.0,3.3347,3.3253,3.2879,3.2358,3.2104,3.1316,3.0488,3.0969,3.0595,2.998,3.0146,2.8603,2.6093,2.2921,0.0,1.766,1.4211,1.4601,1.5713,1.572,1.7875,1.9943,0.0,0.0,2.171,2.2245,2.0825,1.9606,2.0054,2.1306,2.2481,2.2871,2.6575,2.907,2.9019,2.9796,3.0035,2.9713,2.4323,2.0505,2.0526,2.3275,2.503,2.503,2.7799,2.9297,2.9278,2.9776,2.9776,2.9278,2.9776,2.9776,2.9278,2.9278,2.9508,3.0005,3.0005,3.0025,3.0522,3.0492,3.0361,3.0128,3.0177,3.1256,3.3136,3.2784,3.4097,3.6326,3.5758,3.5318,3.5063,3.4489,3.2375,3.0236,0.0,0.0,0.0,0.0,0.0,0.0,0.0,0.0,0.0,0.0,0.0,0.0,0.0,0.0,0.0,0.0,0.0,0.0,2.6132,2.819,3.0154,0.0,0.0,0.0,0.0,0.0,0.0,0.0,0.0,0.0,0.0,0.0,0.0,0.0,0.0,0.0,0.0,0.0,0.0,0.0,0.0,0.0,3.3427,3.3614,3.3106,3.2225,3.1757,3.1169,0.0,0.0,3.0221,3.002,3.0608,2.895,2.613,2.3347,2.1286,0.0,1.7922,1.8217,0.0,0.0,2.148,2.3652,2.293,2.3465,2.4127,2.4893,2.4548,2.4497,2.5292,2.6009,2.6865,0.0,3.0597,3.2672,3.0771,3.2397,3.2937,3.0893,2.8067,2.6382,2.6845,2.7758,2.8738,2.887,3.0141,3.0846,3.0704,3.2829,3.2786,3.0522,3.2624,3.2635,3.0522,3.0522,3.1505,3.3494,3.3494,3.4479,3.6221,3.6221,3.6006,3.5586,3.4879,3.5328,3.6143,3.532,3.5896,3.6861,3.6112,3.5819,3.5778,3.5538,3.4385,3.3033,0.0,0.0,0.0,0.0,0.0,0.0,0.0,0.0,0.0,0.0,0.0,0.0,0.0,0.0,0.0,0.0,0.0,0.0,0.0,2.8444,3.0568,3.2572,3.3026,0.0,3.4002,3.4002,3.4108,3.4322,3.4402,3.4482,3.4563,0.0,0.0,0.0,0.0,0.0,0.0,0.0,0.0,0.0,0.0,0.0,3.3534,3.3521,3.2732,3.1557,3.1049,3.0354,0.0,0.0,2.8485,2.8126,2.9034,2.7536,2.4873,2.2367,2.04,1.9203,1.9761,0.0,0.0,2.2664,2.5323,2.7504,2.6515,2.7019,2.809,2.8972,2.9051,2.9211,2.9897,3.0517,3.1083,3.1649,3.4797,3.6401,3.4087,3.5873,3.6238,3.3438,3.3082,3.3236,3.3971,3.2915,3.2424,3.2689,3.3458,3.3886,3.371,3.6334,3.6228,3.3357,3.5956,3.5932,3.3269,3.3258,3.4491,3.6956,3.6956,3.8214,4.0481,4.0481,4.0147,3.9559,3.8905,3.8477,3.8183,3.7489,3.7128,3.6981,3.6273,3.5939,3.5859,3.5778,3.5511,3.494,0.0,0.0,0.0,0.0,0.0,0.0,0.0,0.0,0.0,0.0,0.0,0.0,0.0,0.0,0.0,0.0,0.0,0.0,0.0,2.807,3.0234,3.2853,3.3534,3.4002,3.4295,3.4309,3.4309,3.4322,3.4603,3.4897,3.5177,3.5458,3.5738,3.6006,0.0,0.0,0.0,0.0,0.0,0.0,0.0,0.0,3.3774,3.2919,3.1677,3.0381,3.006,0.0,0.0,0.0,2.5152,2.3622,2.4862,2.4329,0.0,2.0048,1.6879,0.0,0.0,0.0,2.2746,2.6236,2.9376,3.1877,3.2868,3.4023,3.5112,3.6015,3.4606,3.3304,3.3618,3.4522,3.5157,3.5415,3.8429,4.0637,4.0663,4.0677,4.0451,3.9867,3.9535,3.9614,0.0,3.7471,3.5967,3.6226,3.931,4.1088,4.1062,4.0823,4.0677,4.0624,4.0385,4.0238,4.0225,4.0225,4.0238,4.0454,4.0454,4.0468,4.0481,4.0481,4.0147,3.9599,3.9559,3.9052,3.8223,3.7929,3.7635,3.7342,3.7008,3.6727,3.6433,3.6166,3.5698,3.5191,0.0,0.0,0.0,0.0,0.0,0.0,0.0,0.0,0.0,0.0,0.0,0.0,0.0,0.0,0.0,0.0,0.0,0.0,0.0,2.7335,2.9499,3.1169,3.2759,3.3734,3.4028,3.4416,3.471,3.4897,3.5004,3.5204,3.5485,3.5578,3.5792,3.6072,3.5965,3.5819,0.0,0.0,0.0,0.0,0.0,0.0,3.3454,3.2158,3.0635,2.8804,0.0,0.0,0.0,0.0,0.0,0.0,2.1912,0.0,0.0,1.6147,0.0,0.0,0.0,0.0,2.6661,2.9711,3.193,3.3681,3.467,3.5645,3.654,3.7235,3.5253,3.3316,3.3775,3.4293,3.4694,3.5326,3.861,4.0976,4.1163,4.1376,4.1122,4.0147,4.0294,0.0,0.0,0.0,0.0,4.0001,4.0697,4.1416,4.163,4.171,4.1523,4.0949,4.1016,4.0869,4.0481,4.0481,4.0481,4.0481,4.0481,4.0481,4.0481,4.0254,3.996,3.9599,3.9372,3.9012,3.8544,3.8223,3.8036,3.7889,3.7195,3.6861,3.6727,3.6246,3.5819,3.5458,0.0,0.0,0.0,0.0,0.0,0.0,0.0,0.0,0.0,0.0,0.0,0.0,0.0,0.0,0.0,0.0,0.0,0.0,0.0,0.0,2.7896,2.9499,3.1049,3.2064,3.2465,3.2732,3.3066,3.3467,3.3681,3.4082,3.4683,3.5017,3.5378,3.5752,3.5645,3.5498,3.5311,3.5097,3.4603,3.3921,0.0,0.0,3.169,3.01,2.8182,0.0,0.0,0.0,0.0,0.0,0.0,0.0,0.0,0.0,0.0,0.0,0.0,0.0,0.0,2.6222,2.9269,3.2274,3.4002,3.5151,3.5925,3.6687,3.7368,3.7742,3.5374,3.342,3.3678,3.2956,3.2344,3.3202,3.5452,3.7695,3.9343,3.9538,3.9639,3.9853,4.0174,4.0174,0.0,0.0,0.0,4.1523,4.1563,4.1603,4.179,4.1964,4.1817,4.1243,4.1203,4.1016,4.0628,4.0615,4.0615,4.0615,4.0508,4.0481,4.0481,4.0294,4.004,3.9746,3.9559,3.9306,3.9012,3.8584,3.8437,3.8357,3.7555,3.7195,3.7048,3.654,3.6193,3.5885,0.0,0.0,0.0,0.0,0.0,0.0,0.0,0.0,0.0,0.0,0.0,0.0,0.0,0.0,0.0,0.0,0.0,0.0,0.0,0.0,0.0,2.7869,2.8617,2.9232,2.982,2.9593,2.974,3.0301,3.0849,3.169,3.2812,3.3668,3.4376,3.491,3.4643,3.4509,3.4456,3.3881,3.3133,3.2238,3.1076,2.994,2.8751,2.6974,0.0,0.0,0.0,0.0,0.0,0.0,0.0,0.0,0.0,0.0,0.0,0.0,0.0,2.0627,2.6498,2.8855,3.0594,3.3937,3.5525,3.6326,3.6861,3.7408,3.7809,3.7503,3.5361,3.3272,0.0,0.0,2.889,2.9885,3.0376,3.2137,3.6038,3.6326,3.7091,0.0,0.0,0.0,0.0,0.0,0.0,4.1269,0.0,4.179,4.1817,4.1817,4.179,4.179,4.1243,4.0949,4.0949,4.0909,4.0909,4.0909,4.0615,4.0481,4.0481,4.0481,4.0321,4.0027,4.0027,3.9853,3.9559,3.9012,3.8758,3.8691,3.8103,3.7676,3.7382,3.7088,3.6794,3.6433,0.0,0.0,0.0,0.0,0.0,0.0,0.0,0.0,0.0,0.0,0.0,0.0,0.0,0.0,0.0,0.0,0.0,0.0,0.0,0.0,0.0,0.0,0.0,0.0,0.0,0.0,0.0,0.0,0.0,2.986,3.0381,3.0608,3.0915,3.1263,3.1183,3.1036,3.0808,3.0434,3.002,2.9526,0.0,2.7989,2.7522,0.0,0.0,0.0,0.0,0.0,0.0,0.0,0.0,0.0,0.0,0.0,1.987,0.0,0.0,2.6665,2.8777,3.1841,3.4702,3.5872,3.6874,3.7676,3.7595,3.7889,3.7316,3.4875,3.1215,2.7849,0.0,0.0,0.0,2.9304,3.4154,0.0,4.0031,4.0605,0.0,0.0,0.0,4.0976,4.0615,4.0762,0.0,0.0,4.1416,4.163,4.2071,4.2111,4.2004,4.179,4.1644,4.1456,4.1229,4.1016,4.0909,4.0909,4.0615,4.0481,4.0481,4.0481,4.0321,4.0027,4.0027,3.9853,3.9599,3.9452,3.9239,3.9012,3.8651,3.829,3.7969,3.7448,3.7088,3.6754,0.0,0.0,0.0,0.0,0.0,0.0,0.0,0.0,0.0,0.0,0.0,0.0,0.0,0.0,0.0,0.0,0.0,0.0,0.0,0.0,0.0,0.0,0.0,0.0,0.0,0.0,0.0,0.0,0.0,0.0,0.0,2.8457,2.8738,2.9138,2.9138,2.8978,2.8684,0.0,0.0,0.0,0.0,0.0,0.0,0.0,0.0,0.0,0.0,0.0,0.0,0.0,0.0,1.9369,2.1144,2.2211,2.3007,2.5219,0.0,2.9947,3.2008,3.457,3.6767,3.7168,3.7889,3.8183,3.7088,3.6315,3.5094,3.185,2.7686,0.0,0.0,0.0,0.0,0.0,0.0,0.0,3.946,3.9923,4.0644,0.0,4.1857,0.0,4.135,4.1563,4.1737,0.0,4.1737,4.1857,4.2218,4.2325,4.2338,4.2191,4.1924,4.171,4.1523,4.1122,4.0976,4.1096,4.0695,4.0481,4.0481,4.0481,4.0401,4.0214,4.0214,4.0147,3.996,3.9853,3.9706,3.9493,3.9078,3.8731,3.8397,3.7929,3.7489,3.7128,0.0,0.0,0.0,0.0,0.0,0.0,0.0,0.0,0.0,0.0,0.0,0.0,0.0,0.0,0.0,0.0,0.0,0.0,0.0,0.0,0.0,0.0,0.0,0.0,0.0,0.0,0.0,0.0,0.0,0.0,0.0,0.0,0.0,0.0,0.0,0.0,0.0,0.0,0.0,0.0,0.0,0.0,0.0,0.0,0.0,0.0,0.0,0.0,0.0,0.0,2.244,2.2508,2.392,2.4731,2.603,2.9351,3.0675,3.1959,3.5336,3.6981,3.7742,3.829,3.8584,3.8183,3.6153,3.4218,3.1991,2.8845,0.0,2.1106,2.0086,2.1263,2.2775,2.4234,0.0,3.2816,3.7188,3.799,3.9288,4.2337,4.2512,4.2285,4.2004,4.2218,4.2365,4.2325,4.2405,4.2432,4.2325,4.2592,4.2699,4.2659,4.2111,4.1857,4.1857,4.1269,4.1096,4.1336,4.0802,4.0508,4.0481,4.0508,4.0508,4.0481,4.0481,4.0481,4.0441,4.0187,4.0067,4.0,3.9479,3.9092,3.8798,3.8437,3.7996,3.7555,0.0,0.0,0.0,0.0,0.0,0.0,0.0,0.0,0.0,0.0,1.9907,1.9653,0.0,0.0,0.0,0.0,0.0,0.0,0.0,0.0,0.0,0.0,0.0,0.0,0.0,0.0,0.0,0.0,0.0,0.0,0.0,0.0,0.0,0.0,0.0,0.0,0.0,0.0,0.0,0.0,0.0,0.0,0.0,0.0,0.0,0.0,0.0,0.0,0.0,0.0,2.5507,2.6844,2.9904,3.1451,3.2455,3.4425,3.5283,3.5983,3.7555,3.8357,3.8945,3.9279,3.9052,3.825,3.6393,3.3767,0.0,0.0,0.0,1.9447,1.688,1.9103,2.2994,2.7212,0.0,0.0,0.0,0.0,4.2266,0.0,0.0,0.0,0.0,0.0,0.0,0.0,4.342,4.3461,4.298,4.2993,4.2913,4.2659,4.2325,4.2151,4.2151,4.1563,4.131,4.1336,4.0989,4.0695,4.0481,4.0735,4.0695,4.0481,4.0481,4.0481,4.0481,4.0401,4.0254,4.0027,3.992,3.9706,3.9386,3.8838,3.8584,3.8437,0.0,0.0,0.0,0.0,0.0,0.0,0.0,0.0,1.992,2.0802,2.0935,2.0708,2.0107,1.9639,0.0,0.0,0.0,0.0,0.0,0.0,0.0,0.0,0.0,0.0,0.0,0.0,0.0,0.0,0.0,0.0,0.0,0.0,0.0,0.0,0.0,0.0,0.0,0.0,0.0,0.0,0.0,0.0,0.0,0.0,0.0,0.0,0.0,0.0,0.0,0.0,2.6007,2.8669,3.2406,3.4282,3.5444,3.6473,3.7168,3.7823,3.8731,3.9386,3.9893,4.004,3.9493,3.817,3.5151,0.0,0.0,0.0,0.0,1.7021,1.5466,1.8726,0.0,0.0,0.0,0.0,0.0,0.0,0.0,0.0,0.0,0.0,0.0,0.0,0.0,0.0,4.3754,4.3821,4.334,4.3314,4.3127,4.2659,4.2512,4.2365,4.2218,4.1777,4.1563,4.1563,4.1269,4.1056,4.0909,4.0909,4.0842,4.0695,4.0548,4.0481,4.0481,4.0481,4.0401,4.0254,4.0107,3.996,3.9746,3.9159,3.8865,3.8651,0.0,0.0,0.0,0.0,0.0,0.0,0.0,2.0187,2.0601,2.1603,2.1937,2.1764,2.0949,2.0134,1.9573,0.0,0.0,0.0,0.0,0.0,0.0,0.0,0.0,0.0,0.0,0.0,0.0,0.0,0.0,0.0,0.0,0.0,0.0,0.0,0.0,0.0,0.0,0.0,0.0,0.0,0.0,0.0,0.0,0.0,0.0,0.0,0.0,0.0,0.0,0.0,2.5564,2.8099,3.1814,3.4137,3.5777,3.6879,3.7556,3.8121,3.9586,4.0254,4.0655,4.0588,3.9706,3.7849,3.3881,2.9524,0.0,0.0,0.0,1.5613,1.565,0.0,2.087,0.0,2.7203,0.0,0.0,0.0,0.0,0.0,0.0,0.0,0.0,0.0,0.0,0.0,4.3995,4.3968,4.3634,4.3567,4.3273,4.2766,4.2699,4.2512,4.2218,4.1924,4.179,4.179,4.1563,4.1376,4.1229,4.1082,4.0949,4.0802,4.0588,4.0481,4.0481,4.0481,4.0481,4.0441,4.0214,4.0147,4.0067,3.9519,3.9199,3.8945,0.0,0.0,0.0,0.0,0.0,0.0,0.0,2.0067,2.0735,2.2151,2.2365,2.2151,2.1537,2.0922,2.0241,0.0,0.0,0.0,0.0,0.0,0.0,0.0,0.0,0.0,0.0,0.0,0.0,0.0,0.0,0.0,0.0,0.0,0.0,0.0,0.0,0.0,0.0,0.0,0.0,0.0,0.0,0.0,0.0,0.0,0.0,0.0,0.0,0.0,0.0,0.0,0.0,2.371,2.7305,3.0378,3.323,3.6053,0.0,0.0,3.9916,4.1016,4.1203,4.0949,3.9386,3.7088,3.3761,0.0,0.0,0.0,0.0,0.0,0.0,0.0,0.0,0.0,0.0,2.7111,3.5255,3.7514,0.0,0.0,0.0,0.0,0.0,0.0,0.0,4.477,4.4543,4.4262,4.3968,4.3674,4.338,4.306,4.2806,4.2512,4.2218,4.1924,4.179,4.179,4.175,4.1456,4.0949,4.1203,4.1016,4.0508,4.0481,4.0481,4.0481,4.0481,4.0481,4.0481,4.0441,4.0441,4.0401,4.0067,3.992,3.9813,0.0,0.0,0.0,0.0,0.0,0.0,1.9826,2.0013,2.0695,2.2699,2.2966,2.2806,2.2392,2.1817,2.0895,0.0,0.0,0.0,0.0,0.0,0.0,0.0,0.0,0.0,0.0,0.0,0.0,0.0,0.0,0.0,0.0,0.0,0.0,0.0,0.0,0.0,0.0,0.0,0.0,0.0,0.0,0.0,0.0,0.0,0.0,0.0,0.0,0.0,0.0,0.0,0.0,0.0,2.5198,2.6285,0.0,0.0,3.5364,3.692,3.984,4.1122,4.1497,4.1016,3.9239,3.6687,3.3467,0.0,0.0,0.0,1.9725,1.7426,1.7511,0.0,0.0,0.0,0.0,0.0,2.8497,3.1087,3.4471,3.992,0.0,0.0,0.0,0.0,0.0,4.465,4.4663,4.4516,4.4035,4.3714,4.3487,4.3354,4.306,4.2873,4.2726,4.2445,4.2298,4.2298,4.2151,4.1924,4.171,4.1644,4.1376,4.0976,4.0802,4.0628,4.0481,4.0481,4.0481,4.0481,4.0481,4.0481,4.0441,4.0147,4.0027,3.996,0.0,0.0,0.0,0.0,0.0,1.8374,1.9853,2.0147,2.0909,2.2926,2.3273,2.3207,2.2899,2.2111,2.1096,1.9867,0.0,0.0,0.0,0.0,0.0,0.0,0.0,0.0,0.0,0.0,0.0,0.0,0.0,0.0,0.0,0.0,0.0,0.0,0.0,0.0,0.0,0.0,0.0,0.0,0.0,0.0,0.0,0.0,0.0,0.0,0.0,0.0,0.0,0.0,0.0,0.0,0.0,0.0,0.0,0.0,3.2872,3.5335,3.8349,4.0365,4.167,4.1163,3.9052,3.6313,0.0,0.0,0.0,2.3454,2.0414,1.8309,1.8754,0.0,0.0,0.0,0.0,2.0505,2.3888,2.6078,2.9655,0.0,0.0,0.0,0.0,0.0,0.0,4.473,4.481,4.4663,4.4155,4.3741,4.3487,4.342,4.3273,4.31,4.2846,4.2726,4.2619,4.2512,4.2325,4.2178,4.2071,4.1897,4.163,4.1336,4.1016,4.0802,4.0588,4.0508,4.0481,4.0481,4.0481,4.0481,4.0441,4.0254,4.0174,4.0107,0.0,0.0,0.0,0.0,0.0,0.0,0.0,2.0535,2.1523,2.2712,2.314,2.3207,2.2899,2.1563,2.0681,2.0668,0.0,0.0,0.0,0.0,0.0,0.0,0.0,0.0,0.0,0.0,0.0,2.1109,2.1697,0.0,0.0,0.0,0.0,0.0,0.0,0.0,0.0,0.0,0.0,0.0,0.0,0.0,0.0,0.0,0.0,0.0,0.0,0.0,0.0,0.0,0.0,0.0,0.0,0.0,0.0,0.0,2.8463,3.0471,3.4815,3.8726,4.171,4.1416,3.8905,3.5819,0.0,0.0,0.0,2.5064,2.2073,2.0263,2.1924,0.0,0.0,0.0,1.7513,0.0,2.3217,2.4352,2.6416,0.0,0.0,0.0,0.0,0.0,4.5638,4.5318,4.5024,0.0,4.4436,4.3861,4.338,4.31,4.338,4.3086,4.2218,4.2512,4.2512,4.2218,4.2218,4.2071,4.179,4.179,4.163,4.1336,4.1016,4.0909,4.0869,4.0588,4.0481,4.0481,4.0481,4.0481,4.0481,4.0481,4.0481,4.0441,0.0,0.0,0.0,0.0,0.0,0.0,0.0,1.9145,1.9813,2.1189,2.1456,2.171,2.2205,2.1309,2.0681,2.0681,0.0,0.0,0.0,0.0,0.0,0.0,0.0,0.0,0.0,0.0,2.1309,2.171,2.1897,2.2084,2.2285,0.0,0.0,0.0,0.0,0.0,0.0,0.0,0.0,0.0,0.0,0.0,0.0,0.0,0.0,0.0,0.0,0.0,0.0,0.0,0.0,0.0,0.0,0.0,0.0,0.0,0.0,0.0,3.0534,3.3066,3.5345,3.3333,3.2078,3.091,2.898,0.0,0.0,2.493,2.298,2.1625,2.2073,0.0,0.0,0.0,0.0,0.0,0.0,0.0,0.0,3.1181,3.7457,0.0,0.0,0.0,4.5638,4.5344,4.5424,4.5171,4.4476,4.4436,4.4222,4.3741,4.3594,4.3487,4.3461,4.3314,4.3207,4.3086,4.2699,4.2472,4.2365,4.2178,4.1924,4.1644,4.1563,4.139,4.1189,4.0909,4.0762,4.0762,4.0548,4.0481,4.0481,4.0481,4.0481,4.0441,0.0,0.0,0.0,0.0,0.0,0.0,0.0,1.8704,1.9319,2.0227,2.0441,2.0842,2.1724,2.0842,2.0361,2.0802,0.0,0.0,0.0,0.0,0.0,0.0,0.0,0.0,0.0,2.1109,2.1403,2.1991,2.2098,2.2352,2.2766,2.3073,2.3046,0.0,0.0,0.0,0.0,0.0,0.0,0.0,0.0,0.0,2.2458,0.0,0.0,0.0,0.0,0.0,0.0,0.0,0.0,0.0,0.0,0.0,0.0,0.0,0.0,0.0,0.0,2.9557,3.151,2.9423,2.8637,0.0,0.0,0.0,0.0,0.0,0.0,0.0,0.0,0.0,0.0,0.0,0.0,0.0,0.0,0.0,0.0,0.0,0.0,0.0,0.0,4.4668,4.5678,4.5491,4.5531,4.5344,4.4797,4.473,4.4543,4.4182,4.3861,4.3674,4.3674,4.3567,4.342,4.3207,4.2846,4.2659,4.2659,4.2365,4.2178,4.2111,4.1897,4.1603,0.0,4.1016,4.0842,4.0735,4.0548,4.0481,4.0481,4.0481,4.0481,4.0441,0.0,0.0,0.0,0.0,0.0,0.0,0.0,0.0,1.9706,1.9706,1.9973,2.0481,2.1309,2.0187,1.98,2.0895,0.0,0.0,0.0,0.0,0.0,0.0,0.0,0.0,0.0,2.1109,2.1403,2.2017,2.2285,2.2726,2.334,2.3634,2.3607,2.33,2.3313,0.0,0.0,0.0,0.0,0.0,0.0,0.0,0.0,0.0,0.0,0.0,0.0,0.0,0.0,0.0,0.0,0.0,0.0,0.0,0.0,0.0,0.0,0.0,0.0,0.0,0.0,0.0,0.0,0.0,0.0,0.0,0.0,0.0,0.0,0.0,0.0,0.0,0.0,0.0,0.0,0.0,0.0,0.0,0.0,0.0,0.0,0.0,0.0,4.333,4.5745,4.5745,4.5491,4.5318,4.5277,4.477,4.4436,4.4396,4.4142,4.3741,4.3167,4.342,4.3273,4.2739,4.2699,4.2699,4.2659,4.2365,4.2365,4.2592,4.2044,4.1644,4.1336,4.1056,4.0762,4.0508,4.0481,4.0481,4.0481,4.0481,4.0481,4.0481,0.0,0.0,0.0,0.0,0.0,0.0,0.0,0.0,0.0,0.0,1.9252,1.9653,1.9853,1.9573,1.9479,0.0,0.0,0.0,0.0,0.0,0.0,0.0,0.0,0.0,0.0,2.1109,2.151,2.2311,2.2392,2.2726,2.334,2.3634,2.3487,2.2979,2.322,2.3153,0.0,0.0,0.0,0.0,0.0,0.0,0.0,0.0,0.0,0.0,2.2859,2.2859,0.0,0.0,0.0,0.0,0.0,0.0,0.0,0.0,2.339,0.0,0.0,0.0,0.0,0.0,2.1516,0.0,0.0,0.0,0.0,0.0,0.0,0.0,0.0,0.0,0.0,0.0,0.0,0.0,0.0,0.0,0.0,0.0,0.0,0.0,0.0,4.4754,4.5745,4.5745,4.5678,4.5451,4.4997,4.4837,4.4583,4.4115,4.4035,4.3928,4.3781,4.3861,4.3714,4.3314,4.31,4.2873,4.2659,4.2365,4.2258,4.2325,4.2178,4.1964,4.167,4.135,4.1056,4.0802,4.0548,4.0481,4.0481,4.0481,4.0481,4.0441,0.0,0.0,0.0,0.0,0.0,0.0,0.0,0.0,0.0,0.0,0.0,0.0,0.0,0.0,0.0,0.0,0.0,0.0,0.0,0.0,0.0,0.0,0.0,2.1109,2.1109,2.1109,2.1537,2.2418,2.2418,2.2873,2.3728,2.3754,2.3594,2.3273,2.3166,2.302,0.0,0.0,0.0,0.0,2.2806,0.0,0.0,0.0,0.0,0.0,2.2659,2.2659,0.0,2.318,2.322,2.3126,0.0,0.0,0.0,0.0,2.3327,2.3519,2.293,2.2469,2.1523,1.9753,2.0622,2.1771,0.0,0.0,0.0,0.0,0.0,0.0,0.0,0.0,0.0,0.0,0.0,0.0,0.0,0.0,0.0,0.0,0.0,0.0,0.0,4.5451,4.5745,4.5745,4.5745,4.5598,4.5277,4.5024,4.473,4.4409,4.4142,4.4008,4.4008,4.4008,4.3861,4.3527,4.3233,4.302,4.2846,4.2405,4.2298,4.2405,4.2285,4.1964,4.1563,4.1416,4.1096,4.0695,4.0548,4.0481,4.0481,4.0481,4.0481,4.0441,0.0,0.0,0.0,0.0,0.0,0.0,0.0,0.0,0.0,0.0,0.0,0.0,0.0,0.0,0.0,0.0,0.0,0.0,0.0,0.0,0.0,0.0,0.0,2.1082,2.1176,2.1176,2.1603,2.2485,2.2579,2.322,2.4329,2.4088,2.3875,2.3674,2.3113,2.2806,0.0,0.0,0.0,0.0,2.2739,0.0,0.0,0.0,0.0,0.0,0.0,0.0,0.0,2.302,2.322,2.33,2.3554,0.0,0.0,0.0,0.0,0.0,2.3901,2.3779,2.3033,2.1491,2.1992,2.2923,0.0,0.0,0.0,0.0,0.0,0.0,0.0,0.0,0.0,0.0,0.0,0.0,0.0,0.0,0.0,0.0,0.0,0.0,4.5152,4.5665,4.5745,4.5745,4.5705,4.5678,4.5678,4.5131,4.481,4.481,4.4329,4.4035,4.4008,4.4008,4.3821,4.3461,4.3207,4.306,4.2953,4.2432,4.2365,4.2592,4.2325,4.1884,4.1336,4.1336,4.1016,4.0481,4.0481,4.0481,4.0481,4.0481,4.0481,4.0481,0.0,0.0,0.0,0.0,0.0,0.0,0.0,0.0,0.0,0.0,0.0,0.0,0.0,0.0,0.0,0.0,0.0,0.0,0.0,0.0,0.0,2.0668,2.0722,2.0975,2.147,2.1483,2.1911,2.2792,2.3313,2.4035,2.4943,2.4903,2.4342,2.338,2.302,2.2579,2.2138,2.2378,2.2458,2.2445,2.2739,0.0,0.0,0.0,0.0,0.0,0.0,0.0,0.0,2.2525,2.2726,2.2939,2.2979,0.0,0.0,0.0,0.0,0.0,2.489,2.5763,2.5529,2.2669,2.2385,2.2621,0.0,0.0,0.0,0.0,0.0,0.0,0.0,0.0,0.0,0.0,0.0,0.0,0.0,0.0,0.0,0.0,0.0,4.4391,4.465,4.5304,4.5745,4.5745,4.5531,4.5384,4.5384,4.4837,4.4516,4.4516,4.4409,4.4249,4.4008,4.4008,4.3714,4.3167,4.3127,4.2833,4.2365,4.2258,4.2258,4.2285,4.2258,4.1884,4.1336,4.1336,4.1016,4.0481,4.0481,4.0481,4.0481,4.0481,4.0481,4.0481,0.0,0.0,0.0,0.0,0.0,0.0,0.0,0.0,0.0,0.0,0.0,0.0,0.0,0.0,0.0,0.0,0.0,0.0,0.0,0.0,0.0,2.1122,2.1002,2.1109,2.1537,2.1857,2.2539,2.3581,2.4182,2.501,2.6012,2.5371,2.4543,2.3541,2.3073,2.2712,2.2472,2.2605,2.2659,2.2672,0.0,0.0,0.0,0.0,0.0,0.0,0.0,0.0,0.0,0.0,2.2726,2.3113,2.3113,0.0,0.0,0.0,0.0,0.0,2.4342,2.509,2.5551,2.5036,2.5622,2.621,0.0,0.0,0.0,0.0,0.0,0.0,0.0,0.0,0.0,0.0,0.0,0.0,0.0,0.0,0.0,0.0,0.0,4.3205,4.4807,4.5491,4.5678,4.5531,4.5384,4.5237,4.509,4.4837,4.4663,4.4663,4.4663,4.4543,4.4249,4.4075,4.3781,4.3314,4.3167,4.2873,4.2445,4.2298,4.2218,4.2218,4.2044,4.175,4.1336,4.1163,4.0869,4.0481,4.0481,4.0481,4.0481,4.0481,4.0481,4.0481,0.0,0.0,0.0,0.0,0.0,0.0,0.0,0.0,0.0,0.0,0.0,0.0,0.0,0.0,0.0,0.0,0.0,0.0,0.0,0.0,2.0441,2.1403,2.1363,2.155,2.2058,2.2579,2.342,2.4609,2.5344,2.6119,2.6894,2.5798,2.4743,2.3741,2.314,2.2779,2.2659,2.2726,2.2752,2.2766,0.0,0.0,0.0,0.0,0.0,0.0,0.0,0.0,0.0,0.0,0.0,0.0,0.0,0.0,0.0,2.33,2.3247,2.346,2.4115,2.4609,2.5331,0.0,0.0,0.0,0.0,0.0,0.0,0.0,0.0,0.0,0.0,0.0,0.0,0.0,0.0,0.0,0.0,0.0,0.0,0.0,0.0,4.2158,4.5272,4.5638,4.5558,4.5318,4.5197,4.505,4.4877,4.473,4.4703,4.477,4.477,4.4623,4.4329,4.4115,4.3821,4.342,4.3127,4.2846,4.2552,4.2325,4.2178,4.2111,4.1897,4.1563,4.1229,4.1016,4.0735,4.0481,4.0481,4.0481,4.0481,4.0481,4.0481,4.0481,0.0,0.0,0.0,0.0,0.0,0.0,0.0,0.0,0.0,0.0,0.0,0.0,0.0,0.0,0.0,0.0,0.0,0.0,0.0,0.0,2.0775,2.1122,2.1643,2.2458,2.3581,2.3915,2.4649,2.5825,2.6961,2.7415,2.7215,2.6306,2.513,2.3741,2.314,2.2565,2.2071,2.2338,2.2458,2.2472,2.2752,0.0,0.0,0.0,0.0,0.0,0.0,0.0,0.0,0.0,0.0,0.0,0.0,0.0,2.3808,0.0,2.3741,2.3688,2.5344,2.5825,2.6146,0.0,0.0,0.0,0.0,0.0,0.0,0.0,0.0,0.0,0.0,0.0,0.0,0.0,0.0,0.0,0.0,0.0,0.0,0.0,4.4329,4.4661,4.5304,4.5344,4.5344,4.5318,4.4797,4.4623,4.4877,4.4369,4.4182,4.4476,4.4476,4.4329,4.4035,4.4008,4.3714,4.3127,4.2846,4.2552,4.2258,4.2218,4.2071,4.1817,4.179,4.1456,4.0949,4.0909,4.0735,4.0481,4.0481,4.0481,4.0481,4.0481,4.0481,4.0481,0.0,0.0,0.0,0.0,0.0,0.0,0.0,0.0,0.0,0.0,0.0,0.0,0.0,0.0,0.0,0.0,0.0,0.0,0.0,2.0241,2.0695,2.1363,2.1951,2.2726,2.3754,2.477,2.6052,2.7602,2.8591,2.8644,2.7789,2.6533,2.5264,2.4008,2.322,2.2846,2.2819,2.2726,2.2806,2.2979,2.2899,2.2859,0.0,0.0,0.0,0.0,0.0,0.0,0.0,0.0,2.2525,2.3006,0.0,0.0,0.0,0.0,0.0,2.3554,2.4583,2.5398,0.0,0.0,0.0,0.0,0.0,0.0,0.0,0.0,0.0,0.0,0.0,0.0,0.0,0.0,0.0,0.0,0.0,0.0,4.4516,4.4436,4.469,4.4984,4.5277,4.5131,4.5064,4.5064,4.4663,4.4396,4.4329,4.4289,4.4329,4.4436,4.4623,4.4476,4.4008,4.3821,4.342,4.2846,4.2699,4.2512,4.2218,4.2031,4.1897,4.175,4.139,4.1122,4.0909,4.0722,4.0588,4.0481,4.0481,4.0481,4.0481,4.0481,4.0481,4.0481,0.0,0.0,0.0,0.0,0.0,0.0,0.0,0.0,0.0,0.0,0.0,0.0,0.0,0.0,0.0,0.0,0.0,0.0,1.9786,2.0067,2.0548,2.1243,2.1924,2.2792,2.3888,2.5438,2.6961,2.8457,2.9432,2.9219,2.7843,2.656,2.5424,2.4436,2.3554,2.3367,2.3714,2.322,2.3126,2.33,2.2993,2.2926,0.0,0.0,0.0,0.0,0.0,0.0,0.0,0.0,2.2605,0.0,0.0,0.0,0.0,0.0,0.0,0.0,2.3928,2.4649,0.0,0.0,0.0,0.0,0.0,0.0,0.0,0.0,0.0,0.0,0.0,0.0,0.0,0.0,0.0,0.0,4.4115,4.4476,4.4623,4.4329,4.4663,4.4917,4.5024,4.4957,4.4837,4.473,4.4476,4.4222,4.4008,4.4182,4.4249,4.4142,4.4329,4.4222,4.3714,4.342,4.302,4.2512,4.2445,4.2298,4.2071,4.1897,4.1684,4.1497,4.1096,4.0869,4.0762,4.0548,4.0481,4.0481,4.0361,4.0334,4.0334,4.0227,4.0187,4.0187,0.0,0.0,0.0,0.0,0.0,0.0,0.0,0.0,0.0,0.0,0.0,0.0,0.0,0.0,0.0,0.0,0.0,0.0,1.9773,2.0067,2.0361,2.0655,2.151,2.2672,2.4155,2.5905,2.7241,2.8163,2.9325,2.8991,2.7241,2.636,2.5638,2.5037,2.4168,2.4102,2.4569,2.3701,2.3327,2.33,2.2993,2.3046,2.326,0.0,0.0,0.0,0.0,0.0,0.0,0.0,0.0,0.0,0.0,0.0,0.0,0.0,2.3554,2.3394,2.3688,0.0,0.0,0.0,0.0,0.0,0.0,0.0,0.0,0.0,0.0,0.0,0.0,0.0,0.0,0.0,0.0,0.0,4.4396,4.4436,4.4329,4.4035,4.4516,4.477,4.4476,4.469,4.473,4.4436,4.4155,4.4008,4.4008,4.4008,4.3861,4.3527,4.3527,4.338,4.31,4.2806,4.2512,4.2218,4.1924,4.179,4.179,4.179,4.1456,4.0909,4.0909,4.0735,4.0481,4.0481,4.0481,4.0441,4.0147,4.0027,4.0,3.9706,3.9599,3.9599,0.0,0.0,0.0,0.0,0.0,0.0,0.0,0.0,0.0,0.0,0.0,0.0,0.0,0.0,0.0,0.0,0.0,0.0,1.9506,1.996,2.0267,2.0361,2.1403,2.2191,2.2632,2.4583,2.6747,2.9085,2.9018,2.819,2.664,2.5959,2.5224,2.4462,2.4409,2.4249,2.3995,2.3527,2.3327,2.3313,2.322,2.3247,2.3313,0.0,0.0,0.0,0.0,0.0,0.0,0.0,0.0,0.0,0.0,0.0,0.0,0.0,2.3514,2.3875,2.3554,0.0,0.0,0.0,0.0,0.0,0.0,0.0,0.0,0.0,0.0,0.0,0.0,0.0,0.0,0.0,0.0,0.0,4.4115,4.4289,4.4329,4.4035,4.4155,4.4302,4.4436,4.4329,4.4222,4.4142,4.3861,4.3567,4.338,4.3354,4.3314,4.3233,4.3233,4.31,4.2806,4.2699,4.2405,4.1924,4.1817,4.167,4.1456,4.1269,4.1096,4.0909,4.0695,4.0548,4.0481,4.0481,4.0481,4.0441,4.0147,4.0027,4.0,3.9706,3.9599,3.9599,0.0,0.0,0.0,0.0,0.0,0.0,0.0,0.0,0.0,0.0,2.0054,0.0,0.0,0.0,0.0,0.0,0.0,0.0,0.0,2.008,2.0414,2.0414,2.1309,2.2138,2.2846,2.4436,2.6012,2.7562,2.7669,2.7028,2.5692,2.5812,2.5518,2.4917,2.5451,2.5291,2.4609,2.4195,2.3821,2.3487,2.338,2.346,2.3634,0.0,0.0,0.0,0.0,0.0,0.0,0.0,0.0,0.0,0.0,0.0,0.0,2.2899,2.3073,2.3567,0.0,0.0,0.0,0.0,0.0,0.0,0.0,0.0,0.0,0.0,0.0,0.0,0.0,0.0,0.0,0.0,0.0,0.0,4.3995,4.4035,4.3968,4.3674,4.3861,4.4035,4.4075,4.4142,4.4075,4.3821,4.3634,4.338,4.31,4.31,4.306,4.2913,4.2913,4.2766,4.2472,4.2365,4.2071,4.1603,4.1497,4.1269,4.0989,4.0949,4.0842,4.0735,4.0548,4.0481,4.0481,4.0361,4.0294,4.0254,3.9853,3.9666,3.964,3.9346,3.9239,3.9239,0.0,0.0,0.0,0.0,0.0,0.0,0.0,0.0,0.0,0.0,2.0054,2.012,0.0,0.0,0.0,0.0,0.0,0.0,0.0,0.0,2.0681,2.0722,2.1336,2.2445,2.4088,2.4877,2.501,2.4476,2.5625,2.5625,2.4583,2.5758,2.6186,2.5999,2.6841,2.672,2.5838,2.5251,2.4502,2.3714,2.3487,2.3714,2.4075,2.322,0.0,0.0,0.0,0.0,0.0,0.0,0.0,0.0,0.0,0.0,0.0,2.2432,2.2539,0.0,0.0,0.0,0.0,0.0,0.0,0.0,0.0,0.0,0.0,0.0,0.0,0.0,0.0,0.0,0.0,0.0,4.334,4.3634,4.3888,4.3674,4.338,4.3167,4.3634,4.3861,4.3594,4.4075,4.4142,4.3527,4.3487,4.334,4.302,4.302,4.2886,4.2619,4.2592,4.2445,4.2178,4.1897,4.1603,4.131,4.1016,4.0762,4.0481,4.0762,4.0735,4.0481,4.0481,4.0468,4.0401,4.0174,4.0027,3.992,3.9412,3.9185,3.9118,3.8838,3.8718,3.8718,0.0,0.0,0.0,0.0,0.0,0.0,0.0,0.0,0.0,0.0,0.0,0.0,0.0,0.0,0.0,0.0,0.0,0.0,0.0,2.0481,2.0775,2.1002,2.2017,2.2873,2.35,2.346,2.3367,2.3247,2.4209,2.4422,2.3981,2.5157,2.5798,2.5985,2.6627,2.6306,2.5224,2.4636,2.4022,2.346,2.3861,2.3955,2.3821,2.3394,2.3273,0.0,0.0,0.0,0.0,0.0,0.0,0.0,0.0,2.2632,2.2726,2.2485,0.0,0.0,0.0,0.0,0.0,0.0,0.0,0.0,0.0,0.0,0.0,0.0,0.0,0.0,0.0,0.0,0.0,4.3167,4.334,4.3461,4.3314,4.3233,4.3233,4.342,4.3567,4.3714,4.3888,4.4008,4.3861,4.3233,4.3207,4.2953,4.2432,4.2405,4.2365,4.2325,4.2084,4.1937,4.1897,4.1603,4.131,4.1016,4.0949,4.0762,4.0481,4.0548,4.0548,4.0481,4.0481,4.0334,4.0147,4.0321,4.0107,3.9666,3.9559,3.9372,3.9118,3.8838,3.8718,3.8718,0.0,0.0,0.0,0.0,0.0,0.0,0.0,0.0,0.0,0.0,0.0,0.0,0.0,0.0,0.0,0.0,0.0,0.0,0.0,0.0,2.1136,2.171,2.2739,2.33,2.3327,2.302,2.2792,2.2645,2.2846,2.3153,2.3581,2.4903,2.5678,2.5985,2.6707,2.6306,2.505,2.4596,2.4075,2.3567,2.3875,2.3995,2.3941,2.3647,2.3447,2.326,2.2806,0.0,0.0,0.0,0.0,0.0,0.0,0.0,2.2231,2.2218,0.0,0.0,0.0,0.0,0.0,0.0,0.0,0.0,0.0,0.0,0.0,0.0,0.0,0.0,0.0,4.4115,4.4035,4.342,4.3314,4.3207,4.2913,4.2886,4.2873,4.2913,4.302,4.3167,4.3354,4.3487,4.338,4.2913,4.2886,4.2699,4.2258,4.2218,4.2151,4.2004,4.1857,4.171,4.1563,4.1269,4.1056,4.0909,4.0762,4.0548,4.0254,4.0401,4.0401,4.0254,4.0401,4.0227,3.9853,4.0,3.9786,3.9372,3.9239,3.9092,3.8945,3.8798,3.8718,3.8718,0.0,0.0,0.0,0.0,0.0,0.0,0.0,0.0,0.0,0.0,0.0,0.0,0.0,0.0,0.0,0.0,0.0,0.0,0.0,0.0,0.0,2.2392,2.3233,2.3581,2.3327,2.2966,2.2672,2.2418,2.1884,2.2231,0.0,2.4796,2.5678,2.6132,2.676,2.6333,2.513,2.4676,2.4182,2.3701,2.3754,2.3888,2.4022,2.3728,2.346,2.3207,2.2899,2.2819,2.2859,2.2859,0.0,0.0,0.0,0.0,2.1617,2.1964,0.0,0.0,0.0,0.0,0.0,0.0,0.0,0.0,0.0,0.0,0.0,0.0,0.0,0.0,4.3968,4.3968,4.3861,4.3461,4.3167,4.2913,4.2619,4.2592,4.2512,4.2325,4.2512,4.2699,4.2739,4.2953,4.298,4.2699,4.2619,4.2445,4.2151,4.2111,4.1964,4.171,4.167,4.1523,4.1269,4.0976,4.0842,4.0842,4.0548,4.0254,4.0027,4.0227,4.0187,3.996,4.0214,4.004,3.9533,3.9559,3.9386,3.9052,3.8865,3.8758,3.8718,3.8718,3.8718,3.8718,0.0,0.0,0.0,0.0,0.0,0.0,0.0,0.0,0.0,0.0,2.0227,0.0,0.0,0.0,0.0,0.0,0.0,0.0,0.0,0.0,0.0,2.2405,2.3046,2.3367,2.3327,2.2766,2.2458,2.2418,2.2084,0.0,0.0,0.0,0.0,2.6694,2.6306,2.5879,2.5384,2.4329,2.3688,2.3407,2.3661,2.3647,2.3407,2.31,2.2966,2.2886,2.2579,2.2645,2.2859,2.2859,2.2672,0.0,0.0,0.0,2.1657,0.0,0.0,0.0,0.0,0.0,0.0,0.0,0.0,0.0,0.0,0.0,0.0,0.0,4.3461,4.3968,4.3634,4.3821,4.3754,4.2913,4.2739,4.2619,4.2325,4.2285,4.2365,4.2592,4.2632,4.2766,4.302,4.306,4.298,4.2699,4.2432,4.2151,4.1857,4.1603,4.1443,4.1416,4.1163,4.1016,4.0976,4.0695,4.0548,4.0548,4.0214,4.0067,4.0027,3.9813,3.9706,3.9666,3.9706,3.9519,3.9225,3.9493,3.9265,3.8798,3.9012,3.8945,3.8718,3.8718,3.8718,3.8718,0.0,0.0,0.0,0.0,0.0,0.0,0.0,0.0,0.0,0.0,0.0,2.0428,0.0,0.0,0.0,0.0,0.0,0.0,0.0,0.0,0.0,2.2405,2.3006,2.3327,2.3327,2.2726,2.2418,2.2418,0.0,0.0,0.0,2.5064,2.5772,0.0,0.0,0.0,2.5197,2.4022,2.334,2.31,2.3394,2.3647,2.3768,2.33,2.3327,2.3514,2.2712,2.2498,2.2619,2.2619,2.2311,2.1964,2.2124,0.0,0.0,0.0,0.0,0.0,0.0,0.0,0.0,0.0,0.0,0.0,0.0,0.0,0.0,4.2592,4.2993,4.3247,4.3273,4.3273,4.306,4.2512,4.2258,4.2111,4.2004,4.1817,4.1897,4.2365,4.2258,4.2298,4.2579,4.2445,4.2298,4.2191,4.1897,4.167,4.1523,4.1416,4.1269,4.1096,4.0976,4.0842,4.0655,4.0548,4.0401,4.0214,3.992,3.9706,3.9519,3.9412,3.9346,3.9372,3.9533,3.9346,3.8945,3.9225,3.9092,3.8718,3.8691,3.8584,3.8477,3.8477,3.8477,3.8477,0.0,0.0,0.0,0.0,0.0,0.0,0.0,0.0,0.0,0.0,0.0,0.0,0.0,0.0,0.0,0.0,0.0,0.0,0.0,0.0,0.0,2.2298,2.2819,2.31,2.31,2.2579,2.2311,2.2311,0.0,0.0,2.509,2.5598,2.6279,0.0,2.6293,0.0,0.0,0.0,0.0,0.0,2.3434,2.3754,2.4155,2.3714,2.3781,2.3941,2.2819,0.0,0.0,2.2392,2.2124,2.1817,2.2124,2.1804,0.0,0.0,0.0,0.0,0.0,0.0,0.0,0.0,0.0,0.0,0.0,0.0,4.1937,0.0,4.2552,4.2619,4.2833,4.2699,4.2445,4.2151,4.1857,4.167,4.167,4.1483,4.1483,4.1924,4.1817,4.175,4.1964,4.179,4.167,4.167,4.1376,4.1229,4.1229,4.1163,4.1016,4.0802,4.0802,4.0695,4.0481,4.0401,4.0214,3.992,3.964,3.9372,3.9159,3.9012,3.8945,3.8945,3.9159,3.9012,3.8611,3.8758,3.8718,3.8584,3.825,3.8143,3.8143,3.8143,3.8143,3.8183,0.0,0.0,0.0,0.0,0.0,0.0,0.0,0.0,0.0,0.0,0.0,0.0,2.0681,2.0414,2.0347,2.0628,2.0668,2.0802,2.1096,2.1403,2.171,2.1991,2.2298,0.0,2.2472,2.2164,2.2004,0.0,0.0,0.0,2.5104,2.6226,2.7522,2.8858,2.7696,2.6854,2.6226,0.0,0.0,0.0,0.0,2.3928,2.4195,2.4168,2.4008,2.3674,0.0,0.0,0.0,2.2325,2.2392,2.2432,2.2726,2.2418,2.2004,0.0,0.0,0.0,0.0,0.0,0.0,0.0,0.0,0.0,0.0,0.0,4.1857,4.2178,4.2258,4.2258,4.2258,4.2258,4.2151,4.1857,4.1563,4.1376,4.1376,4.1336,4.1336,4.1376,4.1376,4.1376,4.1376,4.1376,4.1376,4.1376,4.1096,4.0949,4.0949,4.0655,4.0508,4.0508,4.0508,4.0481,4.0481,4.0187,3.992,3.964,3.9306,3.9159,3.9118,3.8584,3.829,3.829,3.833,3.829,3.8263,3.7996,3.8036,3.8263,3.7956,3.7849,3.7849,3.7849,3.7849,3.7849,0.0,0.0,0.0,0.0,0.0,0.0,0.0,0.0,0.0,0.0,0.0,0.0,0.0,2.0855,2.0842,2.0949,2.0949,2.1002,2.1096,2.139,2.1683,2.1977,2.2258,2.2512,2.2699,2.2418,2.2258,0.0,0.0,2.3233,2.4823,2.5999,2.7028,2.7883,2.7455,2.7041,2.6547,2.4703,0.0,0.0,0.0,0.0,2.4676,2.3928,0.0,0.0,0.0,0.0,0.0,2.3247,2.2659,2.1911,2.2205,2.1897,2.1523,2.2004,2.2619,2.3754,0.0,0.0,0.0,3.324,3.5404,3.7021,3.8798,4.0254,4.135,4.1857,4.2071,4.2151,4.1964,4.1924,4.1857,4.1563,4.1269,4.1056,4.1056,4.0909,4.0909,4.131,4.1163,4.1122,4.131,4.1163,4.1056,4.1056,4.0802,4.0615,4.0615,4.0548,4.0481,4.0481,4.0294,4.0107,3.992,3.9813,3.9599,3.9306,3.9012,3.8865,3.8865,3.8437,3.8143,3.7969,3.7782,3.7823,3.7969,3.7849,3.7889,3.7929,3.7635,3.7529,3.7529,3.7529,3.7529,3.7569,0.0,0.0,0.0,0.0,0.0,0.0,0.0,0.0,0.0,0.0,0.0,0.0,0.0,0.0,2.1109,2.1109,2.1109,2.1109,2.1109,2.1296,2.1577,2.1964,2.2164,2.2458,2.2859,2.2565,2.2378,0.0,0.0,0.0,0.0,2.5504,2.652,2.7255,2.6961,2.6987,0.0,0.0,0.0,2.4062,0.0,0.0,2.5598,0.0,0.0,0.0,0.0,0.0,0.0,0.0,2.3554,2.2726,2.2619,2.2044,2.1416,2.1523,2.2311,2.3581,2.5438,0.0,0.0,0.0,0.0,3.4603,3.7462,3.8945,4.0067,4.1243,4.179,4.2004,4.1817,4.171,4.1523,4.1229,4.0949,4.0762,4.0762,4.0588,4.0615,4.1016,4.0869,4.0842,4.1016,4.0869,4.0762,4.0762,4.0588,4.0481,4.0481,4.0481,4.0481,4.0481,4.0187,3.9893,3.9599,3.9493,3.9306,3.9012,3.8825,3.8651,3.8544,3.825,3.7956,3.7662,3.7342,3.7408,3.7676,3.7555,3.7595,3.7635,3.7342,3.7235,3.7235,3.7235,3.7235,3.7025,0.0,0.0,0.0,0.0,0.0,0.0,0.0,0.0,0.0,2.1122,0.0,0.0,0.0,0.0,0.0,2.1162,2.1162,2.1149,2.1122,2.1122,2.1376,2.1951,2.1977,2.2258,2.2832,2.2579,2.2285,0.0,0.0,0.0,0.0,0.0,2.6092,2.7148,2.6346,2.676,2.8003,0.0,2.6573,2.6306,0.0,2.6052,2.6907,0.0,0.0,0.0,2.6039,2.5451,0.0,2.5224,2.517,2.4957,2.4022,2.2926,2.1804,2.0935,2.171,2.2913,0.0,0.0,0.0,0.0,0.0,0.0,3.6473,3.7422,3.7929,4.0321,4.1269,4.167,4.175,4.1523,4.1229,4.0949,4.0655,4.0481,4.0481,4.0481,4.0481,4.0481,4.0481,4.0481,4.0481,4.0481,4.0481,4.0481,4.0481,4.0481,4.0481,4.0481,4.0481,4.0481,4.0174,3.9893,3.9599,3.9306,3.9012,3.8718,3.8718,3.8544,3.8263,3.7956,3.7662,3.7382,3.7048,3.7088,3.7342,3.7048,3.7114,3.7342,3.7048,3.6941,3.6941,3.6941,3.6941,3.6484,0.0,0.0,0.0,0.0,0.0,0.0,0.0,0.0,0.0,0.0,0.0,0.0,2.1724,2.2124,2.2378,2.2378,2.2378,2.2111,2.147,2.143,2.151,2.167,2.1871,2.2164,2.2539,2.2672,2.2592,2.2298,0.0,0.0,0.0,0.0,0.0,0.0,2.644,2.6653,2.6159,2.485,0.0,0.0,2.5585,2.656,0.0,0.0,0.0,0.0,0.0,2.8283,0.0,0.0,2.7442,2.5651,0.0,2.2271,2.159,2.1122,2.1724,2.2552,2.2645,0.0,0.0,0.0,0.0,0.0,3.1583,3.3026,3.4736,3.7742,3.8477,3.9132,4.0842,4.1096,4.0949,4.0655,4.0508,4.0481,4.0481,4.0481,4.0481,4.0481,4.0481,4.0481,4.0481,4.0481,4.0481,4.0481,4.0481,4.0481,4.0481,4.0254,4.0147,4.0147,3.9893,3.9559,3.9265,3.9199,3.9012,3.8718,3.8718,3.8544,3.8263,3.7956,3.7662,3.7382,3.7048,3.6981,3.7048,3.6981,3.6981,3.7048,3.6981,3.6941,3.6941,3.6941,3.6941,3.6706,0.0,0.0,0.0,0.0,0.0,0.0,0.0,0.0,0.0,0.0,0.0,0.0,2.2311,2.2993,2.3273,2.2899,2.2859,2.2592,2.1964,2.1683,2.1657,2.1897,2.1964,2.2178,2.2592,2.2645,2.2539,2.2231,0.0,0.0,0.0,0.0,0.0,0.0,0.0,0.0,0.0,0.0,0.0,0.0,2.6079,0.0,0.0,2.9018,3.0181,0.0,0.0,0.0,3.1303,3.0808,2.9072,0.0,0.0,0.0,2.2472,2.1563,2.2178,2.314,2.302,2.3541,2.4396,2.5531,0.0,0.0,3.0047,3.1249,3.2906,3.6767,3.7676,3.825,3.9893,4.0294,4.0254,3.996,4.0147,4.0334,4.0468,4.0481,4.0481,4.0481,4.0481,4.0481,4.0481,4.0481,4.0481,4.0481,4.0481,4.0481,4.0481,4.0187,4.0027,4.0027,3.9626,3.9346,3.9159,3.9052,3.8905,3.8718,3.8584,3.837,3.8076,3.7782,3.7489,3.7195,3.6874,3.6754,3.6754,3.6754,3.6754,3.6754,3.6754,3.6754,3.6754,3.6754,3.6834,3.6484,0.0,0.0,0.0,0.0,0.0,0.0,0.0,0.0,0.0,0.0,2.2832,2.2859,2.322,2.3915,2.4022,2.322,2.31,2.2886,2.2485,2.1951,2.1857,2.2352,2.2151,2.2271,2.2806,2.2619,2.2338,2.1991,0.0,0.0,0.0,0.0,0.0,0.0,0.0,0.0,0.0,0.0,0.0,2.4957,2.6907,2.8337,0.0,0.0,3.2438,0.0,3.2639,3.2973,3.3467,3.2265,3.0354,0.0,0.0,0.0,2.4128,2.2245,2.2953,2.4262,2.3834,2.4195,2.497,2.6146,0.0,0.0,2.9887,3.0568,3.1597,3.6032,3.7195,3.7676,3.8504,3.8905,3.8985,3.8611,3.9265,3.996,4.0401,4.0481,4.0481,4.0481,4.0481,4.0481,4.0481,4.0481,4.0481,4.0481,4.0481,4.0468,4.0441,4.0147,4.0,4.0,3.9412,3.9118,3.9159,3.8838,3.8691,3.8651,3.837,3.8036,3.7742,3.7489,3.7195,3.6861,3.662,3.6473,3.6473,3.6473,3.6473,3.6473,3.65,3.65,3.65,3.65,3.6687,3.6028,2.2405,0.0,0.0,0.0,0.0,0.0,0.0,0.0,2.334,2.3875,2.4302,2.485,2.5611,2.5438,2.5184,2.501,2.4569,2.3861,2.2846,2.2445,2.2191,2.2071,2.2231,2.2392,2.2498,2.2926,2.2766,2.1991,0.0,0.0,0.0,0.0,0.0,0.0,0.0,0.0,0.0,0.0,0.0,2.5812,2.7161,0.0,3.0969,3.2505,3.3788,3.475,3.4629,3.4857,3.4977,0.0,3.1984,3.014,0.0,0.0,0.0,2.334,0.0,2.4983,2.3754,0.0,0.0,0.0,0.0,0.0,2.5424,2.6493,2.8323,3.0929,3.1877,3.2933,3.5191,3.5859,3.5805,3.5044,3.6794,3.8758,4.0254,4.0481,4.0481,4.0481,4.0481,4.0481,4.0481,4.0481,4.0481,4.0481,4.0481,4.0361,4.0147,3.9853,3.968,3.968,3.9118,3.8905,3.9159,3.8624,3.837,3.833,3.8036,3.7742,3.7462,3.7422,3.7088,3.658,3.654,3.6366,3.6153,3.6153,3.6153,3.6179,3.6393,3.65,3.65,3.65,3.6687,3.6471,2.2846,0.0,0.0,0.0,0.0,0.0,0.0,0.0,2.4409,2.4997,2.5718,2.6172,2.6172,2.6172,2.5932,2.5344,2.489,2.4262,2.338,2.2886,2.2579,2.2432,2.2285,2.2418,2.2859,2.2592,2.2432,2.2418,0.0,0.0,0.0,0.0,0.0,0.0,0.0,0.0,0.0,0.0,2.3848,2.5905,2.7816,0.0,3.2064,3.3694,3.5044,3.6032,3.5738,3.5725,3.5645,3.4309,3.2986,0.0,0.0,2.8243,2.7869,0.0,2.5558,2.6213,0.0,0.0,0.0,2.4676,0.0,0.0,0.0,2.5852,2.6961,2.978,3.0234,3.0768,3.2839,3.3213,3.3267,3.3414,3.5164,3.6874,3.7929,3.9346,4.0254,4.0254,4.0107,4.004,4.004,4.0187,4.0254,4.0254,4.0107,3.996,3.9813,3.9519,3.9372,3.9372,3.8945,3.8718,3.8718,3.8397,3.8183,3.8036,3.7742,3.7448,3.7155,3.7155,3.6834,3.6286,3.6286,3.6126,3.5845,3.5845,3.488,3.3677,3.5292,3.6153,3.6286,3.6286,3.5649,3.4197,2.3193,0.0,0.0,0.0,0.0,0.0,0.0,0.0,2.5398,2.6039,2.6694,2.6894,2.6346,2.6613,2.6533,2.5825,2.5277,2.4796,2.4382,2.3581,2.3073,2.2953,2.2392,2.2405,2.314,2.2205,2.2044,2.2699,0.0,0.0,0.0,0.0,0.0,0.0,0.0,0.0,0.0,0.0,0.0,2.6386,0.0,3.0662,3.2505,3.4456,3.5859,3.6727,3.6433,3.6326,3.6126,3.4843,0.0,3.2505,3.0274,2.9993,0.0,0.0,0.0,0.0,0.0,0.0,0.0,0.0,0.0,2.5024,0.0,0.0,0.0,2.9205,2.9352,2.9339,3.0515,3.0581,3.0742,3.157,3.32,3.4429,3.467,3.7048,3.8838,3.9092,3.9199,3.9239,3.9159,3.9386,3.964,3.992,3.9452,3.9265,3.9493,3.9225,3.9078,3.9078,3.8718,3.8464,3.8263,3.8143,3.7969,3.7742,3.7382,3.7088,3.6861,3.6794,3.6473,3.5992,3.5318,3.4932,3.4658,3.4004,3.2344,3.043,3.4192,3.5108,3.4427,3.4872,3.3652,3.0947,2.2966,2.338,0.0,0.0,2.4289,0.0,0.0,2.5478,2.5772,2.6613,2.6587,2.6747,2.7428,0.0,0.0,0.0,0.0,0.0,2.6466,0.0,2.3821,2.33,2.2686,2.2418,2.2525,2.2392,2.2245,2.2084,2.1697,0.0,0.0,0.0,0.0,0.0,2.1897,0.0,0.0,0.0,2.5037,0.0,2.9539,3.0474,0.0,3.4215,3.5605,3.6259,3.6981,3.7235,3.6981,0.0,3.4442,3.3627,0.0,3.1142,0.0,0.0,0.0,0.0,0.0,0.0,0.0,0.0,2.6627,0.0,0.0,0.0,2.6253,2.6132,0.0,2.7175,2.7348,0.0,0.0,2.7201,2.9472,3.1303,3.1343,3.2973,3.4563,3.5618,3.7088,3.7929,3.7676,3.7676,3.8223,3.9559,3.8397,3.8103,3.9159,3.8945,3.8758,3.8758,3.821,3.8036,3.8263,3.7742,3.7462,3.7422,3.6874,3.658,3.654,3.6286,3.5992,3.5458,3.3044,3.1797,3.132,2.8511,2.7413,2.7628,3.3324,3.2564,2.8433,3.0847,3.0272,2.7754,2.3153,2.3607,0.0,0.0,2.4502,2.5037,2.5451,2.6239,2.6921,2.7281,2.7682,2.807,0.0,0.0,0.0,0.0,0.0,0.0,0.0,0.0,2.4983,2.3888,2.3086,2.2846,2.3193,2.2352,2.2017,2.2231,2.1603,2.1443,0.0,0.0,0.0,0.0,2.2378,0.0,2.3661,0.0,2.5745,0.0,0.0,0.0,0.0,3.5004,3.658,3.7168,3.7889,3.7929,3.7382,0.0,3.4736,0.0,0.0,0.0,0.0,0.0,0.0,0.0,0.0,0.0,0.0,0.0,0.0,0.0,2.513,0.0,2.4943,0.0,0.0,0.0,0.0,0.0,0.0,0.0,2.8003,2.9192,2.9018,3.0675,3.2519,3.4229,3.4629,3.511,3.6032,3.6259,3.6834,3.7956,3.7008,3.6874,3.8063,3.833,3.8437,3.8437,3.8223,3.7969,3.7742,3.7489,3.7301,3.7128,3.6687,3.6433,3.6246,3.6126,3.4932,3.2759,3.1833,3.0219,2.8253,2.6961,2.5447,2.4381,2.8587,2.8923,2.7091,2.839,2.7065,2.463,2.3207,0.0,0.0,0.0,0.0,2.497,2.5331,2.6293,2.7121,2.7522,0.0,0.0,2.9098,2.9192,0.0,0.0,0.0,2.9058,0.0,0.0,2.6052,2.4516,0.0,0.0,0.0,2.2392,2.1884,2.2298,2.1496,2.1349,0.0,0.0,0.0,0.0,0.0,2.4142,2.497,0.0,0.0,2.9366,3.0541,3.181,3.328,3.5925,3.7342,3.7996,3.8437,3.833,3.7702,3.6246,3.5191,0.0,3.4603,0.0,0.0,0.0,0.0,0.0,2.8804,0.0,0.0,0.0,0.0,0.0,0.0,0.0,0.0,0.0,0.0,0.0,0.0,0.0,2.5585,2.6279,0.0,2.7709,2.7482,2.8617,3.0114,3.1864,3.2064,3.2759,3.4549,3.4616,3.5084,3.6366,3.5418,3.5511,3.7168,3.7676,3.7969,3.8143,3.8076,3.7823,3.7382,3.7301,3.7155,3.6941,3.658,3.6273,3.6072,3.5011,3.3387,3.0858,2.9311,2.7548,2.5231,2.4363,2.2857,2.1335,2.3284,2.4237,2.4595,2.5471,2.3833,2.1574,2.301,2.3367,0.0,0.0,0.0,0.0,0.0,0.0,0.0,0.0,0.0,0.0,0.0,0.0,0.0,0.0,0.0,3.1797,3.0327,0.0,2.6881,0.0,0.0,0.0,0.0,0.0,2.1977,2.2004,2.1403,2.155,0.0,0.0,0.0,0.0,0.0,2.5398,2.6814,2.7989,3.0327,3.3253,3.3614,3.4803,3.6393,0.0,3.7489,3.8263,3.8263,0.0,0.0,3.6553,3.6032,0.0,0.0,0.0,0.0,0.0,0.0,0.0,0.0,0.0,0.0,2.7843,0.0,0.0,0.0,0.0,2.6653,0.0,0.0,0.0,0.0,2.7188,2.7001,2.648,2.6653,0.0,0.0,2.6426,2.6453,2.7362,2.9472,3.1543,3.3334,3.2465,3.2759,3.507,3.3627,3.3908,3.6794,3.6967,3.7235,3.7809,3.7555,3.7422,3.7382,3.7088,3.6941,3.6941,3.6366,3.6086,3.6046,3.2632,3.1071,3.0621,2.5033,2.2446,2.221,1.9383,1.8074,1.8088,1.8074,1.8074,1.853,2.136,2.0591,1.8321,0.0,0.0,0.0,0.0,0.0,0.0,0.0,2.5985,0.0,0.0,0.0,0.0,0.0,0.0,3.4349,0.0,0.0,3.4002,3.1944,3.0875,0.0,0.0,0.0,2.5197,0.0,0.0,0.0,2.2271,2.2071,0.0,0.0,0.0,0.0,0.0,0.0,2.6253,0.0,0.0,0.0,0.0,0.0,3.4977,3.7088,0.0,3.7128,3.7489,3.829,3.8584,3.8464,3.7742,3.7021,3.6433,3.6794,3.5925,3.4803,3.4977,3.483,3.4402,0.0,0.0,3.4656,3.0715,0.0,0.0,0.0,0.0,0.0,0.0,0.0,0.0,0.0,2.7268,2.7134,2.6734,2.676,2.656,0.0,2.517,2.5264,2.6533,2.8604,3.0087,3.0488,3.1049,3.1784,3.2786,3.2478,3.32,3.5378,3.6233,3.6754,3.6941,3.7235,3.7275,3.7088,3.6981,3.6834,3.6647,3.6259,3.5965,3.5765,3.2307,2.9765,2.7823,2.3937,2.1132,1.9383,1.8302,1.786,1.786,1.786,1.786,1.8088,1.8949,1.8772,1.7935,2.3768,0.0,0.0,0.0,0.0,0.0,0.0,0.0,0.0,0.0,3.1597,0.0,3.5658,0.0,3.65,0.0,3.7048,3.5792,3.2893,3.2639,0.0,2.9299,2.8016,0.0,0.0,0.0,0.0,0.0,0.0,2.2899,0.0,0.0,0.0,0.0,0.0,0.0,2.9032,0.0,3.2559,0.0,0.0,3.5137,0.0,0.0,3.6794,3.7382,3.8504,3.8798,3.8718,3.8611,3.7996,3.7448,3.829,3.7342,3.6019,3.666,3.6393,3.5752,3.511,3.5992,3.6299,3.3,3.2612,0.0,2.8364,0.0,0.0,0.0,0.0,0.0,0.0,2.8337,2.7883,2.7375,2.6947,2.6226,0.0,2.4623,2.4983,2.6239,2.7655,2.8711,2.9152,2.9579,3.0154,3.0982,3.1129,3.1944,3.3708,3.5231,3.6139,3.6353,3.6914,3.7128,3.6941,3.6834,3.6687,3.65,3.6099,3.5819,3.5405,3.1177,2.8253,2.6313,2.242,1.961,1.786,1.786,1.786,1.786,1.786,1.786,1.786,1.786,1.7901,1.7935,0.0,0.0,0.0,0.0,2.4502,0.0,0.0,0.0,2.8818,0.0,3.2011,3.3761,3.6433,3.7235,3.7782,3.833,3.8624,0.0,3.348,3.4002,0.0,0.0,2.998,2.994,2.9659,2.7829,0.0,0.0,0.0,0.0,0.0,0.0,0.0,0.0,2.5424,0.0,2.9566,3.1904,3.4416,3.6727,3.5658,3.5404,3.5672,3.5725,3.662,3.7956,3.8838,3.8972,3.8798,3.9078,3.8972,3.8825,3.9078,3.8972,3.8691,3.8397,3.8504,3.8397,3.6687,3.6874,3.6941,3.4656,3.4469,0.0,0.0,0.0,3.2545,0.0,0.0,0.0,0.0,0.0,2.9232,2.8217,2.7068,2.5825,2.4436,2.4703,2.5358,2.6239,2.656,2.7402,2.9138,2.8043,2.7936,2.9659,2.9526,3.0167,3.1984,3.3975,3.5351,3.5992,3.6607,3.6941,3.6941,3.6647,3.6513,3.6473,3.5912,3.5631,3.5378,2.9222,2.6529,2.6097,2.0466,1.786,1.786,1.786,1.786,1.786,1.786,1.786,1.786,1.786,1.7948,1.8057,2.4431,2.4262,2.4489,0.0,2.4569,2.489,0.0,0.0,0.0,0.0,3.4629,3.658,3.9452,3.992,4.0067,4.0214,3.9893,0.0,0.0,0.0,0.0,3.4442,3.2973,3.2158,3.2078,2.9272,0.0,2.7028,0.0,0.0,2.473,0.0,0.0,0.0,0.0,0.0,2.8631,3.0768,3.3093,3.5338,3.5458,3.5819,3.6353,3.7008,3.7782,3.8544,3.9012,3.9265,3.9346,3.9199,3.9265,3.9386,3.9452,3.9452,3.9306,3.9012,3.9132,3.9265,3.8838,3.9012,3.8945,3.7235,3.6433,3.5511,3.3454,3.4002,0.0,0.0,0.0,0.0,0.0,0.0,0.0,2.7268,2.5852,2.5037,2.4877,0.0,0.0,2.5638,0.0,2.5638,2.6747,2.6707,2.6987,2.7883,2.7883,2.8991,3.1637,3.2706,3.3801,3.5057,3.6086,3.6727,3.6941,3.6861,3.662,3.6179,3.6032,3.5738,3.5086,2.9145,2.6529,2.6097,2.0466,1.786,1.786,1.786,1.786,1.786,1.786,1.786,1.786,1.786,1.788,1.7914,2.5065,0.0,0.0,2.5625,0.0,0.0,2.803,0.0,0.0,3.3828,3.5591,0.0,3.9533,4.0441,4.0949,4.1082,4.0575,0.0,0.0,0.0,0.0,3.6126,3.5191,3.4536,3.4148,3.1717,0.0,2.8671,0.0,0.0,2.5064,0.0,0.0,0.0,0.0,2.6694,2.8163,3.153,3.3734,3.503,3.5859,3.662,0.0,3.7823,3.8624,3.9493,3.9519,3.9559,3.9599,3.9559,3.9559,3.964,3.9746,3.9786,3.9786,3.9746,3.9853,3.9974,3.9974,4.0107,4.004,3.9199,3.8691,3.7929,3.6032,3.6206,3.6393,3.511,3.5324,3.5177,0.0,0.0,0.0,2.656,2.5344,0.0,0.0,0.0,0.0,0.0,2.5144,2.5117,2.5358,2.5184,2.5504,2.6613,2.6814,2.7324,2.8371,3.1072,3.2775,3.2903,3.4064,3.5274,3.6941,3.4417,3.3481,3.4069,3.4032,3.3752,3.3235,2.8682,2.6529,2.6097,2.0466,1.786,1.786,1.786,1.786,1.786,1.786,1.786,1.786,1.786,1.786,1.786,0.0,0.0,0.0,0.0,0.0,0.0,0.0,3.0408,0.0,3.4389,0.0,3.7489,3.8584,4.0067,4.1056,4.131,0.0,3.9813,3.825,3.8865,3.8464,3.666,3.6981,3.6794,3.5992,3.4295,0.0,0.0,0.0,0.0,2.5064,2.4436,0.0,0.0,0.0,0.0,0.0,3.2759,3.479,3.5084,3.6393,3.7422,3.8183,3.8397,3.9279,4.0401,4.0174,3.992,3.9746,3.996,3.9893,3.9746,4.0,4.0107,4.0147,4.0401,4.0481,4.0481,4.0481,4.0481,4.0481,4.0481,4.0655,4.0361,3.8584,3.8397,3.8223,3.6874,3.6019,3.5458,3.5284,3.2679,2.9526,2.6373,0.0,0.0,0.0,0.0,0.0,0.0,0.0,0.0,2.4703,2.3915,2.4102,2.5718,2.5972,2.57,2.5037,2.9547,3.1841,3.1051,3.1967,3.3814,3.6432,3.124,2.9448,3.1125,3.1151,3.0904,3.0846,2.7854,2.6549,2.6097,2.0466,1.786,1.786,1.786,1.786,1.786,1.786,1.786,1.786,1.786,1.786,1.786,0.0,0.0,0.0,0.0,0.0,3.1022,3.3213,3.4322,3.5471,3.7008,3.8905,4.0401,4.1096,4.1229,4.1269,4.1336,4.0802,0.0,0.0,0.0,0.0,3.9346,3.8758,3.821,3.7823,3.491,3.2746,0.0,2.8123,2.6039,0.0,0.0,0.0,0.0,0.0,0.0,2.9285,3.1142,3.2612,3.3908,3.6072,3.7195,3.7702,3.9159,3.9893,4.0147,4.0334,4.0361,4.0294,4.0107,4.0147,4.0334,4.0374,4.0401,4.0401,4.0468,4.0481,4.0481,4.0481,4.0481,4.0481,4.0481,4.0508,4.0441,4.008,4.0227,4.0214,3.9493,3.9412,3.8664,3.6032,3.2158,2.8978,0.0,0.0,0.0,0.0,0.0,0.0,0.0,0.0,2.6346,0.0,2.4275,2.4382,2.517,2.4609,2.5259,2.7799,2.9216,3.0969,3.3237,3.4321,3.4605,3.3666,3.2218,3.0407,2.8465,3.055,3.1269,3.0846,2.8241,2.6701,2.6097,2.0466,1.786,1.786,1.786,1.786,1.786,1.786,1.786,1.786,1.786,1.786,1.786,0.0,0.0,0.0,0.0,0.0,0.0,0.0,3.7555,0.0,3.8103,3.9052,3.9893,4.0174,4.1016,4.1563,4.1563,4.1056,4.0695,4.0695,4.0294,4.0027,4.0027,3.9346,0.0,3.8504,3.6206,3.3921,3.1664,2.9045,2.676,0.0,0.0,0.0,2.4235,2.5438,2.7188,2.9379,3.1316,3.308,3.475,3.6981,3.821,3.8865,3.9893,4.0254,4.0294,4.0441,4.0481,4.0441,4.0321,4.0361,4.0481,4.0481,4.0481,4.0481,4.0481,4.0481,4.0481,4.0481,4.0481,4.0481,4.0481,4.0481,4.0481,4.0481,4.0588,4.0615,4.0321,4.0254,3.9346,3.6393,3.2866,0.0,0.0,0.0,0.0,0.0,0.0,0.0,0.0,0.0,0.0,0.0,2.4783,2.4356,2.4182,2.4062,2.4512,2.5532,2.7695,2.9805,3.1462,3.2493,3.3701,3.4939,3.0221,2.7813,2.7684,2.8561,2.8162,2.6313,2.664,2.5762,2.3937,1.9823,1.786,1.786,1.786,1.786,1.786,1.786,1.786,1.786,1.786,1.786,1.786,0.0,2.9597,0.0,0.0,3.3936,0.0,3.7395,3.9813,4.0842,3.9212,3.9279,3.9452,3.9386,4.0762,4.167,4.1603,4.1122,4.0802,4.0802,4.0401,4.0147,4.0147,3.9626,3.9199,3.8905,3.7448,3.5204,0.0,3.0127,2.7682,2.4903,0.0,2.3901,2.4209,2.5919,2.7696,2.9579,3.2104,3.4202,3.5992,3.7929,3.9159,3.988,4.0254,4.0361,4.0401,4.0441,4.0481,4.0481,4.0481,4.0481,4.0481,4.0481,4.0481,4.0481,4.0481,4.0481,4.0481,4.0481,4.0481,4.0481,4.0481,4.0481,4.0481,4.0481,4.0481,4.0468,4.0401,4.0147,3.9199,3.6727,3.4416,3.2679,0.0,0.0,0.0,0.0,0.0,0.0,0.0,0.0,0.0,2.6413,2.5411,2.4462,2.3581,2.4115,2.4162,2.355,2.644,2.8397,2.8913,3.0198,3.2028,3.4695,2.8734,2.6301,2.7639,2.7725,2.6206,2.3364,2.5564,2.51,2.1983,1.9177,1.786,1.786,1.786,1.786,1.786,1.786,1.786,1.786,1.786,1.8302,1.8743,0.0,0.0,0.0,0.0,0.0,0.0,3.86,4.0361,4.167,4.1497,4.171,4.1777,4.1537,4.1416,4.1269,4.1016,4.0695,4.0508,4.0508,4.0468,4.0441,4.0441,4.0107,3.9813,3.9533,3.8076,3.6112,0.0,3.0835,2.8203,2.5798,2.4422,2.4342,2.5411,2.6907,2.8711,3.0768,3.2906,3.4817,3.654,3.8103,3.8945,3.9306,3.9853,4.0067,4.0107,4.0361,4.0481,4.0481,4.0481,4.0481,4.0481,4.0481,4.0481,4.0481,4.0481,4.0481,4.0481,4.0481,4.0481,4.0481,4.0481,4.0481,4.0481,4.0481,4.0481,4.0401,4.0147,3.9853,3.9052,3.7208,3.6874,3.5965,3.3293,0.0,0.0,0.0,0.0,0.0,0.0,0.0,0.0,2.7722,2.6253,2.5064,2.4182,2.4903,2.5604,2.6454,2.6167,2.6766,2.7986,3.002,3.0332,2.9,3.055,3.0343,2.8323,3.0519,2.991,2.6614,2.7034,2.5367,2.1983,1.9177,1.786,1.786,1.786,1.786,1.786,1.786,1.786,1.786,1.786,1.961,2.1781,0.0,0.0,0.0,0.0,0.0,0.0,0.0,4.1243,4.1857,4.2031,4.2151,4.2178,4.2071,4.1777,4.1563,4.1456,4.1016,4.0735,4.0735,4.0588,4.0481,4.0481,4.0187,3.9893,3.9599,3.8477,3.658,0.0,0.0,0.0,0.0,2.5331,2.5438,2.664,2.8297,3.0074,3.1971,3.3868,3.5685,3.7408,3.8731,3.9412,3.9733,4.0147,4.0294,4.0321,4.0441,4.0481,4.0481,4.0481,4.0481,4.0481,4.0481,4.0481,4.0481,4.0481,4.0481,4.0481,4.0481,4.0481,4.0481,4.0481,4.0481,4.0508,4.0695,4.0588,4.0481,4.0548,4.0334,3.9853,3.8985,3.7742,3.6767,3.6473,0.0,0.0,0.0,0.0,0.0,0.0,0.0,0.0,0.0,2.5104,2.4436,2.5678,2.5117,2.4494,2.4073,2.532,2.6041,2.573,2.9829,3.1416,3.0302,3.1374,3.1519,3.0752,3.1531,2.9292,2.4458,2.6304,2.4412,1.961,1.8302,1.786,1.786,1.786,1.786,1.786,1.786,1.786,1.786,1.786,1.9815,2.221,4.2419,0.0,4.0952,0.0,4.1704,4.1957,4.4495,4.3858,4.3456,4.3636,4.2697,4.2151,4.1964,4.1777,4.1603,4.1416,4.1016,4.0762,4.0762,4.0588,4.0481,4.0481,4.0294,0.0,3.9746,3.8945,3.7342,3.491,3.2879,0.0,2.8217,2.7081,2.7228,2.8497,3.01,3.1704,3.332,3.5177,3.6727,3.8036,3.9239,3.9853,4.0067,4.0361,4.0481,4.0481,4.0481,4.0481,4.0481,4.0481,4.0481,4.0481,4.0481,4.0481,4.0481,4.0481,4.0481,4.0481,4.0481,4.0481,4.0481,4.0481,4.0548,4.0655,4.0869,4.0762,4.0628,4.0762,4.0615,4.0401,4.0214,3.8731,3.7702,3.825,3.7155,0.0,0.0,3.6112,0.0,0.0,2.9606,2.7909,2.7121,2.4903,2.4543,2.7028,2.5985,2.4862,2.3803,2.5276,2.5862,2.5206,2.9542,3.1854,3.1585,3.2772,3.3469,3.3482,3.3469,3.0553,2.551,2.5606,2.2811,1.786,1.786,1.786,1.786,1.786,1.786,1.786,1.786,1.786,1.786,1.786,2.0262,2.3511,4.7006,4.5414,4.5186,5.0526,5.0099,4.9747,5.1561,4.9065,4.7088,4.7088,4.418,4.2004,4.1416,4.1336,4.1122,4.0548,4.0481,4.0481,4.0481,4.0481,4.0481,0.0,0.0,4.0334,4.0027,3.9452,3.8544,3.7342,0.0,0.0,3.157,2.982,2.978,3.1236,3.2412,3.3601,3.4857,3.6901,3.7969,3.837,3.9559,4.0027,4.0067,4.0361,4.0481,4.0481,4.0481,4.0481,4.0481,4.0481,4.0481,4.0481,4.0481,4.0481,4.0481,4.0481,4.0481,4.0481,4.0481,4.0481,4.0481,4.0481,4.0695,4.0909,4.0909,4.0909,4.0842,4.0548,4.0481,4.0481,4.0481,4.0214,3.9412,3.7676,3.8103,0.0,0.0,3.5952,0.0,3.2853,3.0715,2.9232,2.8631,2.644,2.5905,2.7976,2.7843,2.7655,2.7655,2.623,2.603,2.7135,2.942,3.1019,3.1585,3.518,3.6927,3.6927,3.6927,3.5195,3.1764,2.5519,2.0859,1.786,1.786,1.786,1.786,1.786,1.786,1.786,1.786,1.786,1.786,1.786,2.1546,2.6529,5.3038,5.2132,5.1663,5.1465,5.1249,5.1364,5.1936,4.9326,4.7103,4.7103,4.4152,4.2071,4.167,4.1456,4.1269,0.0,4.0695,4.0481,0.0,4.0481,4.0481,4.0481,4.0481,4.0334,4.0027,3.9853,3.9078,3.7676,3.5832,3.3921,3.1971,3.2024,3.2505,3.34,3.4776,3.5925,3.6941,3.8183,3.9012,3.9519,4.0107,4.0334,4.0334,4.0441,4.0481,4.0481,4.0481,4.0481,4.0481,4.0481,4.0481,4.0481,4.0481,4.0481,4.0481,4.0481,4.0481,4.0508,4.0722,4.0762,4.0802,4.1016,4.1122,4.1203,4.1203,4.1056,4.0842,4.0548,4.0481,4.0481,4.0481,4.0401,4.0,3.9052,3.9132,3.8624,3.6647,0.0,3.3668,3.0795,2.8457,2.7001,2.6814,2.5932,2.6066,2.7709,2.7375,2.6685,2.588,2.7413,2.7446,2.5263,2.9929,3.2353,3.1856,3.5089,3.6754,3.6941,3.6941,3.5092,3.1738,2.5309,2.1839,2.0694,1.8736,1.786,1.786,1.786,1.786,1.786,1.786,1.786,1.786,1.786,2.1546,2.6529,5.7073,5.5267,5.418,5.5181,5.4489,5.4164,5.5401,5.1725,4.8818,4.8818,4.4904,4.2151,4.1964,4.1603,4.131,4.1203,4.0842,4.0588,4.0481,4.0481,4.0481,4.0481,4.0481,4.0401,4.0214,4.0107,3.9479,3.8317,3.6834,3.5311,3.3774,3.4336,3.4963,3.5672,3.6687,3.7595,3.8357,3.9159,3.9706,4.0067,4.0361,4.0481,4.0481,4.0481,4.0481,4.0481,4.0481,4.0481,4.0481,4.0481,4.0481,4.0481,4.0481,4.0481,4.0481,4.0481,4.0481,4.0548,4.0842,4.0909,4.0976,4.1269,4.1416,4.1483,4.1376,4.1122,4.0842,4.0548,4.0481,4.0481,4.0481,4.0294,4.004,3.9666,3.9306,3.8437,3.654,3.4803,3.2746,3.0127,2.8217,2.7201,2.7428,2.7375,2.7843,2.9098,2.9152,2.871,2.7508,2.8902,2.9145,2.7565,3.172,3.3875,3.3676,3.558,3.6754,3.6941,3.6834,3.4951,3.1609,2.6375,2.3364,2.1983,1.9177,1.786,1.786,1.786,1.786,1.786,1.786,1.786,1.786,1.786,2.0905,2.5014,5.9569,5.568,5.3778,6.0572,5.9278,5.8333,6.1213,5.6358,5.2245,5.2002,4.6372,4.2471,4.2218,4.171,4.1269,4.0976,4.0909,4.0762,4.0481,4.0481,4.0481,4.0481,4.0481,4.0481,4.0481,4.0214,3.9773,3.9159,3.7782,3.6941,3.662,3.6687,3.7128,3.7929,3.825,3.8691,3.9265,3.9813,4.0067,4.0067,4.0361,4.0481,4.0481,4.0481,4.0481,4.0481,4.0481,4.0481,4.0481,4.0481,4.0481,4.0481,4.0481,4.0481,4.0481,4.0481,4.0481,4.0548,4.0842,4.0949,4.1016,4.1336,4.1563,4.167,4.1376,4.1082,4.0802,4.0548,4.0481,4.0481,4.0481,4.0,3.964,3.9599,3.8771,3.7422,3.5391,3.4042,3.2519,3.0528,2.9566,2.9312,2.9913,3.0247,3.0755,3.1543,3.2385,3.2505,3.1717,3.0434,3.0742,3.2973,3.4482,3.5685,3.654,3.6834,3.6967,3.6967,3.6647,3.4978,3.184,2.8465,2.5413,2.2437,1.9177,1.786,1.786,1.786,1.786,1.786,1.786,1.786,1.786,1.786,1.9823,2.2857,6.0045,5.9246,5.8783,6.133,6.0979,6.0726,6.1485,5.8296,5.4921,5.2228,4.8572,4.4904,4.2471,4.1897,4.1563,4.1269,4.0842,4.0548,4.0481,4.0481,4.0481,4.0481,4.0481,4.0481,4.0481,4.0401,3.996,3.9159,3.8798,3.8357,3.7863,3.8317,3.8651,3.8865,3.9372,3.9706,3.9853,4.0214,4.0361,4.0361,4.0441,4.0481,4.0481,4.0481,4.0481,4.0481,4.0481,4.0481,4.0481,4.0481,4.0481,4.0481,4.0481,4.0481,4.0481,4.0481,4.0481,4.0588,4.1096,4.1229,4.1376,4.1884,4.1737,4.1376,4.1082,4.0802,4.0548,4.0481,4.0481,4.0481,4.0481,4.0187,3.9853,3.964,3.8103,3.6286,3.4456,3.2786,3.1236,2.986,2.9499,2.97,3.0515,3.0849,3.1009,3.0996,3.1396,3.165,3.1664,3.1971,3.2612,3.3641,3.5097,3.6286,3.7168,3.7235,3.7275,3.7275,3.654,3.5692,3.4937,2.9183,2.6146,2.5231,2.0035,1.786,1.786,1.786,1.786,1.786,1.786,1.786,1.786,1.786,2.1108,2.5664,6.0273,6.043,6.0723,6.1543,6.1719,6.1719,6.1719,5.9042,5.5658,5.2488,4.894,4.5656,4.2269,4.1644,4.131,4.1163,4.0869,4.0615,4.0481,4.0481,4.0481,4.0481,4.0481,4.0481,4.0481,4.0334,3.9893,3.9159,3.9012,3.8865,3.8691,3.9012,3.9306,3.9559,3.988,4.0107,4.0254,4.0254,4.0361,4.0481,4.0334,4.0361,4.0481,4.0481,4.0481,4.0481,4.0481,4.0481,4.0481,4.0481,4.0481,4.0481,4.0481,4.0481,4.0481,4.0481,4.0481,4.0615,4.1189,4.1336,4.1456,4.1897,4.1563,4.1096,4.0949,4.0695,4.0481,4.0481,4.0481,4.0481,4.0481,4.0107,3.964,3.9092,3.7275,3.5297,3.3521,3.1864,3.0795,3.0688,3.0675,3.1236,3.2666,3.2946,3.2812,3.2251,3.2599,3.2732,3.2478,3.3561,3.4336,3.467,3.5845,3.6767,3.7382,3.7235,3.7195,3.7155,3.6433,3.6072,3.5829,2.9344,2.6529,2.6097,2.0466,1.786,1.786,1.786,1.786,1.786,1.786,1.786,1.786,1.786,2.0694,2.4806,6.0273,6.043,6.0723,6.1543,6.1719,6.1719,6.1719,5.9278,5.6358,5.3131,4.9941,4.684,4.3414,4.2653,4.2091,4.1603,4.1589,4.1209,4.0481,4.0481,4.0481,4.0481,4.0481,4.0481,4.0481,4.0214,3.9853,3.9306,3.9092,3.9092,3.9306,3.9332,3.9626,4.0107,4.0107,4.0254,4.0468,4.0214,4.0254,4.0441,4.0214,4.0254,4.0481,4.0481,4.0481,4.0481,4.0481,4.0481,4.0481,4.0481,4.0481,4.0481,4.0481,4.0481,4.0481,4.0481,4.0508,4.0655,4.1203,4.1376,4.1456,4.167,4.131,4.0909,4.0842,4.0655,4.0481,4.0481,4.0481,4.0481,4.0481,3.996,3.9239,3.829,3.6219,3.4175,3.2572,3.1196,3.0795,3.1957,3.2385,3.3293,3.5151,3.5244,3.4923,3.4269,3.4509,3.4416,3.3774,3.4937,3.5672,3.5752,3.658,3.7155,3.7448,3.7155,3.7008,3.7008,3.6433,3.6112,3.5829,2.9378,2.6559,2.6097,2.0466,1.786,1.786,1.786,1.786,1.786,1.786,1.786,1.786,1.786,2.005,2.3075,6.0273,6.043,6.0723,6.1543,6.1719,6.1719,6.1719,6.1232,5.9654,5.5911,5.5075,5.3238,4.9815,4.892,4.7761,4.5157,4.4666,4.3336,4.071,4.0481,4.0481,4.0481,4.0481,4.0481,4.0481,4.0441,4.0254,3.9893,4.0107,4.0107,3.9893,4.0147,4.0334,4.0401,4.0401,4.0441,4.0481,4.0441,4.0441,4.0481,4.0441,4.0441,4.0481,4.0481,4.0481,4.0481,4.0481,4.0481,4.0481,4.0481,4.0481,4.0481,4.0481,4.0481,4.0481,4.0481,4.0655,4.0909,4.1229,4.1523,4.167,4.1456,4.1163,4.0842,4.0588,4.0508,4.0481,4.0481,4.0481,4.0481,4.0481,3.9786,3.8865,3.7702,3.4736,3.2318,3.1543,3.0808,3.0782,3.1957,3.3654,3.5044,3.5859,3.5485,3.5351,3.5712,3.4897,3.4656,3.5257,3.5511,3.5859,3.6353,3.6981,3.7448,3.7742,3.7448,3.7315,3.7315,3.6727,3.6313,3.5843,2.9773,2.6701,2.6097,2.0466,1.786,1.786,1.786,1.786,1.786,1.786,1.786,1.786,1.786,2.1335,2.5447,5.998,6.0273,6.0625,6.125,6.1543,6.1719,6.1719,6.1719,6.0415,5.7074,5.6221,5.4669,5.1167,4.8744,4.7005,4.5369,4.3576,4.2119,4.0481,4.0481,4.0481,4.0481,4.0481,4.0401,4.0254,4.0254,4.0107,3.9813,3.9773,3.9853,4.0027,4.0,4.0187,4.0481,4.0481,4.0481,4.0481,4.0294,4.0334,4.0468,4.0294,4.0334,4.0481,4.0481,4.0481,4.0481,4.0481,4.0481,4.0481,4.0481,4.0481,4.0481,4.0481,4.0481,4.0481,4.0481,4.0802,4.1163,4.131,4.1456,4.1483,4.1203,4.0869,4.0655,4.0508,4.0481,4.0481,4.0481,4.0481,4.0441,4.0254,3.964,3.8611,3.6941,3.4509,3.2612,3.2024,3.157,3.1904,3.3574,3.4897,3.5965,3.6687,3.6246,3.5952,3.6059,3.5418,3.5204,3.5605,3.5778,3.6059,3.65,3.7088,3.7448,3.7595,3.7301,3.6236,3.4619,3.422,3.3005,3.1172,2.6514,2.4339,2.3937,1.9815,1.786,1.786,1.786,1.7812,1.7758,1.7826,1.7812,1.7758,1.7826,2.1546,2.6097,5.9863,6.0215,6.0605,6.1133,6.1484,6.1719,6.1719,6.1719,6.0668,5.8037,5.7249,5.5841,5.3075,5.0169,4.7731,4.63,4.3968,4.2133,4.0481,4.0481,4.0481,4.0481,4.0481,4.0361,4.0147,4.0147,4.004,3.9813,3.9559,3.9666,4.0027,3.9893,4.0,4.0361,4.0441,4.0481,4.0468,4.0214,4.0254,4.0441,4.0214,4.0254,4.0481,4.0481,4.0481,4.0481,4.0481,4.0481,4.0481,4.0481,4.0481,4.0481,4.0481,4.0481,4.0481,4.0481,4.0842,4.1229,4.1229,4.131,4.1269,4.0976,4.0695,4.0481,4.0481,4.0481,4.0481,4.0481,4.0481,4.0401,4.0174,3.9599,3.8464,3.6406,3.4656,3.3334,3.2732,3.2505,3.3146,3.5164,3.5979,3.666,3.7422,3.7021,3.662,3.6393,3.6099,3.5939,3.5939,3.6153,3.638,3.6607,3.7048,3.7315,3.7382,3.7088,3.5793,3.3515,3.2642,3.0809,2.807,2.4366,2.2413,2.1983,1.9177,1.786,1.786,1.786,1.7792,1.7704,1.7826,1.7792,1.7717,1.7826,2.1116,2.5014,6.0215,6.043,6.0683,6.1543,6.1719,6.1719,6.1719,6.1719,6.1213,6.0396,5.9992,5.9682,5.8643,5.8283,5.5911,5.0022,4.9356,4.6552,4.0939,4.0481,4.0481,4.0481,4.0481,4.0481,4.0441,4.0441,4.0441,4.0401,4.0401,4.0254,4.0027,4.0294,4.0294,4.0067,4.0361,4.0481,4.0481,4.0441,4.0441,4.0481,4.0441,4.0441,4.0481,4.0481,4.0481,4.0481,4.0481,4.0481,4.0481,4.0481,4.0481,4.0481,4.0481,4.0481,4.0481,4.0481,4.0695,4.0949,4.0949,4.1122,4.1269,4.0976,4.0695,4.0481,4.0481,4.0481,4.0481,4.0481,4.0481,4.0481,4.0441,3.9746,3.8464,3.6406,3.4817,3.3641,3.3026,3.316,3.3988,3.5792,3.6767,3.7422,3.7742,3.7489,3.7315,3.7275,3.7008,3.6834,3.6834,3.6861,3.6901,3.6901,3.6941,3.7088,3.7382,3.7088,3.6706,3.6484,3.3726,3.2091,3.1172,2.5411,2.2549,2.1983,1.9177,1.786,1.786,1.786,1.786,1.7846,1.786,1.786,1.7846,1.786,1.9823,2.221,5.9922,6.0273,6.0625,6.1211,6.1543,6.1601,6.1367,6.1328,6.1133,6.0508,6.0215,5.9922,5.959,5.7702,5.5383,5.2815,5.0968,4.795,4.3743,4.516,4.4445,4.071,4.0481,4.0481,4.0481,4.0481,4.0481,4.0481,4.0294,4.0254,4.0294,4.0214,4.0254,4.0321,4.0441,4.0481,4.0481,4.0481,4.0481,4.0481,4.0481,4.0481,4.0481,4.0481,4.0481,4.0481,4.0481,4.0481,4.0481,4.0481,4.0481,4.0481,4.0481,4.0481,4.0481,4.0481,4.0695,4.0869,4.0695,4.0842,4.1016,4.0722,4.0548,4.0481,4.0481,4.0481,4.0481,4.0481,4.0481,4.0401,4.0214,3.9773,3.8865,3.7168,3.6259,3.5511,3.4736,3.503,3.5712,3.6767,3.7342,3.7782,3.8076,3.7823,3.7569,3.7382,3.7275,3.7195,3.7195,3.7195,3.7128,3.6941,3.6941,3.6981,3.7114,3.7008,3.6041,3.4185,3.2856,3.1213,2.8754,2.6541,2.5414,2.4806,2.1781,2.0474,2.0482,1.8736,1.7812,1.7738,1.7826,1.7812,1.7738,1.7826,1.9815,2.1781,5.9922,6.0254,6.0605,6.1191,6.1426,6.1426,6.1133,6.0976,6.0742,6.0312,5.998,5.9746,5.9629,5.7476,5.5628,5.4472,5.2585,5.0022,4.6773,4.8654,4.748,4.2105,4.1878,4.1878,4.1878,4.0953,4.0953,4.1878,4.0736,4.0214,4.0334,4.0214,4.0214,4.0334,4.0441,4.0481,4.0481,4.0481,4.0481,4.0481,4.0481,4.0481,4.0481,4.0481,4.0481,4.0481,4.0481,4.0481,4.0481,4.0481,4.0481,4.0481,4.0481,4.0481,4.0481,4.0481,4.0615,4.0735,4.0508,4.0615,4.0762,4.0655,4.0548,4.0508,4.0588,4.0548,4.0481,4.0481,4.0481,4.0401,4.0214,3.992,3.9306,3.7996,3.7555,3.7088,3.6286,3.6607,3.7088,3.7595,3.7929,3.8183,3.8397,3.8143,3.7863,3.7676,3.7569,3.7489,3.7382,3.7382,3.7235,3.6941,3.6941,3.6901,3.6794,3.6794,3.5637,3.3506,3.2678,3.0888,2.8427,2.7618,2.6954,2.6313,2.3511,2.2656,2.3293,1.939,1.8452,1.9024,1.826,1.7812,1.7717,1.7826,1.9177,2.0474,6.0273,6.043,6.0723,6.1543,6.1367,6.1094,6.1094,6.0723,6.0273,5.9863,5.9805,5.9648,5.9238,5.918,5.802,5.4718,5.4472,5.3292,5.0039,4.9806,4.8388,4.5382,4.5145,4.5145,4.5145,4.2105,4.2133,4.5145,4.2133,4.0334,4.0027,4.0334,4.0321,4.004,4.0334,4.0481,4.0481,4.0481,4.0481,4.0481,4.0481,4.0481,4.0481,4.0481,4.0481,4.0481,4.0481,4.0481,4.0481,4.0481,4.0481,4.0481,4.0481,4.0481,4.0481,4.0481,4.0481,4.0481,4.0481,4.0481,4.0548,4.0842,4.0695,4.0548,4.0842,4.0695,4.0481,4.0481,4.0481,4.0481,4.0481,4.0214,3.9746,3.8865,3.8477,3.8076,3.7489,3.7635,3.7929,3.8223,3.8544,3.8718,3.8718,3.8437,3.8263,3.8263,3.7996,3.7676,3.7382,3.7382,3.7235,3.6941,3.6941,3.6794,3.65,3.65,3.6366,3.6072,3.3444,3.1727,3.1257,2.8406,2.6964,2.6313,2.3511,2.3937,2.6097,2.0262,1.961,2.1781,1.8949,1.786,1.786,1.786,1.786,1.7846,5.9883,6.0215,6.0508,6.0781,6.0957,6.0898,6.0273,6.0098,5.9863,5.9414,5.9355,5.9297,5.918,5.918,5.8732,5.7776,5.7756,5.7287,5.6383,5.4243,5.262,5.1663,4.9573,4.842,4.842,4.748,4.63,4.5145,4.4192,4.2544,4.0334,4.0441,4.0441,4.0361,4.0441,4.0481,4.0481,4.0481,4.0481,4.0481,4.0481,4.0481,4.0481,4.0481,4.0481,4.0481,4.0481,4.0481,4.0481,4.0481,4.0481,4.0481,4.0481,4.0481,4.0508,4.0735,4.0628,4.0508,4.0735,4.0615,4.0508,4.0588,4.0548,4.0508,4.0588,4.0548,4.0481,4.0481,4.0481,4.0481,4.0481,4.0401,4.0187,3.9706,3.9386,3.9052,3.8691,3.8544,3.8477,3.8584,3.8651,3.8718,3.8718,3.8651,3.8504,3.8263,3.7996,3.7676,3.7382,3.7382,3.7235,3.6941,3.6941,3.6687,3.6206,3.6393,3.6366,3.6072,3.5271,3.4669,3.4308,3.3525,3.292,3.2373,2.9551,2.7607,2.6313,2.242,2.0255,1.917,1.8295,1.786,1.786,1.786,1.786,1.7846,5.9746,6.0039,6.0254,6.039,6.0508,6.039,5.9883,5.9687,5.9473,5.9238,5.918,5.918,5.918,5.918,5.918,5.918,5.918,5.918,5.918,5.7531,5.6364,5.6364,5.4472,5.285,5.1663,4.9106,4.7699,4.6993,4.4445,4.2332,4.0481,4.0481,4.0481,4.0481,4.0481,4.0481,4.0481,4.0481,4.0481,4.0481,4.0481,4.0481,4.0481,4.0481,4.0481,4.0481,4.0481,4.0481,4.0481,4.0481,4.0481,4.0481,4.0481,4.0481,4.0508,4.0695,4.0615,4.0508,4.0695,4.0615,4.0481,4.0481,4.0481,4.0508,4.0615,4.0548,4.0481,4.0481,4.0481,4.0441,4.0334,4.0401,4.0334,3.992,3.9706,3.9493,3.9199,3.8905,3.8718,3.8718,3.8611,3.8544,3.8544,3.8437,3.825,3.7929,3.7849,3.7635,3.7235,3.7088,3.7008,3.6941,3.6834,3.654,3.6072,3.6246,3.6126,3.5725,3.5845,3.5738,3.5458,3.5578,3.5471,3.498,3.2148,2.9979,2.8038,2.3937,2.1132,1.939,1.8302,1.8473,1.9513,1.9513,2.0162,2.1197,5.9687,5.9805,5.9922,6.0273,6.0039,5.9805,5.9746,5.9414,5.918,5.918,5.918,5.918,5.918,5.918,5.918,5.918,5.918,5.918,5.918,5.918,5.918,5.918,5.918,5.7776,5.4472,4.8856,4.7229,4.9806,4.3743,4.0724,4.0481,4.0481,4.0481,4.0481,4.0481,4.0481,4.0481,4.0481,4.0481,4.0481,4.0481,4.0481,4.0481,4.0481,4.0481,4.0481,4.0481,4.0481,4.0481,4.0481,4.0481,4.0481,4.0481,4.0481,4.0481,4.0508,4.0508,4.0481,4.0508,4.0508,4.0481,4.0481,4.0481,4.0548,4.0802,4.0655,4.0481,4.0481,4.0481,4.0401,4.0067,4.0254,4.0254,3.968,3.9559,3.9452,3.9199,3.8905,3.8718,3.8718,3.8437,3.8263,3.8263,3.7996,3.7702,3.7448,3.7635,3.7555,3.7008,3.6687,3.662,3.6901,3.662,3.6326,3.6032,3.6032,3.5752,3.5204,3.5458,3.5458,3.5204,3.5471,3.5444,3.498,3.2361,3.1059,3.0407,2.5211,2.2839,2.2177,1.9558,2.0116,2.213,2.213,2.3833,2.5892,5.9297,5.959,5.9746,5.9473,5.9648,5.9687,5.9355,5.9238,5.918,5.918,5.918,5.918,5.918,5.918,5.918,5.918,5.918,5.918,5.918,5.918,5.918,5.918,5.918,5.7776,5.4472,5.3045,5.168,4.9806,4.6079,4.2827,4.0481,4.0481,4.0481,4.0481,4.0481,4.0481,4.0481,4.0481,4.0481,4.0481,4.0481,4.0481,4.0481,4.0481,4.0481,4.0481,4.0481,4.0481,4.0481,4.0481,4.0481,4.0481,4.0481,4.0481,4.0508,4.0762,4.0655,4.0508,4.0762,4.0655,4.0481,4.0481,4.0481,4.0481,4.0548,4.0508,4.0481,4.0481,4.0481,4.0401,4.0067,4.0067,4.0,3.9666,3.9412,3.9225,3.9159,3.8905,3.8718,3.8718,3.8437,3.8263,3.8263,3.7996,3.7782,3.7742,3.7569,3.7422,3.7301,3.6794,3.654,3.6607,3.6313,3.6019,3.5725,3.5725,3.5551,3.5191,3.5257,3.5257,3.5204,3.5257,3.5257,3.5191,3.4544,3.301,3.0822,2.9337,2.7334,2.5185,2.4381,2.4287,2.4885,2.4885,2.5097,2.5711,5.918,5.9355,5.9453,5.9238,5.9355,5.9414,5.9238,5.918,5.918,5.918,5.918,5.918,5.918,5.918,5.918,5.918,5.918,5.918,5.918,5.918,5.918,5.918,5.918,5.7776,5.4472,5.3062,5.0736,4.7448,4.443,4.2105,4.0481,4.0481,4.0481,4.0481,4.0481,4.0481,4.0481,4.0481,4.0481,4.0481,4.0481,4.0481,4.0481,4.0481,4.0481,4.0481,4.0481,4.0481,4.0481,4.0481,4.0481,4.0481,4.0481,4.0481,4.0508,4.0655,4.0588,4.0508,4.0655,4.0588,4.0481,4.0481,4.0481,4.0481,4.0481,4.0481,4.0481,4.0481,4.0361,4.0187,3.9893,3.9813,3.9666,3.9239,3.9159,3.9118,3.8972,3.8825,3.8651,3.8504,3.8223,3.7929,3.7676,3.7595,3.7555,3.7408,3.7382,3.7315,3.7168,3.662,3.6366,3.65,3.6086,3.5792,3.5631,3.5631,3.5485,3.5191,3.5191,3.5191,3.5191,3.5191,3.5191,3.5191,3.5191,3.3672,3.0822,3.0564,2.8745,2.6175,2.5741,2.6431,2.7381,2.7381,2.8432,2.948,5.918,5.918,5.918,5.918,5.918,5.918,5.918,5.918,5.918,5.918,5.918,5.918,5.918,5.918,5.8956,5.8449,5.8917,5.918,5.918,5.918,5.918,5.918,5.918,5.7531,5.375,5.1217,4.8169,4.5145,4.2119,4.0481,4.0481,4.0481,4.0481,4.0481,4.0481,4.0481,4.0481,4.0481,4.0481,4.0481,4.0481,4.0481,4.0481,4.0481,4.0481,4.0481,4.0481,4.0481,4.0481,4.0481,4.0481,4.0481,4.0481,4.0481,4.0481,4.0481,4.0441,4.0401,4.0468,4.0441,4.0401,4.0481,4.0481,4.0481,4.0481,4.0481,4.0468,4.0401,4.0214,3.992,3.9599,3.9519,3.9346,3.8798,3.8945,3.8972,3.8691,3.8651,3.8544,3.8223,3.7929,3.7529,3.6981,3.7155,3.7195,3.6967,3.7155,3.7168,3.6874,3.6366,3.6166,3.6353,3.5832,3.5551,3.5551,3.5551,3.5431,3.5191,3.5191,3.5191,3.5191,3.5191,3.5191,3.5191,3.5191,3.3858,3.1614,3.1138,2.9733,2.7335,2.7102,2.8342,3.0238,3.0238,3.1742,3.3881,5.918,5.918,5.918,5.918,5.918,5.918,5.918,5.918,5.918,5.918,5.918,5.918,5.918,5.918,5.8,5.5401,5.7531,5.918,5.918,5.918,5.918,5.918,5.918,5.6383,5.0487,5.0039,4.8169,4.5145,4.2119,4.0481,4.0481,4.0481,4.0481,4.0481,4.0481,4.0481,4.0481,4.0481,4.0481,4.0481,4.0481,4.0481,4.0481,4.0481,4.0481,4.0481,4.0481,4.0481,4.0481,4.0481,4.0481,4.0481,4.0481,4.0481,4.0481,4.0481,4.0294,4.0147,4.0401,4.0294,4.0147,4.0401,4.0481,4.0481,4.0481,4.0481,4.0401,4.0147,4.0067,3.9853,3.9306,3.9225,3.9118,3.8758,3.8758,3.8691,3.837,3.833,3.8223,3.7929,3.7635,3.7301,3.6981,3.6981,3.6981,3.6941,3.6981,3.6874,3.658,3.6259,3.5965,3.5752,3.5431,3.5257,3.5257,3.5257,3.5231,3.5191,3.5191,3.5191,3.5191,3.5191,3.5191,3.5191,3.5191,3.4833,3.415,3.3862,3.3381,3.2711,3.2415,3.2475,3.2851,3.2851,3.3237,3.3841,5.918,5.918,5.918,5.918,5.918,5.918,5.918,5.918,5.918,5.918,5.918,5.8469,5.6817,5.6591,5.6817,5.7042,5.8488,5.918,5.918,5.918,5.918,5.918,5.918,5.708,5.2585,5.0736,4.8169,4.5145,4.2119,4.0481,4.0481,4.0481,4.0481,4.0481,4.0481,4.0481,4.0481,4.0481,4.0481,4.0481,4.0481,4.0481,4.0481,4.0481,4.0481,4.0481,4.0481,4.0481,4.0481,4.0481,4.0481,4.0481,4.0481,4.0481,4.0481,4.0481,4.0254,4.0107,4.0401,4.0254,4.0107,4.0401,4.0481,4.0441,4.0254,4.0214,4.0187,4.0067,3.9773,3.9452,3.9199,3.9012,3.8865,3.8758,3.8584,3.8397,3.829,3.8116,3.7889,3.7595,3.7301,3.7008,3.6727,3.6834,3.6861,3.6727,3.6834,3.6794,3.6513,3.6233,3.5939,3.5645,3.5351,3.5191,3.5191,3.5191,3.5191,3.5191,3.5191,3.5191,3.5191,3.5191,3.5191,3.5191,3.5017,3.4883,3.4723,3.4269,3.4002,3.3855,3.3534,3.3414,3.3414,3.3414,3.3721,3.4055]}]]